[[{"header":{"parameterUnit":"m.s-1","parameterCategory":1,"la1":31.0,"la2":29.5877,"lo1":-88.7671,"lo2":-86.6584,"dy":0.0162,"dx":0.0185,"nx":115,"ny":88,"refTime":"2024-06-10T12:00:00:Z","depth":0,"parameterNumber":2,"parameterNumberName":"U-component_of_WINDS"},"data":[0.0,0.0,0.0,0.0,0.0,0.0,0.0,0.0,0.0,0.0,0.0,0.0,0.0,0.0,0.0,0.0,0.0,0.0,0.0,0.0,0.0,0.0,0.0,0.0,0.0,0.0,0.0,0.0,0.0,0.0,0.0,0.0,0.0,0.0,0.0,0.0,0.0,0.0,0.0,0.0,0.0,0.0,0.0,0.0,0.0,0.0,0.0,0.0,0.0,0.0,0.0,0.0,0.0,0.0,0.0,0.0,0.0,0.0,0.0,0.0,0.0,0.0,0.0,0.0,0.0,0.0,0.0,0.0,0.0,0.0,0.0,0.0,0.0,0.0,0.0,0.0,0.0,0.0,0.0,0.0,0.0,0.0,0.0,0.0,0.0,0.0,0.0,0.0,0.0,0.0,0.0,0.0,0.0,0.0,0.0,0.0,0.0,0.0,0.0,0.0,0.0,0.0,0.0,0.0,0.0,0.0,0.0,0.0,0.0,0.0,0.0,0.0,0.0,0.0,0.0,0.0,0.0,0.0,0.0,0.0,0.0,0.0,0.0,0.0,0.0,0.0,0.0,0.0,0.0,0.0,0.0,0.0,0.0,0.0,0.0,0.0,0.0,0.0,0.0,0.0,0.0,0.0,0.0,0.0,0.0,0.0,0.0,0.0,0.0,0.0,0.0,0.0,0.0,0.0,0.0,0.0,0.0,0.0,0.0,0.0,0.0,0.0,0.0,0.0,0.0,0.0,0.0,0.0,0.0,0.0,0.0,0.0,0.0,0.0,0.0,0.0,0.0,0.0,0.0,0.0,0.0,0.0,0.0,0.0,0.0,0.0,0.0,0.0,0.0,0.0,0.0,0.0,0.0,0.0,0.0,0.0,0.0,0.0,0.0,0.0,0.0,0.0,0.0,0.0,0.0,0.0,0.0,0.0,0.0,0.0,0.0,0.0,0.0,0.0,0.0,0.0,0.0,0.0,0.0,0.0,0.0,0.0,0.0,0.0,0.0,0.0,0.0,0.0,0.0,0.0,0.0,0.0,0.0,0.0,0.0,0.0,0.0,0.0,0.0,0.0,0.0,0.0,0.0,0.0,0.0,0.0,0.0,0.0,0.0,0.0,0.0,0.0,0.0,0.0,0.0,0.0,0.0,0.0,0.0,0.0,0.0,0.0,0.0,0.0,0.0,0.0,0.0,0.0,0.0,0.0,0.0,0.0,0.0,0.0,0.0,0.0,0.0,0.0,0.0,0.0,0.0,0.0,0.0,0.0,0.0,0.0,0.0,0.0,0.0,0.0,0.0,0.0,0.0,0.0,0.0,0.0,0.0,0.0,0.0,0.0,0.0,0.0,0.0,0.0,0.0,0.0,0.0,0.0,0.0,0.0,0.0,0.0,0.0,0.0,0.0,0.0,0.0,0.0,0.0,0.0,0.0,0.0,0.0,0.0,0.0,0.0,0.0,0.0,0.0,0.0,0.0,0.0,0.0,0.0,0.0,0.0,0.0,0.0,0.0,0.0,0.0,0.0,0.0,0.0,0.0,0.0,0.0,0.0,0.0,0.0,0.0,0.0,0.0,0.0,0.0,0.0,0.0,0.0,0.0,0.0,0.0,0.0,0.0,0.0,0.0,0.0,0.0,0.0,0.0,0.0,0.0,0.0,0.0,0.0,0.0,0.0,0.0,0.0,0.0,0.0,0.0,0.0,0.0,0.0,0.0,0.0,0.0,0.0,0.0,0.0,0.0,0.0,0.0,0.0,0.0,0.0,0.0,0.0,0.0,0.0,0.0,0.0,0.0,0.0,0.0,0.0,0.0,0.0,0.0,0.0,0.0,0.0,0.0,0.0,0.0,0.0,0.0,0.0,0.0,0.0,0.0,0.0,0.0,0.0,0.0,0.0,0.0,0.0,0.0,0.0,0.0,0.0,0.0,0.0,0.0,0.0,0.0,0.0,0.0,0.0,0.0,0.0,0.0,0.0,0.0,0.0,0.0,0.0,0.0,0.0,0.0,0.0,0.0,0.0,0.0,0.0,0.0,0.0,0.0,0.0,0.0,0.0,0.0,0.0,0.0,0.0,0.0,0.0,0.0,0.0,0.0,0.0,0.0,0.0,0.0,0.0,0.0,0.0,0.0,0.0,0.0,0.0,0.0,0.0,0.0,0.0,0.0,0.0,0.0,0.0,0.0,0.0,0.0,0.0,0.0,0.0,0.0,0.0,0.0,0.0,0.0,0.0,0.0,0.0,0.0,0.0,0.0,0.0,0.0,0.0,0.0,0.0,0.0,0.0,0.0,0.0,0.0,0.0,0.0,0.0,0.0,0.0,0.0,0.0,0.0,0.0,0.0,0.0,0.0,0.0,0.0,0.0,0.0,0.0,0.0,0.0,0.0,0.0,0.0,0.0,0.0,0.0,0.0,0.0,0.0,0.0,0.0,0.0,0.0,0.0,0.0,0.0,0.0,0.0,0.0,0.0,0.0,0.0,0.0,0.0,0.0,0.0,0.0,0.0,0.0,0.0,0.0,0.0,0.0,0.0,0.0,0.0,0.0,0.0,0.0,0.0,0.0,0.0,0.0,0.0,0.0,0.0,0.0,0.0,0.0,0.0,0.0,0.0,0.0,0.0,0.0,0.0,0.0,0.0,0.0,0.0,0.0,0.0,0.0,0.0,0.0,0.0,0.0,0.0,0.0,0.0,0.0,0.0,0.0,0.0,0.0,0.0,0.0,0.0,0.0,0.0,0.0,0.0,0.0,0.0,0.0,0.0,0.0,0.0,0.0,0.0,0.0,0.0,0.0,0.0,0.0,0.0,0.0,0.0,0.0,0.0,0.0,0.0,0.0,0.0,0.0,0.0,0.0,0.0,0.0,0.0,0.0,0.0,0.0,0.0,0.0,0.0,0.0,0.0,0.0,0.0,0.0,0.0,0.0,0.0,0.0,0.0,0.0,0.0,0.0,0.0,0.0,0.0,0.0,0.0,0.0,0.0,0.0,0.0,0.0,0.0,0.0,0.0,0.0,0.0,0.0,0.0,0.0,0.0,0.0,0.0,0.0,0.0,0.0,0.0,0.0,0.0,0.0,0.0,0.0,0.0,0.0,0.0,0.0,0.0,0.0,0.0,0.0,0.0,0.0,0.0,0.0,0.0,0.0,0.0,0.0,0.0,0.0,0.0,0.0,0.0,0.0,0.0,0.0,0.0,0.0,0.0,0.0,0.0,0.0,0.0,0.0,0.0,0.0,0.0,0.0,0.0,0.0,0.0,0.0,0.0,0.0,0.0,0.0,0.0,0.0,0.0,0.0,0.0,0.0,0.0,0.0,0.0,0.0,0.0,0.0,0.0,0.0,0.0,0.0,0.0,0.0,0.0,0.0,0.0,0.0,0.0,0.0,0.0,0.0,0.0,0.0,0.0,0.0,0.0,0.0,0.0,0.0,0.0,0.0,0.0,0.0,0.0,0.0,0.0,0.0,0.0,0.0,0.0,0.0,0.0,0.0,0.0,0.0,0.0,0.0,0.0,0.0,0.0,0.0,0.0,0.0,0.0,0.0,0.0,0.0,0.0,0.0,0.0,0.0,0.0,0.0,0.0,0.0,0.0,0.0,0.0,0.0,0.0,0.0,0.0,0.0,0.0,0.0,0.0,0.0,0.0,0.0,0.0,0.0,0.0,0.0,0.0,0.0,0.0,0.0,0.0,0.0,0.0,0.0,0.0,0.0,0.0,0.0,0.0,0.0,0.0,0.0,0.0,0.0,0.0,0.0,0.0,0.0,0.0,0.0,0.0,0.0,0.0,0.0,0.0,0.0,0.0,0.0,0.0,0.0,0.0,0.0,0.0,0.0,0.0,0.0,0.0,0.0,0.0,0.0,0.0,0.0,0.0,0.0,0.0,0.0,0.0,0.0,0.0,0.0,0.0,0.0,0.0,0.0,0.0,0.0,0.0,0.0,0.0,0.0,0.0,0.0,0.0,0.0,0.0,0.0,0.0,0.0,0.0,0.0,0.0,0.0,0.0,0.0,0.0,0.0,0.0,0.0,0.0,0.0,0.0,0.0,0.0,0.0,0.0,0.0,0.0,0.0,0.0,0.0,0.0,0.0,0.0,0.0,0.0,0.0,0.0,0.0,0.0,0.0,0.0,0.0,0.0,0.0,0.0,0.0,0.0,0.0,0.0,0.0,0.0,0.0,0.0,0.0,0.0,0.0,0.0,0.0,0.0,0.0,0.0,0.0,0.0,0.0,0.0,0.0,0.0,0.0,0.0,0.0,0.0,0.0,0.0,0.0,0.0,1.7068,0.0,0.0,0.0,0.0,0.0,0.0,0.0,0.0,0.0,0.0,0.0,0.0,0.0,0.0,0.0,0.0,0.0,0.0,0.0,0.0,0.0,0.0,0.0,0.0,0.0,0.0,0.0,0.0,0.0,0.0,0.0,0.0,0.0,0.0,0.0,0.0,0.0,0.0,0.0,0.0,0.0,0.0,0.0,0.0,0.0,0.0,0.0,0.0,0.0,0.0,0.0,0.0,0.0,0.0,0.0,0.0,0.0,0.0,0.0,0.0,0.0,0.0,0.0,0.0,0.0,0.0,0.0,0.0,0.0,0.0,0.0,0.0,0.0,0.0,0.0,0.0,0.0,0.0,0.0,0.0,0.0,0.0,0.0,0.0,0.0,0.0,0.0,0.0,0.0,0.0,0.0,0.0,0.0,0.0,0.0,0.0,0.0,0.0,0.0,0.0,0.0,0.0,0.0,0.0,0.0,0.0,0.0,0.0,0.0,0.0,1.6602,1.6528,1.6633,1.6644,1.6565,0.0,0.0,0.0,0.0,0.0,0.0,0.0,0.0,0.0,0.0,0.0,0.0,0.0,0.0,0.0,0.0,0.0,0.0,0.0,0.0,0.0,0.0,0.0,0.0,0.0,0.0,0.0,0.0,0.0,0.0,0.0,0.0,0.0,0.0,0.0,0.0,0.0,0.0,0.0,0.0,0.0,0.0,0.0,0.0,0.0,0.0,0.0,0.0,0.0,0.0,0.0,0.0,0.0,0.0,0.0,0.0,0.0,0.0,0.0,0.0,0.0,0.0,0.0,0.0,0.0,0.0,0.0,0.0,0.0,0.0,0.0,0.0,0.0,0.0,0.0,0.0,0.0,0.0,0.0,0.0,0.0,0.0,0.0,0.0,0.0,0.0,0.0,0.0,0.0,0.0,0.0,0.0,0.0,0.0,0.0,0.0,0.0,0.0,0.0,0.0,0.0,0.0,0.0,0.0,0.0,0.0,0.0,0.0,0.0,0.0,0.0,0.0,1.6108,1.6148,1.6093,0.0,0.0,0.0,0.0,0.0,0.0,0.0,0.0,0.0,0.0,0.0,0.0,0.0,0.0,0.0,0.0,0.0,0.0,0.0,0.0,0.0,0.0,0.0,0.0,0.0,0.0,0.0,0.0,0.0,0.0,0.0,0.0,0.0,0.0,0.0,0.0,0.0,0.0,0.0,0.0,0.0,0.0,0.0,0.0,0.0,0.0,0.0,0.0,0.0,0.0,0.0,0.0,0.0,0.0,0.0,0.0,0.0,0.0,0.0,0.0,0.0,0.0,0.0,0.0,0.0,0.0,0.0,0.0,0.0,0.0,0.0,0.0,0.0,0.0,0.0,0.0,0.0,0.0,0.0,0.0,0.0,0.0,0.0,0.0,0.0,0.0,0.0,0.0,0.0,0.0,0.0,0.0,0.0,0.0,0.0,0.0,0.0,0.0,0.0,0.0,0.0,0.0,0.0,0.0,0.0,0.0,0.0,0.0,0.0,0.0,1.5,1.5536,1.5652,0.0,1.5681,0.0,0.0,0.0,0.0,0.0,0.0,0.0,0.0,0.0,0.0,0.0,0.0,0.0,0.0,0.0,0.0,0.0,0.0,0.0,0.0,0.0,0.0,0.0,0.0,0.0,0.0,0.0,0.0,0.0,0.0,0.0,0.0,0.0,0.0,0.0,0.0,0.0,0.0,0.0,0.0,0.0,0.0,0.0,0.0,0.0,0.0,0.0,0.0,0.0,0.0,0.0,0.0,0.0,0.0,0.0,0.0,0.0,0.0,0.0,0.0,0.0,0.0,0.0,0.0,0.0,0.0,0.0,0.0,0.0,0.0,0.0,0.0,0.0,0.0,0.0,0.0,0.0,0.0,0.0,0.0,0.0,0.0,0.0,0.0,0.0,0.0,0.0,0.0,0.0,0.0,0.0,0.0,0.0,0.0,0.0,0.0,0.0,0.0,0.0,0.0,0.0,0.0,0.0,0.0,0.0,0.0,0.0,0.0,0.0,0.0,1.4082,1.4319,1.4477,1.4634,0.0,0.0,0.0,0.0,0.0,0.0,0.0,0.0,0.0,0.0,0.0,0.0,0.0,0.0,0.0,0.0,0.0,0.0,0.0,0.0,0.0,0.0,0.0,0.0,0.0,0.0,0.0,0.0,0.0,0.0,0.0,0.0,0.0,0.0,0.0,0.0,0.0,0.0,0.0,0.0,0.0,0.0,0.0,0.0,0.0,0.0,0.0,0.0,0.0,0.0,0.0,0.0,0.0,0.0,0.0,0.0,0.0,0.0,0.0,0.0,0.0,0.0,0.0,0.0,0.0,0.0,0.0,0.0,0.0,0.0,0.0,0.0,0.0,0.0,0.0,0.0,0.0,0.0,0.0,0.0,0.0,0.0,0.0,0.0,0.0,0.0,0.0,0.0,0.0,0.0,0.0,0.0,0.0,0.0,0.0,0.0,0.0,0.0,0.0,0.0,0.0,0.0,0.0,0.0,0.0,0.0,0.0,0.0,0.0,0.0,1.2775,1.306,1.3082,1.323,1.3411,1.3598,0.0,0.0,0.0,0.0,0.0,0.0,0.0,0.0,0.0,0.0,0.0,0.0,0.0,0.0,0.0,0.0,0.0,0.0,0.0,0.0,0.0,0.0,0.0,0.0,0.0,0.0,0.0,0.0,0.0,0.0,0.0,0.0,0.0,0.0,0.0,0.0,0.0,0.0,0.0,0.0,0.0,0.0,0.0,0.0,0.0,0.0,0.0,0.0,0.0,0.0,0.0,0.0,0.0,0.0,0.0,0.0,0.0,0.0,0.0,0.0,0.0,0.0,0.0,0.0,0.0,0.0,0.0,0.0,0.0,0.0,0.0,0.0,0.0,0.0,0.0,0.0,0.0,0.0,0.0,0.0,0.0,0.0,0.0,0.0,0.0,0.0,0.0,0.0,0.0,0.0,0.0,0.0,0.0,0.0,0.0,0.0,0.0,0.0,0.0,0.0,0.0,0.0,0.0,0.0,0.0,0.0,0.0,0.0,1.1159,1.16,1.1915,1.1846,1.2059,1.2248,0.0,0.0,0.0,0.0,0.0,0.0,0.0,0.0,0.0,0.0,0.0,0.0,0.0,0.0,0.0,0.0,0.0,0.0,0.0,0.0,0.0,0.0,0.0,0.0,0.0,0.0,0.0,0.0,0.0,0.0,0.0,0.0,0.0,0.0,0.0,0.0,0.0,0.0,0.0,0.0,0.0,0.0,0.0,0.0,0.0,0.0,0.0,0.0,0.0,0.0,0.0,0.0,0.0,0.0,0.0,0.0,0.0,0.0,0.0,0.0,0.0,0.0,0.0,0.0,0.0,0.0,0.0,0.0,0.0,0.0,0.0,0.0,0.0,0.0,0.0,0.0,0.0,0.0,0.0,0.0,0.0,0.0,0.0,0.0,0.0,0.0,0.0,0.0,0.0,0.0,0.0,0.0,0.0,0.0,0.0,0.0,0.0,0.0,0.0,0.0,0.0,0.0,0.0,0.0,0.0,0.0,0.0,0.0,0.0,0.7862,0.6052,0.5605,0.6451,0.7311,0.8278,0.0,0.0,0.0,0.0,0.0,0.0,0.0,0.0,0.0,0.0,0.0,0.0,0.0,0.0,0.0,0.0,0.0,0.0,0.0,0.0,0.0,0.0,0.0,0.0,0.0,0.0,0.0,0.0,0.0,0.0,0.0,0.0,0.0,0.0,0.0,0.0,0.0,0.0,0.0,0.0,0.0,0.0,0.0,0.0,0.0,0.0,0.0,0.0,0.0,0.0,0.0,0.0,0.0,0.0,0.0,0.0,0.0,0.0,0.0,0.0,0.0,0.0,0.0,0.0,0.0,0.0,0.0,0.0,0.0,0.0,0.0,0.0,0.0,0.0,0.0,0.0,0.0,0.0,0.0,0.0,0.0,0.0,0.0,0.0,0.0,0.0,0.0,0.0,0.0,0.0,0.0,0.0,0.0,0.0,0.0,0.0,0.0,0.0,0.0,0.0,0.0,0.0,0.0,0.0,0.0,0.0,0.0,0.0,0.0,0.2411,0.0,-0.0036,0.1297,0.2716,0.4286,0.0,0.0,0.0,0.0,0.0,0.0,0.0,0.0,0.0,0.0,0.0,0.0,0.0,0.0,0.0,0.0,0.0,0.0,0.0,0.0,0.0,0.0,0.0,0.0,0.0,0.0,0.0,0.0,0.0,0.0,0.0,0.0,0.0,0.0,0.0,0.0,0.0,0.0,0.0,0.0,0.0,0.0,0.0,0.0,0.0,0.0,0.0,0.0,0.0,0.0,0.0,0.0,0.0,0.0,0.0,0.0,0.0,0.0,0.0,0.0,0.0,0.0,0.0,0.0,0.0,0.0,0.0,0.0,0.0,0.0,0.0,0.0,0.0,0.0,0.0,0.0,0.0,0.0,0.0,0.0,0.0,0.0,0.0,0.0,0.0,0.0,0.0,0.0,0.0,0.0,0.0,0.0,0.0,0.0,0.0,0.0,0.0,0.0,0.0,0.0,0.0,0.0,0.0,0.0,0.0,0.0,0.0,0.0,0.5262,-0.4957,-0.5277,-0.4581,-0.3094,-0.1515,0.0416,0.0,0.0,0.0,0.0,0.0,0.0,0.0,0.0,0.0,0.0,0.0,0.0,0.0,0.0,0.0,0.0,0.0,0.0,0.0,0.0,0.0,0.0,0.0,0.0,0.0,0.0,0.0,0.0,0.0,0.0,0.0,0.0,0.0,0.0,0.0,0.0,0.0,0.0,0.0,0.0,0.0,0.0,0.0,0.0,0.0,0.0,0.0,0.0,0.0,0.0,0.0,0.0,0.0,0.0,0.0,0.0,0.0,0.0,0.0,0.0,0.0,0.0,0.0,0.0,0.0,0.0,0.0,0.0,0.0,0.0,0.0,0.0,0.0,0.0,0.0,0.0,0.0,0.0,0.0,0.0,0.0,0.0,0.0,0.0,0.0,0.0,0.0,0.0,0.0,0.0,0.0,0.0,0.0,0.0,0.0,0.0,0.0,0.0,0.0,0.0,0.0,0.0,0.0,0.0,0.0,0.0,0.0,0.0,0.0,-0.7739,-1.0044,-1.0427,-0.8736,-0.65,-0.4054,0.0,0.0,0.0,0.0,0.0,0.0,0.0,0.0,0.0,0.0,0.0,0.0,0.0,0.0,0.0,0.0,0.0,0.0,0.0,0.0,0.0,0.0,0.0,0.0,0.0,0.0,0.0,0.0,0.0,0.0,0.0,0.0,0.0,0.0,0.0,0.0,0.0,0.0,0.0,0.0,0.0,0.0,0.0,0.0,0.0,0.0,0.0,0.0,0.0,0.0,0.0,0.0,0.0,0.0,0.0,0.0,0.0,0.0,0.0,0.0,0.0,0.0,0.0,0.0,0.0,0.0,0.0,0.0,0.0,0.0,0.0,0.0,0.0,0.0,0.0,0.0,0.0,0.0,0.0,0.0,0.0,0.0,0.0,0.0,0.0,0.0,0.0,0.0,0.0,0.0,0.0,0.0,0.0,0.0,0.0,0.0,0.0,0.0,0.0,0.0,0.0,0.0,0.0,0.0,0.0,0.0,0.0,0.0,0.0,-1.178,-1.3605,-1.4047,-1.27,-1.0154,-0.7563,-0.4939,0.0,0.0,0.0,0.0,0.0,0.0,0.0,0.0,0.0,0.0,0.0,0.0,0.0,0.0,0.0,0.0,0.0,0.0,0.0,0.0,0.0,0.0,0.0,0.0,0.0,0.0,0.0,0.0,0.0,0.0,0.0,0.0,0.0,0.0,0.0,0.0,0.0,0.0,0.0,0.0,0.0,0.0,0.0,0.0,0.0,0.0,0.0,0.0,0.0,0.0,0.0,0.0,0.0,0.0,0.0,0.0,0.0,0.0,0.0,0.0,0.0,0.0,0.0,0.0,0.0,0.0,0.0,0.0,0.0,0.0,0.0,0.0,0.0,0.0,0.0,0.0,0.0,0.0,0.0,0.0,0.0,0.0,0.0,0.0,0.0,0.0,0.0,0.0,0.0,0.0,0.0,0.0,0.0,0.0,0.0,0.0,0.0,0.0,0.0,0.0,0.0,0.0,0.0,0.0,0.0,0.0,0.0,0.0,-1.6455,-1.5958,-1.5455,-1.4919,-1.2562,-1.0213,0.0,0.0,0.0,0.0,0.0,0.0,0.0,0.0,0.0,0.0,0.0,0.0,0.0,0.0,0.0,0.0,0.0,0.0,0.0,0.0,0.0,0.0,0.0,0.0,0.0,0.0,0.0,0.0,0.0,0.0,0.0,0.0,0.0,0.0,0.0,0.0,0.0,0.0,0.0,0.0,0.0,0.0,0.0,0.0,0.0,0.0,0.0,0.0,0.0,0.0,0.0,0.0,0.0,0.0,0.0,0.0,0.0,0.0,0.0,0.0,0.0,0.0,0.0,0.0,0.0,0.0,0.0,0.0,0.0,0.0,0.0,0.0,0.0,0.0,0.0,0.0,0.0,0.0,0.0,0.0,0.0,0.0,0.0,0.0,0.0,0.0,0.0,0.0,0.0,0.0,0.0,0.0,0.0,0.0,0.0,0.0,0.0,0.0,0.0,0.0,0.0,0.0,0.0,0.0,0.0,0.0,0.0,0.0,0.0,-1.6908,-1.5366,-1.4571,-1.4602,-1.3522,-1.1588,0.0,0.0,0.0,0.0,0.0,0.0,0.0,0.0,0.0,0.0,0.0,0.0,0.0,0.0,0.0,0.0,0.0,0.0,0.0,0.0,0.0,0.0,0.0,0.0,0.0,0.0,0.0,0.0,0.0,0.0,0.0,0.0,0.0,0.0,0.0,0.0,0.0,0.0,0.0,0.0,0.0,0.0,0.0,0.0,0.0,0.0,0.0,0.0,0.0,0.0,0.0,0.0,0.0,0.0,0.0,0.0,0.0,0.0,0.0,0.0,0.0,0.0,0.0,0.0,0.0,0.0,0.0,0.0,0.0,0.0,0.0,0.0,0.0,0.0,0.0,0.0,0.0,0.0,0.0,0.0,0.0,0.0,0.0,0.0,0.0,0.0,0.0,0.0,0.0,0.0,0.0,0.0,0.0,0.0,0.0,0.0,0.0,0.0,0.0,0.0,0.0,0.0,0.0,0.0,0.0,0.0,0.0,0.0,-1.7537,-1.6586,-1.5312,-1.4428,-1.3954,-1.3816,-1.2557,0.0,0.0,0.0,0.0,0.0,0.0,0.0,0.0,0.0,0.0,0.0,0.0,0.0,0.0,0.0,0.0,0.0,0.0,0.0,0.0,0.0,0.0,0.0,0.0,0.0,0.0,0.0,0.0,0.0,0.0,0.0,0.0,0.0,0.0,0.0,0.0,0.0,0.0,0.0,0.0,0.0,0.0,0.0,0.0,0.0,0.0,0.0,0.0,0.0,0.0,0.0,0.0,0.0,0.0,0.0,0.0,0.0,0.0,0.0,0.0,0.0,0.0,0.0,0.0,0.0,0.0,0.0,0.0,0.0,0.0,0.0,0.0,0.0,0.0,0.0,0.0,0.0,0.0,0.0,0.0,0.0,0.0,0.0,0.0,0.0,0.0,0.0,0.0,0.0,0.0,0.0,0.0,0.0,0.0,0.0,0.0,0.0,0.0,0.0,0.0,0.0,0.0,0.0,0.0,0.0,0.0,0.0,0.0,-1.7488,-1.6098,-1.5668,-1.48,-1.3454,-1.3882,-1.3312,0.0,0.0,0.0,0.0,0.0,0.0,0.0,0.0,0.0,0.0,0.0,0.0,0.0,0.0,0.0,0.0,0.0,0.0,0.0,0.0,0.0,0.0,0.0,0.0,0.0,0.0,0.0,0.0,0.0,0.0,0.0,0.0,0.0,0.0,0.0,0.0,0.0,0.0,0.0,0.0,0.0,0.0,0.0,0.0,0.0,0.0,0.0,0.0,0.0,0.0,0.0,0.0,0.0,0.0,0.0,0.0,0.0,0.0,0.0,0.0,0.0,0.0,0.0,0.0,0.0,0.0,0.0,0.0,0.0,0.0,0.0,0.0,0.0,0.0,0.0,0.0,0.0,0.0,0.0,0.0,0.0,0.0,0.0,0.0,0.0,0.0,0.0,0.0,0.0,0.0,0.0,0.0,0.0,0.0,0.0,0.0,0.0,0.0,0.0,0.0,0.0,0.0,0.0,0.0,0.0,0.0,0.0,0.0,-1.8012,-1.7772,-1.6539,-1.5447,-1.4554,-1.4991,-1.4075,0.0,0.0,0.0,0.0,0.0,0.0,0.0,0.0,0.0,0.0,0.0,0.0,0.0,0.0,0.0,0.0,0.0,0.0,0.0,0.0,0.0,0.0,0.0,0.0,0.0,0.0,0.0,0.0,0.0,0.0,0.0,0.0,0.0,0.0,0.0,0.0,0.0,0.0,0.0,0.0,0.0,0.0,0.0,0.0,0.0,0.0,0.0,0.0,-1.5223,0.0,0.0,0.0,0.0,0.0,0.0,0.0,0.0,0.0,0.0,0.0,0.0,0.0,0.0,0.0,0.0,0.0,0.0,0.0,0.0,0.0,0.0,0.0,0.0,0.0,0.0,0.0,0.0,0.0,0.0,0.0,0.0,0.0,0.0,0.0,0.0,0.0,0.0,0.0,0.0,0.0,0.0,0.0,0.0,0.0,0.0,0.0,0.0,0.0,0.0,0.0,0.0,0.0,0.0,0.0,0.0,0.0,0.0,0.0,-1.785,-1.7494,-1.7107,-1.641,-1.5405,-1.5909,-1.4944,0.0,0.0,0.0,0.0,0.0,0.0,0.0,0.0,0.0,0.0,0.0,0.0,0.0,0.0,0.0,0.0,0.0,0.0,0.0,0.0,0.0,0.0,0.0,0.0,0.0,0.0,0.0,0.0,0.0,0.0,0.0,0.0,0.0,0.0,0.0,0.0,0.0,0.0,0.0,0.0,0.0,0.0,0.0,0.0,0.0,0.0,0.0,0.0,0.0,0.0,0.0,0.0,0.0,0.0,0.0,0.0,0.0,0.0,0.0,0.0,0.0,0.0,0.0,0.0,0.0,0.0,0.0,0.0,0.0,0.0,0.0,0.0,0.0,0.0,0.0,0.0,0.0,0.0,0.0,0.0,0.0,0.0,0.0,0.0,0.0,0.0,0.0,0.0,0.0,0.0,0.0,0.0,0.0,0.0,0.0,0.0,0.0,0.0,0.0,0.0,0.0,0.0,0.0,0.0,0.0,0.0,0.0,-1.8362,-1.7713,-1.7065,-1.751,-1.7176,-1.6128,-1.664,-1.587,-1.3575,0.0,0.0,0.0,0.0,0.0,0.0,0.0,0.0,0.0,0.0,0.0,0.0,0.0,0.0,0.0,0.0,0.0,0.0,0.0,0.0,0.0,0.0,0.0,0.0,0.0,0.0,0.0,0.0,0.0,0.0,0.0,0.0,0.0,0.0,0.0,0.0,0.0,0.0,-1.1186,-1.5081,0.0,0.0,0.0,0.0,0.0,0.0,0.0,0.0,-2.233,0.0,0.0,0.0,0.0,0.0,0.0,0.0,0.0,0.0,0.0,0.0,0.0,0.0,0.0,0.0,0.0,0.0,0.0,0.0,0.0,0.0,0.0,0.0,0.0,0.0,0.0,0.0,0.0,0.0,0.0,0.0,0.0,0.0,0.0,0.0,0.0,0.0,0.0,0.0,0.0,0.0,0.0,0.0,0.0,0.0,0.0,0.0,0.0,0.0,0.0,0.0,0.0,0.0,0.0,0.0,0.0,-1.9967,-1.9106,-1.8701,-1.8849,-1.7691,-1.7136,-1.7229,-1.723,-1.6678,-1.5542,0.0,0.0,0.0,0.0,0.0,0.0,0.0,0.0,0.0,0.0,0.0,0.0,0.0,0.0,0.0,0.0,0.0,0.0,0.0,0.0,0.0,0.0,0.0,0.0,0.0,0.0,0.0,0.0,0.0,0.0,0.0,0.0,0.0,0.0,0.0,0.0,0.0,0.0,0.0,-1.8476,-2.0743,0.0,0.0,0.0,0.0,0.0,0.0,0.0,0.0,-2.5304,0.0,0.0,0.0,0.0,0.0,0.0,0.0,0.0,0.0,0.0,0.0,0.0,0.0,0.0,0.0,0.0,0.0,0.0,0.0,0.0,0.0,0.0,0.0,0.0,0.0,0.0,0.0,0.0,0.0,0.0,0.0,0.0,0.0,0.0,0.0,0.0,0.0,0.0,0.0,0.0,0.0,0.0,0.0,0.0,0.0,0.0,0.0,0.0,0.0,0.0,0.0,0.0,0.0,0.0,0.0,-2.0301,-1.9664,-1.9144,-1.8708,-1.7673,-1.7263,-1.7435,-1.7613,-1.7207,0.0,0.0,0.0,0.0,0.0,0.0,0.0,0.0,0.0,0.0,0.0,0.0,0.0,0.0,0.0,0.0,0.0,0.0,0.0,0.0,0.0,0.0,0.0,0.0,0.0,0.0,0.0,0.0,0.0,0.0,0.0,0.0,0.0,0.0,0.0,0.0,0.0,0.0,0.0,0.0,-2.0353,-2.2431,-2.2844,0.0,0.0,0.0,0.0,0.0,0.0,-2.6944,-2.721,0.0,0.0,0.0,0.0,0.0,0.0,0.0,0.0,0.0,0.0,0.0,0.0,0.0,0.0,0.0,0.0,0.0,0.0,0.0,0.0,0.0,0.0,0.0,0.0,0.0,0.0,0.0,0.0,0.0,0.0,0.0,0.0,0.0,0.0,0.0,0.0,0.0,0.0,0.0,0.0,0.0,0.0,0.0,0.0,0.0,0.0,0.0,0.0,0.0,0.0,0.0,0.0,0.0,0.0,0.0,-2.0596,-2.011,-1.9393,-1.8473,-1.7993,-1.7747,-1.7651,-1.8084,-1.7788,0.0,0.0,0.0,0.0,0.0,0.0,0.0,0.0,0.0,0.0,0.0,0.0,0.0,0.0,0.0,0.0,0.0,0.0,0.0,0.0,0.0,0.0,0.0,0.0,0.0,0.0,0.0,0.0,0.0,0.0,0.0,0.0,0.0,0.0,0.0,0.0,0.0,0.0,0.0,0.0,0.0,-2.3931,-2.479,-2.5685,0.0,0.0,0.0,0.0,-2.9159,-2.9224,0.0,0.0,0.0,0.0,0.0,0.0,0.0,0.0,0.0,0.0,0.0,0.0,0.0,0.0,0.0,0.0,0.0,0.0,0.0,0.0,0.0,0.0,0.0,0.0,0.0,0.0,0.0,0.0,0.0,0.0,0.0,0.0,0.0,0.0,0.0,0.0,0.0,0.0,0.0,0.0,0.0,0.0,0.0,0.0,0.0,0.0,0.0,0.0,0.0,0.0,0.0,0.0,0.0,0.0,0.0,0.0,-2.0973,-2.0406,-1.9797,-1.928,-1.9086,-1.8843,-1.8558,-1.9085,-1.8871,0.0,0.0,0.0,0.0,0.0,0.0,0.0,0.0,0.0,0.0,0.0,0.0,0.0,0.0,0.0,0.0,0.0,0.0,0.0,0.0,0.0,0.0,0.0,0.0,0.0,0.0,0.0,0.0,0.0,0.0,0.0,0.0,0.0,0.0,0.0,0.0,0.0,0.0,0.0,0.0,0.0,-2.5839,-2.6679,-2.7172,-2.7788,0.0,0.0,-3.0093,-3.0779,-3.1858,0.0,0.0,0.0,0.0,0.0,0.0,0.0,0.0,0.0,0.0,0.0,0.0,0.0,0.0,0.0,0.0,0.0,0.0,0.0,0.0,0.0,0.0,0.0,0.0,0.0,0.0,0.0,0.0,0.0,0.0,0.0,0.0,0.0,0.0,0.0,0.0,0.0,0.0,0.0,0.0,0.0,0.0,0.0,0.0,0.0,0.0,0.0,0.0,0.0,0.0,0.0,0.0,0.0,0.0,0.0,-2.024,-2.1214,-1.9357,-1.8665,-1.9309,-1.9142,-1.8884,-1.8555,-1.9246,-1.9045,0.0,0.0,0.0,0.0,0.0,0.0,0.0,0.0,0.0,0.0,0.0,0.0,0.0,0.0,0.0,0.0,0.0,0.0,0.0,0.0,0.0,0.0,0.0,0.0,0.0,0.0,0.0,0.0,0.0,0.0,0.0,0.0,0.0,0.0,0.0,0.0,0.0,0.0,0.0,0.0,0.0,0.0,-2.8397,-2.9492,0.0,0.0,0.0,-3.2693,-3.2751,0.0,0.0,0.0,0.0,0.0,0.0,0.0,0.0,0.0,0.0,0.0,0.0,0.0,0.0,0.0,0.0,0.0,0.0,0.0,0.0,0.0,0.0,0.0,0.0,0.0,0.0,0.0,0.0,0.0,0.0,0.0,0.0,0.0,0.0,0.0,0.0,0.0,0.0,0.0,0.0,0.0,0.0,0.0,0.0,0.0,0.0,0.0,0.0,0.0,0.0,0.0,0.0,0.0,0.0,0.0,0.0,0.0,-2.1348,-1.8897,-1.8135,-1.928,-1.9165,-1.8908,-1.8556,-1.9196,0.0,0.0,0.0,0.0,0.0,0.0,0.0,0.0,0.0,0.0,0.0,0.0,0.0,0.0,0.0,0.0,0.0,0.0,0.0,0.0,0.0,0.0,0.0,0.0,0.0,0.0,0.0,-0.9104,0.0,0.0,0.0,0.0,0.0,0.0,0.0,0.0,0.0,0.0,0.0,0.0,0.0,0.0,-2.9481,-3.0309,-3.1382,-3.225,0.0,0.0,-3.4668,-3.4335,-3.4046,-3.382,0.0,0.0,0.0,0.0,0.0,0.0,0.0,0.0,0.0,0.0,0.0,0.0,0.0,0.0,0.0,0.0,0.0,0.0,0.0,0.0,0.0,0.0,0.0,0.0,0.0,0.0,0.0,0.0,0.0,0.0,0.0,0.0,0.0,0.0,0.0,0.0,0.0,0.0,0.0,0.0,0.0,0.0,0.0,0.0,0.0,0.0,0.0,0.0,0.0,0.0,0.0,0.0,0.0,0.0,-2.0015,-2.1214,-1.9796,-1.9179,-1.9449,-1.952,-1.9346,-1.8879,-1.9197,-1.8848,0.0,0.0,0.0,0.0,0.0,0.0,0.0,0.0,0.0,0.0,0.0,0.0,0.0,0.0,0.0,0.0,0.0,0.0,0.0,0.0,0.0,0.0,0.0,0.0,0.0,0.0,0.0,0.0,0.0,0.0,0.0,0.0,0.0,0.0,0.0,0.0,0.0,0.0,0.0,0.0,0.0,-3.0733,-3.2369,-3.2389,-3.2568,0.0,-3.4233,-3.4885,-3.5259,-3.5405,-3.5804,-3.6565,0.0,0.0,0.0,0.0,0.0,0.0,0.0,0.0,0.0,0.0,0.0,0.0,0.0,0.0,0.0,0.0,0.0,0.0,0.0,0.0,0.0,0.0,0.0,0.0,0.0,0.0,0.0,0.0,0.0,0.0,0.0,0.0,0.0,0.0,0.0,0.0,0.0,0.0,0.0,0.0,0.0,0.0,0.0,0.0,0.0,0.0,0.0,0.0,0.0,0.0,0.0,0.0,0.0,-1.9653,-2.0779,-1.968,-1.9114,-1.9266,-1.952,-1.9408,-1.8829,-1.9228,-1.8843,0.0,0.0,0.0,0.0,0.0,0.0,0.0,0.0,0.0,0.0,0.0,0.0,0.0,0.0,0.0,0.0,0.0,0.0,0.0,0.0,0.0,0.0,0.0,0.0,0.0,0.0,0.0,0.0,-1.1703,-1.3058,-1.6445,0.0,0.0,0.0,0.0,0.0,0.0,0.0,0.0,0.0,0.0,-3.2407,-3.2726,-3.343,0.0,0.0,-3.5666,-3.6293,-3.662,-3.6756,-3.6973,-3.7455,-3.7232,0.0,0.0,0.0,0.0,0.0,0.0,0.0,0.0,0.0,0.0,0.0,0.0,0.0,0.0,0.0,0.0,0.0,0.0,0.0,0.0,0.0,0.0,0.0,0.0,0.0,0.0,0.0,0.0,0.0,0.0,0.0,0.0,0.0,0.0,0.0,0.0,0.0,0.0,0.0,0.0,0.0,0.0,0.0,0.0,0.0,0.0,0.0,0.0,0.0,0.0,0.0,0.0,-1.9216,-2.0285,-1.9449,-1.9057,-1.9154,-1.9536,-1.9511,-1.9066,-1.9179,-1.874,0.0,0.0,0.0,0.0,0.0,0.0,0.0,0.0,0.0,0.0,0.0,0.0,0.0,0.0,0.0,0.0,0.0,0.0,0.0,0.0,0.0,0.0,0.0,0.0,0.0,0.0,0.0,0.0,-1.3958,-1.5808,-1.9151,0.0,0.0,0.0,0.0,0.0,0.0,0.0,0.0,0.0,0.0,-3.3304,-3.3567,-3.454,-3.553,-3.613,-3.6874,-3.7429,-3.7528,-3.7514,-3.764,-3.8071,0.0,0.0,0.0,0.0,0.0,0.0,0.0,0.0,0.0,0.0,0.0,0.0,0.0,0.0,0.0,0.0,0.0,0.0,0.0,0.0,0.0,0.0,0.0,0.0,0.0,0.0,0.0,-1.6847,0.0,0.0,-1.5297,0.0,0.0,0.0,0.0,0.0,0.0,0.0,0.0,0.0,0.0,0.0,0.0,0.0,0.0,0.0,0.0,0.0,0.0,0.0,0.0,0.0,0.0,-1.8738,-1.9793,-1.9295,-1.9072,-1.9289,-1.9633,-1.9707,-1.957,-1.9102,-1.8542,-1.7865,0.0,0.0,0.0,0.0,0.0,0.0,0.0,0.0,0.0,0.0,0.0,0.0,0.0,0.0,0.0,0.0,0.0,0.0,0.0,0.0,0.0,0.0,0.0,0.0,0.0,0.0,-1.8262,-1.9584,-2.0517,0.0,0.0,0.0,0.0,0.0,0.0,0.0,0.0,0.0,-3.2868,-3.2701,-3.3212,-3.5211,-3.576,-3.632,-3.728,-3.7838,-3.7977,-3.7568,-3.7483,-3.7816,0.0,0.0,0.0,0.0,0.0,0.0,0.0,0.0,0.0,0.0,0.0,0.0,0.0,0.0,0.0,0.0,0.0,0.0,0.0,0.0,0.0,0.0,0.0,0.0,0.0,0.0,0.0,-1.7979,-1.7493,0.0,0.0,0.0,0.0,0.0,0.0,0.0,0.0,0.0,0.0,0.0,-1.9126,-1.8537,0.0,0.0,0.0,0.0,0.0,0.0,0.0,0.0,0.0,0.0,0.0,0.0,-1.9509,-2.0133,-1.9577,-1.9195,-1.9134,-1.9441,-1.9636,-1.9479,-1.9316,-1.8724,-1.7583,0.0,0.0,0.0,0.0,0.0,0.0,0.0,0.0,0.0,0.0,0.0,0.0,0.0,0.0,0.0,0.0,0.0,0.0,0.0,0.0,0.0,0.0,0.0,0.0,0.0,-1.7644,0.0,0.0,0.0,0.0,0.0,0.0,0.0,0.0,0.0,0.0,-3.134,-3.2561,-3.2835,-3.4198,-3.5227,-3.5667,-3.6118,-3.6678,0.0,0.0,0.0,0.0,0.0,0.0,0.0,0.0,0.0,0.0,0.0,0.0,0.0,0.0,-3.7253,-3.621,-3.5898,-3.5805,-3.5818,0.0,0.0,0.0,0.0,0.0,0.0,0.0,0.0,0.0,0.0,0.0,0.0,0.0,0.0,-1.8934,-1.8271,-1.7986,0.0,0.0,0.0,0.0,0.0,0.0,0.0,0.0,-2.0391,-2.0339,-2.0042,-1.935,-1.8898,-1.8764,-1.8299,-1.84,0.0,0.0,0.0,0.0,0.0,0.0,0.0,0.0,-1.9253,-1.9714,-1.9182,-1.8722,-1.862,-1.9222,-1.9444,-1.9303,-1.9183,-1.8524,-1.7393,-1.6522,-1.5613,0.0,0.0,0.0,0.0,0.0,0.0,0.0,0.0,0.0,0.0,0.0,0.0,0.0,0.0,0.0,0.0,0.0,0.0,0.0,0.0,0.0,0.0,0.0,-1.9839,0.0,0.0,0.0,0.0,0.0,0.0,0.0,0.0,0.0,-3.0955,-3.2191,-3.3171,-3.3371,-3.4754,-3.5924,-3.6309,0.0,0.0,0.0,0.0,0.0,0.0,0.0,-3.9018,-3.8807,-3.883,-3.8618,-3.7973,-3.7985,-3.8027,-3.7705,0.0,0.0,-3.7157,-3.6935,-3.6851,-3.6851,-3.703,-3.7182,-3.7182,-3.7468,-3.7879,0.0,0.0,0.0,0.0,-2.1717,0.0,0.0,0.0,-2.0813,-2.0245,0.0,-1.9021,0.0,0.0,0.0,0.0,-1.8753,-1.9549,0.0,0.0,-2.111,-2.123,-2.113,-2.0764,-2.037,-2.0093,-1.9877,-1.9877,-2.0032,-1.8765,0.0,0.0,0.0,0.0,0.0,0.0,-1.8059,-1.8542,-1.8216,-1.7991,-1.7911,-1.8829,-1.9283,-1.9104,-1.8783,-1.8202,-1.7238,-1.6589,-1.5814,-1.4799,-1.393,0.0,0.0,0.0,0.0,0.0,0.0,0.0,0.0,0.0,0.0,0.0,0.0,0.0,0.0,0.0,0.0,0.0,0.0,0.0,0.0,-2.0773,0.0,0.0,0.0,0.0,0.0,0.0,0.0,0.0,0.0,-3.1922,-3.2549,-3.2678,-3.3142,-3.442,0.0,0.0,0.0,0.0,-3.8385,-3.9493,-4.0227,-4.0495,-4.0226,-3.9915,-3.9807,-3.9807,0.0,0.0,-3.7792,-3.7593,-3.753,-3.7292,-3.7241,-3.728,-3.7493,-3.7518,-3.7481,-3.7494,-3.7306,-3.7243,-3.7255,-3.7429,-3.7703,-2.6795,0.0,0.0,0.0,0.0,-2.2567,-2.2435,-2.291,-2.2273,-2.1498,-2.0597,-2.0284,0.0,0.0,0.0,0.0,0.0,0.0,-2.093,-2.1285,-2.1221,-2.1075,-2.0828,-2.0483,-2.0256,-2.0128,-2.0049,-2.0042,-2.0205,-2.0137,-1.9939,-1.9596,0.0,0.0,0.0,0.0,-1.9142,-1.9142,-1.8914,-1.8701,-1.8579,-1.9189,-1.9321,-1.8947,-1.8579,-1.8092,-1.7397,-1.6428,-1.5643,-1.5293,-1.4261,0.0,0.0,0.0,0.0,0.0,0.0,0.0,0.0,0.0,0.0,0.0,0.0,0.0,0.0,0.0,0.0,0.0,0.0,0.0,-2.1131,-2.1968,-2.3497,0.0,0.0,0.0,0.0,0.0,0.0,0.0,0.0,0.0,-3.3315,-3.423,-3.4952,0.0,0.0,-3.7697,-3.8535,-3.8376,-3.8351,-3.8724,-3.8574,0.0,-3.8554,-3.8481,-3.8396,-3.831,-3.8029,-3.8021,-3.8415,-3.827,-3.8063,-3.7517,-3.7646,-3.7646,-3.7073,-3.7109,-3.7179,-3.6816,-3.7108,-3.7478,-3.7502,-3.7356,-3.746,-2.7693,-2.6392,-2.5463,-2.5129,-2.5059,-2.3771,-2.3399,-2.3768,-2.2977,-2.2159,-2.145,-2.123,-2.0477,-1.9318,-1.9101,0.0,0.0,0.0,-2.149,-2.1925,-2.161,-2.1523,-2.1576,-2.1151,-2.1001,-2.1113,-2.0957,-2.0915,-2.1014,-2.1267,-2.1313,-2.1085,0.0,-2.0646,-2.036,-1.9757,-1.9461,-1.9391,-1.9079,-1.8929,-1.8966,-1.9364,-1.9493,-1.9332,-1.8766,-1.8237,-1.7662,-1.663,-1.5963,-1.5727,-1.469,-1.4067,0.0,0.0,0.0,0.0,0.0,0.0,0.0,0.0,0.0,0.0,0.0,-1.2888,-1.3884,0.0,0.0,0.0,-1.7621,-1.9941,-2.2368,-2.3396,0.0,0.0,0.0,0.0,0.0,0.0,0.0,-3.3126,-3.238,-3.2252,-3.3749,-3.4497,-3.5113,-3.5415,-3.675,-3.7893,-3.8222,0.0,-3.8016,-3.8129,-3.8102,-3.8024,-3.8227,-3.8239,-3.8163,-3.7972,-3.7922,-3.802,-3.8336,-3.8198,-3.7773,-3.7441,-3.7346,-3.712,-3.6363,-3.6485,-3.6817,-3.6505,-3.6742,-3.7073,-3.7073,-3.6932,-3.6916,-2.8309,-2.7965,-2.7519,-2.6781,-2.586,-2.5228,-2.447,-2.3686,-2.3176,-2.2704,-2.207,-2.2132,-2.1757,-2.1013,-2.0839,0.0,-2.1599,-2.1739,-2.2099,-2.2628,-2.2146,-2.237,-2.308,-2.2357,-2.2201,-2.2593,-2.2376,-2.2304,-2.2304,-2.2314,-2.2304,-2.2211,-2.1428,-2.0832,-2.0517,-1.9599,-1.9288,-1.9552,-1.9132,-1.8888,-1.9092,-1.938,-1.974,-1.9987,-1.9162,-1.8473,-1.804,-1.7072,-1.6389,-1.5974,-1.5046,-1.4597,-1.4533,0.0,0.0,0.0,0.0,0.0,0.0,0.0,0.0,0.0,0.0,0.0,0.0,0.0,0.0,0.0,-2.0005,0.0,-2.2217,-2.4736,0.0,0.0,0.0,-2.9042,-2.8765,-2.878,-2.9446,-3.1224,0.0,0.0,-3.3754,-3.3982,-3.4099,-3.4238,-3.55,-3.6435,-3.6965,-3.7351,-3.7667,-3.7758,-3.8252,-3.857,-3.8472,-3.8497,-3.838,-3.8194,-3.8303,-3.808,-3.7868,-3.7453,-3.7024,-3.6904,-3.6592,-3.6048,-3.5477,-3.5783,-3.6266,-3.6437,-3.646,-3.6363,-3.634,-3.6254,-3.6266,-3.0399,-2.9731,-2.9101,-2.8041,-2.6868,-2.6202,-2.5859,-2.5604,-2.5002,-2.4427,-2.3828,-2.3468,-2.2691,-2.1635,-2.153,-2.153,-2.1707,-2.2628,-2.3004,-2.2949,-2.3029,-2.3154,-2.3168,-2.2961,-2.2935,-2.3066,-2.3123,-2.3186,-2.3186,-2.3014,-2.2832,-2.2832,-2.214,-2.1731,-2.151,-2.0803,-2.0393,-2.0329,-1.9989,-1.974,-1.9578,-1.949,-1.9221,-1.8793,-1.8118,-1.7604,-1.7262,-1.6382,-1.5949,-1.6084,-1.4967,-1.4326,-1.4358,-1.3994,0.0,0.0,0.0,0.0,0.0,0.0,0.0,0.0,0.0,-1.5332,-1.7421,0.0,-1.8865,0.0,-2.0605,-2.168,-2.2724,-2.3827,0.0,0.0,-2.7953,-2.8962,-2.9084,-2.9186,-2.9776,-3.1476,-3.1197,-3.121,-3.2452,-3.3105,-3.3256,-3.2822,-3.4735,-3.6459,-3.6967,-3.7133,-3.724,-3.7252,-3.7252,-3.7322,-3.7441,-3.7548,-3.7453,-3.7131,-3.712,-3.7024,-3.6688,-3.6592,-3.6363,-3.5927,-3.5708,-3.5378,-3.4847,-3.4847,-3.4958,-3.5069,-3.5719,-3.6266,-3.6266,-3.5927,-3.5708,-3.0713,-2.9724,-2.904,-2.8355,-2.7775,-2.7233,-2.6663,-2.6123,-2.6096,-2.5577,-2.4657,-2.4205,-2.3601,-2.2983,-2.2875,-2.2864,-2.2994,-2.3511,-2.367,-2.3524,-2.3551,-2.3531,-2.3637,-2.3577,-2.3635,-2.3754,-2.373,-2.369,-2.3957,-2.3428,-2.3248,-2.3332,-2.2819,-2.2513,-2.2318,-2.1235,-2.0621,-2.0638,-2.0554,-2.0447,-2.0326,-1.9894,-1.9519,-1.9042,-1.8185,-1.7644,-1.7602,-1.6636,-1.6185,-1.6135,-1.5219,-1.4583,-1.4458,-1.4352,-1.4239,0.0,0.0,0.0,0.0,0.0,0.0,0.0,0.0,0.0,0.0,0.0,-1.9821,-2.1426,-2.1623,-2.227,-2.3774,-2.4659,-2.5378,-2.6148,-2.7045,-2.7638,-2.7537,-2.751,-2.8191,-2.9697,-2.9399,-2.9582,-3.0809,-3.1355,-3.1765,-3.1862,-3.3388,-3.4792,-3.5409,-3.5783,-3.6013,-3.6157,-3.6168,-3.6157,-3.6363,-3.6559,-3.6518,-3.6203,-3.6145,-3.6036,-3.5938,-3.5708,-3.5367,-3.5035,-3.4825,-3.4491,-3.4188,-3.4076,-3.4076,-3.4177,-3.4624,-3.5168,-3.54,-3.5279,-3.5058,-3.0217,-2.9071,-2.8339,-2.8143,-2.8283,-2.802,-2.7195,-2.6201,-2.6679,-2.6242,-2.5183,-2.4642,-2.4393,-2.4494,-2.4328,-2.4306,-2.4407,-2.4212,-2.4153,-2.4153,-2.3816,-2.3906,-2.42,-2.396,-2.4083,-2.4282,-2.3841,-2.3867,-2.4236,-2.357,-2.3319,-2.3475,-2.3289,-2.3045,-2.2811,-2.1247,-2.0632,-2.0793,-2.0855,-2.0891,-2.0812,-2.033,-1.9829,-1.9626,-1.8603,-1.8118,-1.8178,-1.7162,-1.6535,-1.6417,-1.5609,-1.4998,-1.4799,-1.4734,-1.4862,0.0,-1.5269,0.0,0.0,0.0,0.0,0.0,0.0,0.0,0.0,-1.8865,-2.0467,-2.2765,-2.2592,-2.2971,-2.4642,-2.571,-2.6021,-2.5386,-2.5729,-2.5727,-2.5411,-2.5336,-2.5956,-2.7099,-2.737,-2.7857,-2.912,-2.9558,-3.0173,-3.1013,-3.1643,-3.2312,-3.311,-3.3985,-3.4734,-3.4845,-3.5013,-3.5312,-3.539,-3.567,-3.5725,-3.5357,-3.5268,-3.5268,-3.5157,-3.4714,-3.4368,-3.4379,-3.4054,-3.3625,-3.3625,-3.3625,-3.3625,-3.3625,-3.3738,-3.3851,-3.43,-3.4412,-3.4412,-2.9809,-2.8925,-2.787,-2.7383,-2.7464,-2.7633,-2.7389,-2.7002,-2.6894,-2.6543,-2.592,-2.5289,-2.4941,-2.4757,-2.4298,-2.4057,-2.3919,-2.4303,-2.4402,-2.4413,-2.4608,-2.4471,-2.4214,-2.3968,-2.3674,-2.3396,-2.3144,-2.293,-2.2821,-2.2796,-2.2803,-2.2795,-2.2469,-2.2443,-2.2537,0.0,0.0,0.0,-2.1346,-2.0945,-2.0346,-1.9797,-1.9205,-1.8595,-1.8149,0.0,-1.7598,-1.6753,-1.6534,-1.6833,-1.5782,0.0,0.0,0.0,0.0,0.0,0.0,0.0,0.0,0.0,0.0,0.0,-1.7822,-1.8232,-1.8607,-2.0338,-2.1806,-2.2401,-2.2998,-2.3202,-2.3115,-2.3505,-2.3826,-2.385,-2.4396,-2.4739,-2.4723,-2.5342,-2.5935,-2.6315,-2.7048,-2.7674,-2.8104,-2.8737,-2.9359,-2.968,-2.9898,-3.0214,-3.1005,-3.3111,-3.4386,-3.4146,-3.4167,-3.4419,-3.4777,-3.4818,-3.4687,-3.4412,-3.43,-3.4188,-3.3952,-3.384,-3.3727,-3.3727,-3.3625,-3.3625,-3.3625,-3.3625,-3.3512,-3.3625,-3.3625,-3.3625,-3.3738,-3.3963,-3.4086,-2.9285,-2.8046,-2.7231,-2.6894,0.0,-2.688,-2.6668,-2.6373,-2.6891,-2.6797,-2.6135,-2.5644,-2.5276,-2.5171,-2.4687,-2.4426,-2.4344,-2.4347,-2.4377,-2.4377,-2.4341,-2.4262,-2.4003,-2.3754,-2.3503,-2.3319,-2.2969,-2.2821,-2.2754,-2.2409,-2.2344,-2.2452,-2.2066,-2.195,-2.2042,-2.1568,-2.1287,-2.1201,-2.0997,-2.0589,-2.0037,-1.9506,-1.9115,-1.8571,-1.8232,0.0,0.0,0.0,0.0,0.0,0.0,0.0,0.0,0.0,0.0,-1.4888,-1.5013,-1.5258,-1.5587,-1.5737,-1.584,-1.6162,-1.6628,-1.7472,-1.8906,-1.9984,-2.0744,-2.1285,-2.195,-2.2303,-2.2125,-2.2535,-2.3004,-2.3247,-2.378,-2.4124,-2.4369,-2.4616,-2.5095,-2.5594,-2.6067,-2.6441,-2.7047,-2.7659,-2.8229,-2.8501,-2.913,-2.9675,-3.0323,-3.1868,-3.2922,-3.3267,-3.3529,-3.358,-3.3466,-3.3654,-3.36,-3.3121,-3.2934,-3.2934,-3.2706,-3.2706,-3.2706,-3.2706,-3.2706,-3.2706,-3.2706,-3.2716,-3.2716,-3.2706,-3.282,-3.2934,-3.2944,-3.3399,-3.3861,-2.8633,-2.7021,-2.6554,-2.6307,-2.6279,-2.6102,-2.5779,-2.5475,-2.648,0.0,0.0,-2.5633,-2.5475,-2.5391,-2.4956,-2.469,-2.4605,-2.4272,-2.4034,-2.4034,-2.3764,-2.3667,-2.358,-2.3406,-2.3242,-2.3154,-2.2715,-2.2631,-2.2681,-2.2117,-2.1928,-2.2039,-2.1637,-2.1462,-2.1508,-2.1489,-2.1281,-2.0728,-2.0504,-2.021,-1.9826,-1.9286,-1.8891,-1.8757,-1.8081,-1.7549,-1.7153,-1.6631,-1.6087,-1.5344,-1.5154,-1.483,-1.4413,-1.4509,-1.475,-1.5012,-1.5064,-1.5093,-1.5248,-1.5148,-1.508,-1.489,-1.5182,-1.6229,-1.8709,-1.873,-1.905,-2.0066,-2.0679,-2.1238,-2.1609,-2.2199,-2.2731,-2.3106,-2.3494,-2.3743,-2.386,-2.3822,-2.407,-2.4726,-2.5103,-2.5349,-2.5961,-2.6579,-2.7167,-2.7669,-2.854,-2.9441,-3.0045,-3.0763,-3.163,-3.2336,-3.2585,-3.2636,-3.2261,-3.2302,-3.2413,-3.1963,-3.1797,-3.1672,-3.1797,-3.1787,-3.1787,-3.1903,-3.1787,-3.1787,-3.1787,-3.1903,-3.1787,-3.1787,-3.2018,-3.2248,-3.2248,-3.283,-3.3399,-2.7211,-2.6257,-2.5514,-2.5357,-2.5611,-2.5443,-2.5285,-2.5285,-2.5444,-2.5433,-2.5285,-2.5126,-2.4882,-2.4625,-2.4378,-2.411,-2.3677,-2.3677,-2.3493,-2.3232,-2.3222,-2.2969,-2.2608,-2.252,-2.2264,-2.175,-2.166,-2.141,-2.113,-2.1257,-2.1104,-2.0848,-2.105,-2.1014,-2.0656,-2.0867,-2.0925,-2.0838,-2.068,-2.0261,-1.9783,-1.879,-1.8164,-1.8115,-1.7114,-1.6573,-1.673,-1.5743,-1.5518,-1.605,-1.5163,-1.4714,-1.4826,-1.4748,-1.465,-1.4521,-1.4388,-1.4505,-1.4815,-1.4823,-1.5051,-1.5478,-1.5526,-1.5985,-1.7142,-1.7427,-1.8177,-1.9515,-2.0328,-2.1049,-2.1923,-2.2334,-2.2606,-2.2981,-2.3113,-2.323,-2.323,-2.3201,-2.3435,-2.41,-2.4734,-2.5234,-2.548,-2.5961,-2.6587,-2.7237,-2.7782,-2.8246,-2.9333,-3.02,-3.0911,-3.1466,-3.1123,-3.1103,-3.1348,-3.1328,-3.1307,-3.1808,-3.1441,-3.1325,-3.1556,-3.1325,-3.1325,-3.1672,-3.145,-3.1441,-3.1672,-3.1787,-3.1787,-3.1787,-3.1787,-3.1913,-3.1903,-3.2248,-3.2716,-2.6037,-2.5611,-2.521,-2.5062,-2.5115,-2.4786,-2.4605,-2.4444,-2.4433,-2.469,-2.502,-2.47,-2.4454,-2.4292,-2.3851,-2.3503,-2.3232,-2.3057,-2.2891,-2.2696,-2.2696,-2.2618,-2.2432,-2.2255,-2.2008,-2.1562,-2.1482,-2.1114,-2.0762,-2.0563,-2.0374,-2.0295,-2.0279,-2.0053,-1.9735,-2.0062,-2.0296,-2.0405,-2.0071,-1.9443,-1.8651,-1.8178,-1.7905,-1.7602,-1.6842,-1.6411,-1.6092,-1.5559,-1.525,-1.5148,-1.4826,-1.4667,-1.4691,-1.4587,-1.4476,-1.4494,-1.4282,-1.4162,-1.4259,-1.4249,-1.4301,-1.4515,-1.4525,-1.4911,-1.5745,-1.6725,-1.7748,-1.8638,-1.9416,-2.0087,-2.0716,-2.1096,-2.1342,-2.1734,-2.2139,-2.2397,-2.2237,-2.2069,-2.2313,-2.3098,-2.3728,-2.4108,-2.4487,-2.5226,-2.597,-2.6441,-2.6926,-2.7762,-2.8609,-2.914,-2.9748,-3.0424,-3.0389,-3.0252,-3.0533,-3.0418,-3.0392,-3.049,-3.0372,-3.0255,-3.0265,-3.0157,-3.0157,-3.0265,-3.0392,-3.0626,-3.0743,-3.1102,-3.1218,-3.1344,-3.145,-3.145,-3.1556,-3.1787,-3.2258,-2.5062,-2.4946,-2.4829,-2.4659,-2.4605,-2.4272,-2.3937,-2.3754,-2.3657,-2.3917,-2.4423,-2.4196,-2.4034,-2.3861,-2.3319,-2.296,-2.2784,-2.252,-2.2255,-2.2255,-2.2264,-2.2176,-2.2185,-2.2008,-2.183,-2.1463,-2.1203,-2.0843,-2.0464,-1.9828,-1.951,-1.9515,-1.9286,-1.8979,-1.8701,-1.9024,-1.9287,-1.9577,-1.9096,-1.831,-1.7442,-1.7654,-1.7496,-1.7073,-1.653,-1.5986,-1.5458,-1.5296,-1.5013,-1.4386,-1.4527,-1.4636,-1.4595,-1.4505,-1.45,-1.4386,-1.4215,-1.4098,-1.3795,-1.3713,-1.3688,-1.3688,-1.3736,-1.4037,-1.4759,-1.5971,-1.7213,-1.7834,-1.8569,-1.9066,-1.9577,-1.9954,-2.0208,-2.0596,-2.1262,-2.1649,-2.1614,-2.1447,-2.1566,-2.248,-2.2863,-2.323,-2.3736,-2.461,-2.5357,-2.5847,-2.6684,-2.7521,-2.7891,-2.8148,-2.8627,-2.9112,-2.9515,-2.9789,-2.9605,-2.968,-2.9671,-2.935,-2.9313,-2.9203,-2.9094,-2.8975,-2.8975,-2.9094,-2.9331,-2.9568,-2.9695,-3.0049,-3.0401,-3.0645,-3.0752,-3.0976,-3.1325,-3.1441,-3.1787,-2.4444,-2.4282,-2.4013,-2.3927,-2.3927,-2.3831,-2.3754,-2.3754,-2.3406,-2.3232,-2.3309,-2.3503,-2.3406,-2.3232,-2.2979,-2.2627,-2.2264,-2.2185,-2.2008,-2.1741,-2.1741,-2.166,-2.1482,-2.1482,-2.1203,-2.0736,-2.0292,-1.992,-1.9646,-1.8896,-1.8365,-1.7961,-1.7985,-1.7867,-1.762,-1.7704,-1.7924,-1.8256,-1.74,-1.6964,-1.6839,-1.6961,-1.6906,-1.633,-1.5357,-1.4922,-1.5041,-1.4713,-1.4724,-1.4861,-1.4809,-1.4821,-1.4853,-1.4524,-1.4396,-1.426,-1.4063,-1.38,-1.3751,-1.3674,-1.3688,-1.3703,-1.3859,-1.4057,-1.4288,-1.4979,-1.5941,-1.7156,-1.7882,-1.8419,-1.945,-1.9826,-2.0075,-2.0449,-2.0829,-2.1321,-2.1475,-2.1713,-2.195,-2.248,-2.2731,-2.323,-2.3479,-2.3976,-2.4734,-2.5717,-2.6432,-2.7021,-2.728,-2.7401,-2.7409,-2.7591,-2.8528,-2.9185,-2.8855,-2.8935,-2.8899,-2.892,-2.8728,-2.8609,-2.8609,-2.8618,-2.8609,-2.8618,-2.8728,-2.8847,-2.8975,-2.9222,-2.9459,-2.9922,-3.0049,-3.0274,-3.0976,-3.1208,-3.1315,-2.4282,-2.3927,-2.3841,-2.3667,-2.3406,-2.3232,-2.3144,-2.2969,-2.2784,-2.2706,-2.2706,-2.2715,-2.2706,-2.2706,-2.2441,-2.2274,-2.2097,-2.1839,-2.1651,-2.1482,-2.1114,-2.0916,-2.1105,-2.0546,-2.0184,-2.0002,-1.9446,-1.908,-1.8719,-1.8257,-1.7692,-1.7153,-1.7101,-1.6873,-1.6519,-1.6696,-1.6718,-1.6454,-1.6484,-1.627,-1.5719,-1.6125,-1.6242,-1.5803,-1.5035,-1.4606,-1.4736,-1.4406,-1.4314,-1.4446,-1.4419,-1.4386,-1.4515,-1.441,-1.4281,-1.4247,-1.3917,-1.3713,-1.3684,-1.3688,-1.3688,-1.3688,-1.3769,-1.3958,-1.4274,-1.4644,-1.5336,-1.6167,-1.6748,-1.7523,-1.8547,-1.8798,-1.9182,-1.982,-2.0195,-2.0456,-2.0982,-2.1102,-2.1222,-2.1607,-2.1985,-2.2362,-2.2738,-2.3479,-2.4479,-2.5349,-2.5831,-2.5945,-2.6075,-2.6189,-2.6319,-2.6369,-2.7372,-2.7905,-2.7764,-2.7773,-2.7808,-2.7591,-2.753,-2.7409,-2.753,-2.7539,-2.7539,-2.7788,-2.802,-2.8131,-2.8379,-2.8746,-2.9103,-2.9331,-2.9331,-2.9459,-2.9922,-3.003,-3.0265,-2.3927,-2.368,-2.3607,-2.3319,-2.296,-2.2706,-2.2441,-2.2255,-2.2078,-2.1989,-2.19,-2.1731,-2.1642,-2.182,-2.183,-2.183,-2.1731,-2.1463,-2.1203,-2.1024,-2.0572,-2.0382,-2.0456,-1.9712,-1.9255,-1.908,-1.8611,-1.8064,-1.7512,-1.7318,-1.6857,-1.6298,-1.6204,-1.6021,-1.5662,-1.5763,-1.5505,-1.522,-1.5574,-1.5524,-1.4978,-1.5323,-1.547,-1.5261,-1.4821,-1.4498,-1.4396,-1.4187,-1.4124,-1.4075,-1.406,-1.4169,-1.4387,-1.4285,-1.4242,-1.4028,-1.3808,-1.3688,-1.3569,-1.3688,-1.3688,-1.3573,-1.3611,-1.3925,-1.4232,-1.4615,-1.5067,-1.5654,-1.6239,-1.7012,-1.7518,-1.8039,-1.8559,-1.9328,-1.9584,-1.9966,-2.0482,-2.0609,-2.0856,-2.1109,-2.1488,-2.1734,-2.2111,-2.2981,-2.3736,-2.4355,-2.4602,-2.4734,-2.4865,-2.5095,-2.5341,-2.5234,-2.5945,-2.6454,-2.6621,-2.7088,-2.6802,-2.6571,-2.6571,-2.6571,-2.6449,-2.6449,-2.6449,-2.7047,-2.7418,-2.7547,-2.7539,-2.802,-2.8627,-2.8746,-2.8865,-2.8865,-2.9222,-2.9203,-2.944,-2.3227,-2.3203,-2.2978,-2.2803,-2.2794,-2.2274,-2.1989,-2.1695,-2.1248,-2.0889,-2.0718,-2.0538,-2.0374,-2.0464,-2.1114,-2.1293,-2.1087,-2.0997,-2.0736,-2.0382,-2.0292,-1.992,-1.9271,-1.898,-1.8703,-1.8434,-1.7692,-1.6951,-1.6015,-1.592,-1.5642,-1.5178,-1.5267,-1.5172,-1.5083,-1.4712,-1.454,-1.4672,-1.4577,-1.4522,-1.4659,-1.4686,-1.4708,-1.4606,-1.46,-1.4283,-1.3883,-1.3967,-1.4075,-1.3962,-1.4164,-1.4387,-1.448,-1.4267,-1.4033,-1.3808,-1.3688,-1.3564,-1.3324,-1.3444,-1.3569,-1.3347,-1.3728,-1.4066,-1.4385,-1.4799,-1.5253,-1.5928,-1.6431,-1.6953,-1.7216,-1.8022,-1.8693,-1.9206,-1.9717,-2.0227,-2.0609,-2.0862,-2.1102,-2.1102,-2.1355,-2.1734,-2.1978,-2.2111,-2.2613,-2.3113,-2.3487,-2.3736,-2.4115,-2.4355,-2.4479,-2.4355,-2.4386,-2.4741,-2.5855,-2.6346,-2.6536,-2.6321,-2.5953,-2.6083,-2.6075,-2.6075,-2.6075,-2.6197,-2.6562,-2.6813,-2.6822,-2.7064,-2.7547,-2.7908,-2.8388,-2.8618,-2.8507,-2.8856,-2.8975,-2.2087,-2.194,-2.1919,-2.1928,-2.1839,-2.1374,-2.1186,-2.097,-2.0473,-2.0329,-2.0305,-1.9954,-1.9791,-2.0019,-2.0019,-2.0093,-2.0266,-2.0175,-1.9911,-1.9563,-1.9096,-1.8912,-1.8912,-1.8079,-1.7707,-1.7606,-1.6965,-1.6305,-1.5642,-1.5452,-1.5172,-1.4879,-1.4885,-1.4783,-1.4592,-1.4214,-1.4069,-1.4193,-1.3981,-1.3934,-1.3947,-1.388,-1.3867,-1.3748,-1.3959,-1.3862,-1.3423,-1.3522,-1.3456,-1.3536,-1.3649,-1.3771,-1.3853,-1.4103,-1.3933,-1.3449,-1.3569,-1.3564,-1.3324,-1.3324,-1.3324,-1.3329,-1.3755,-1.4266,-1.444,-1.4804,-1.5182,-1.562,-1.6181,-1.656,-1.7003,-1.7851,-1.8828,-1.9322,-1.9839,-2.0208,-2.0609,-2.0856,-2.1102,-2.1102,-2.1355,-2.1614,-2.1699,-2.1978,-2.2237,-2.2362,-2.2606,-2.2716,-2.3106,-2.323,-2.3464,-2.3736,-2.386,-2.3984,-2.4602,-2.5175,-2.5469,-2.5405,-2.5341,-2.5472,-2.5594,-2.5472,-2.5472,-2.5831,-2.6075,-2.6319,-2.6327,-2.6449,-2.6813,-2.7306,-2.7788,-2.7779,-2.7668,-2.7966,-2.8095,-2.1147,-2.1049,-2.0988,-2.0998,-2.0916,-2.0335,-2.0013,-1.9881,-1.9356,-1.9221,-1.9282,-1.9027,-1.9036,-1.9239,-1.9004,-1.8912,-1.9171,-1.9271,-1.9088,-1.8719,-1.8164,-1.7978,-1.79,-1.7153,-1.6784,-1.6864,-1.6312,-1.5737,-1.5356,-1.5077,-1.479,-1.4592,-1.4592,-1.44,-1.4208,-1.3925,-1.3738,-1.3636,-1.354,-1.348,-1.3431,-1.3524,-1.3439,-1.3315,-1.3423,-1.3315,-1.3212,-1.3128,-1.3125,-1.3116,-1.3036,-1.3017,-1.3152,-1.3518,-1.3622,-1.3435,-1.3569,-1.3569,-1.3444,-1.3324,-1.3324,-1.3204,-1.3818,-1.426,-1.4455,-1.4856,-1.5212,-1.5494,-1.6053,-1.6549,-1.6982,-1.7736,-1.8566,-1.9191,-1.9575,-1.9959,-2.0341,-2.0579,-2.0815,-2.0795,-2.0913,-2.1058,-2.1196,-2.1307,-2.1417,-2.1445,-2.1569,-2.1831,-2.2054,-2.2338,-2.2644,-2.3208,-2.3355,-2.3604,-2.3976,-2.4386,-2.4649,-2.4595,-2.4726,-2.4857,-2.498,-2.4857,-2.498,-2.5464,-2.5709,-2.5831,-2.5945,-2.6067,-2.6311,-2.6675,-2.6813,-2.6926,-2.6883,-2.6927,-2.7219,-2.0458,-2.0584,-2.0237,-2.0076,-2.003,-1.9133,-1.8564,-1.8329,-1.785,-1.7728,-1.7869,-1.765,-1.791,-1.8133,-1.8179,-1.7994,-1.7994,-1.8365,-1.835,-1.7792,-1.7692,-1.7326,-1.677,-1.6407,-1.6224,-1.613,-1.5737,-1.5356,-1.5077,-1.4783,-1.4592,-1.4394,-1.4298,-1.4208,-1.3931,-1.3636,-1.3346,-1.3252,-1.3127,-1.3162,-1.3426,-1.3301,-1.3212,-1.3212,-1.2989,-1.2881,-1.2886,-1.2891,-1.2774,-1.272,-1.2441,-1.2397,-1.2602,-1.2926,-1.3244,-1.3517,-1.3679,-1.3688,-1.3688,-1.3564,-1.3444,-1.3329,-1.3813,-1.437,-1.4523,-1.5069,-1.5523,-1.5797,-1.6226,-1.6618,-1.673,-1.7262,-1.7936,-1.8662,-1.9111,-1.9485,-1.982,-2.0024,-2.0254,-2.0301,-2.0327,-2.0261,-2.0254,-2.0449,-2.0483,-2.0476,-2.0584,-2.0903,-2.1354,-2.1772,-2.2153,-2.258,-2.2697,-2.2857,-2.3222,-2.3581,-2.3814,-2.3931,-2.4092,-2.4239,-2.4363,-2.4363,-2.4487,-2.4849,-2.5095,-2.5333,-2.5667,-2.5781,-2.5739,-2.599,-2.6064,-2.6023,-2.6139,-2.6244,-2.6296,-1.9235,-1.9058,-1.8868,-1.8775,-1.8787,-1.8161,-1.7866,-1.7738,-1.7156,-1.7152,-1.7461,-1.7153,-1.7281,-1.7624,-1.7535,-1.7254,-1.7254,-1.7246,-1.7239,-1.7145,-1.7052,-1.6756,-1.6386,-1.6015,-1.5743,-1.5458,-1.507,-1.4879,-1.4783,-1.4496,-1.4394,-1.4298,-1.4118,-1.4027,-1.3835,-1.3443,-1.3147,-1.3105,-1.292,-1.2843,-1.289,-1.2763,-1.2654,-1.2441,-1.2114,-1.2005,-1.2005,-1.2223,-1.2146,-1.2,-1.202,-1.2094,-1.2316,-1.3063,-1.34,-1.3244,-1.3498,-1.3569,-1.3444,-1.3324,-1.3324,-1.3324,-1.3928,-1.4436,-1.462,-1.5116,-1.5512,-1.5581,-1.5691,-1.5686,-1.5932,-1.5932,-1.6557,-1.7988,-1.8649,-1.8985,-1.9331,-1.9837,-2.0113,-2.0234,-2.0234,-2.0234,-2.0227,-2.0214,-2.018,-2.0187,-2.0315,-2.0503,-2.0821,-2.1091,-2.1227,-2.1589,-2.1725,-2.1925,-2.2227,-2.2515,-2.2637,-2.3093,-2.3327,-2.3525,-2.3694,-2.3716,-2.387,-2.4124,-2.4509,-2.483,-2.5165,-2.5326,-2.5269,-2.5234,-2.5271,-2.5349,-2.5451,-2.5511,-2.5562,-1.8228,-1.8045,-1.7827,-1.7738,-1.7739,-1.7139,-1.6817,-1.6764,-1.6297,-1.6342,-1.6714,-1.6469,-1.6733,-1.7145,-1.6871,-1.6683,-1.6683,-1.6305,-1.6204,-1.64,-1.64,-1.6197,-1.5913,-1.554,-1.5267,-1.4981,-1.4592,-1.4394,-1.4394,-1.4106,-1.4016,-1.3919,-1.3829,-1.3642,-1.3539,-1.3152,-1.2953,-1.2726,-1.2607,-1.2535,-1.2521,-1.2437,-1.2332,-1.2332,-1.2005,-1.1896,-1.1787,-1.1896,-1.1896,-1.1805,-1.1917,-1.1953,-1.2025,-1.2841,-1.3178,-1.3175,-1.333,-1.357,-1.3456,-1.3393,-1.3324,-1.3449,-1.3933,-1.4296,-1.4291,-1.4764,-1.4883,-1.5002,-1.4898,-1.4883,-1.5131,-1.524,-1.5616,-1.6591,-1.7352,-1.8094,-1.8696,-1.9429,-1.99,-1.988,-1.9887,-1.9913,-1.9913,-1.9913,-1.9907,-1.9913,-1.9913,-1.9987,-2.026,-2.0427,-2.0702,-2.0891,-2.1257,-2.1406,-2.1343,-2.1463,-2.1583,-2.2089,-2.2498,-2.2808,-2.311,-2.2981,-2.311,-2.3566,-2.4057,-2.4395,-2.4754,-2.4627,-2.4571,-2.4488,-2.446,-2.4708,-2.4882,-2.4678,-2.4696,-1.7425,-1.7459,-1.6961,-1.6877,-1.6824,-1.6166,-1.5798,-1.5576,-1.524,-1.5362,-1.5634,-1.5697,-1.5952,-1.6341,-1.6129,-1.5954,-1.6001,-1.5534,-1.5343,-1.5439,-1.5439,-1.5439,-1.535,-1.4873,-1.4694,-1.4496,-1.41,-1.3811,-1.3811,-1.3534,-1.3443,-1.3346,-1.3249,-1.3152,-1.2662,-1.2662,-1.2273,-1.1938,-1.1986,-1.2079,-1.2314,-1.2148,-1.2172,-1.2502,-1.2154,-1.1837,-1.1673,-1.1673,-1.1896,-1.1896,-1.1914,-1.2009,-1.1926,-1.2194,-1.2664,-1.3051,-1.3254,-1.346,-1.3752,-1.349,-1.347,-1.3466,-1.3584,-1.3655,-1.3713,-1.3841,-1.4108,-1.4232,-1.4272,-1.4411,-1.465,-1.4764,-1.5017,-1.5121,-1.591,-1.6724,-1.7719,-1.8583,-1.8998,-1.9082,-1.9256,-1.9263,-1.9336,-1.9329,-1.9322,-1.9432,-1.9452,-1.9579,-1.97,-1.9918,-2.0271,-2.0452,-2.0598,-2.0578,-2.0502,-2.0733,-2.0844,-2.1123,-2.1673,-2.2042,-2.2436,-2.2465,-2.2586,-2.3141,-2.3541,-2.385,-2.4039,-2.3913,-2.3959,-2.3909,-2.4033,-2.4202,-2.4222,-2.3972,-2.4114,-1.6621,-1.6459,-1.5944,-1.5745,-1.5573,-1.5148,-1.4951,-1.4937,-1.4867,-1.4965,-1.5193,-1.498,-1.4977,-1.5372,-1.4958,-1.4867,-1.4924,-1.458,-1.4388,-1.4484,-1.3992,-1.419,-1.449,-1.431,-1.4022,-1.3732,-1.3437,-1.3238,-1.305,-1.2851,-1.2565,-1.237,-1.2073,-1.1785,-1.1585,-1.1292,-1.0998,-1.0833,-1.1034,-1.0977,-1.0808,-1.0252,-1.011,-1.0679,-1.0486,-1.0345,-1.0437,-1.0802,-1.1236,-1.1673,-1.1896,-1.2019,-1.1991,-1.2335,-1.2665,-1.2857,-1.3032,-1.315,-1.3274,-1.3096,-1.2887,-1.2878,-1.2924,-1.3003,-1.3008,-1.3489,-1.379,-1.3957,-1.4064,-1.4177,-1.4291,-1.4167,-1.4167,-1.4282,-1.5229,-1.6177,-1.6649,-1.7114,-1.759,-1.7707,-1.783,-1.8188,-1.8538,-1.8655,-1.8771,-1.8997,-1.9004,-1.914,-1.9265,-1.9409,-1.9744,-1.9676,-1.9794,-1.98,-1.9911,-2.0021,-2.0124,-2.0219,-2.0709,-2.1253,-2.1831,-2.2169,-2.2423,-2.2781,-2.2868,-2.3153,-2.3278,-2.334,-2.3323,-2.3344,-2.3411,-2.3459,-2.347,-2.3286,-2.3545,-1.6162,-1.5914,-1.5318,-1.4985,-1.4741,-1.4321,-1.4068,-1.3971,-1.3977,-1.4051,-1.4128,-1.4027,-1.405,-1.4161,-1.392,-1.3856,-1.3992,-1.3624,-1.3528,-1.3528,-1.3136,-1.3136,-1.3528,-1.3443,-1.3147,-1.2856,-1.2559,-1.237,-1.2175,-1.1975,-1.178,-1.1683,-1.1194,-1.0998,-1.0904,-1.0511,-1.0117,-1.0048,-1.0079,-1.0074,-1.0095,-0.9511,-0.953,-0.9961,-0.9793,-0.9883,-1.0105,-1.047,-1.0824,-1.121,-1.1568,-1.1787,-1.1682,-1.2,-1.2298,-1.2312,-1.2487,-1.2602,-1.2616,-1.2438,-1.2488,-1.2378,-1.2378,-1.2378,-1.2422,-1.2901,-1.3142,-1.34,-1.3694,-1.3789,-1.3933,-1.3808,-1.3688,-1.3808,-1.4515,-1.5229,-1.5585,-1.6402,-1.6756,-1.6873,-1.6997,-1.7238,-1.7713,-1.7948,-1.8298,-1.8525,-1.8881,-1.9004,-1.914,-1.9113,-1.9004,-1.9127,-1.9249,-1.9419,-1.9452,-1.9569,-1.9679,-1.9747,-1.9884,-2.0501,-2.1,-2.1625,-2.1928,-2.2134,-2.2353,-2.2432,-2.2667,-2.279,-2.2819,-2.2832,-2.2812,-2.2909,-2.2909,-2.2901,-2.3022,-1.5741,-1.5401,-1.4824,-1.4398,-1.4055,-1.3561,-1.3215,-1.296,-1.2954,-1.2911,-1.2861,-1.2939,-1.2922,-1.2995,-1.2852,-1.289,-1.2827,-1.2507,-1.2448,-1.2336,-1.2042,-1.2133,-1.2123,-1.2334,-1.2268,-1.1991,-1.1688,-1.1394,-1.1203,-1.11,-1.0998,-1.0801,-1.0605,-1.0408,-1.0015,-0.9821,-0.9628,-0.9351,-0.9137,-0.9202,-0.9435,-0.9229,-0.932,-0.96,-0.9754,-0.9778,-1.0012,-1.019,-1.0389,-1.0437,-1.1118,-1.135,-1.1126,-1.1354,-1.1581,-1.1608,-1.1744,-1.1836,-1.1854,-1.1959,-1.2056,-1.2034,-1.1701,-1.174,-1.1964,-1.2081,-1.2432,-1.2892,-1.3045,-1.3388,-1.3688,-1.3688,-1.3688,-1.3688,-1.3803,-1.4162,-1.4873,-1.5693,-1.6279,-1.6279,-1.6273,-1.6514,-1.6879,-1.7238,-1.7596,-1.7935,-1.8175,-1.8292,-1.8409,-1.8415,-1.8532,-1.8777,-1.8894,-1.9127,-1.914,-1.9263,-1.9379,-1.9359,-1.9475,-1.9891,-2.0238,-2.0822,-2.1198,-2.1528,-2.1676,-2.1915,-2.2154,-2.2177,-2.2253,-2.2366,-2.2456,-2.2683,-2.2796,-2.2683,-2.2683,-1.4314,-1.3899,-1.3724,-1.3385,-1.2875,-1.2711,-1.2448,-1.2186,-1.2186,-1.2135,-1.2112,-1.2088,-1.191,-1.1669,-1.1603,-1.1466,-1.1475,-1.112,-1.0618,-1.0247,-1.0426,-1.0238,-1.031,-1.0908,-1.1482,-1.1404,-1.0712,-1.052,-1.0627,-1.022,-0.9826,-0.9624,-0.9517,-0.9122,-0.8928,-0.873,-0.8432,-0.834,-0.8272,-0.8292,-0.8396,-0.8431,-0.8512,-0.8717,-0.8823,-0.8841,-0.8841,-0.9224,-0.9366,-0.9425,-1.0171,-1.0781,-1.0798,-1.0802,-1.1021,-1.1253,-1.127,-1.1308,-1.1414,-1.1355,-1.1364,-1.1394,-1.1184,-1.1023,-1.1257,-1.1677,-1.1994,-1.2511,-1.2994,-1.3372,-1.3618,-1.3674,-1.367,-1.366,-1.3679,-1.3808,-1.4043,-1.4406,-1.4759,-1.4878,-1.5229,-1.558,-1.6172,-1.6532,-1.6885,-1.7232,-1.7467,-1.7467,-1.7584,-1.7824,-1.8064,-1.8305,-1.8421,-1.8538,-1.8538,-1.8655,-1.8887,-1.9004,-1.9113,-1.9229,-1.9577,-2.0033,-2.05,-2.0852,-2.1225,-2.1318,-2.131,-2.1546,-2.1554,-2.1888,-2.2108,-2.2108,-2.2108,-2.2222,-2.2456,-1.3555,-1.3222,-1.296,-1.2619,-1.2112,-1.1854,-1.1596,-1.1419,-1.1413,-1.1241,-1.1094,-1.1004,-1.0863,-1.0522,-1.0453,-1.0398,-1.0274,-0.9926,-0.9558,-0.9287,-0.9283,-0.9092,-0.873,-0.9362,-0.9992,-1.0387,-0.9993,-0.9727,-0.9628,-0.9426,-0.9229,-0.9027,-0.8726,-0.8627,-0.8336,-0.8038,-0.7842,-0.7842,-0.7743,-0.7743,-0.764,-0.7743,-0.7759,-0.7743,-0.7827,-0.7948,-0.8193,-0.8404,-0.8523,-0.8831,-0.9287,-0.9851,-1.0135,-1.0253,-1.0363,-1.0582,-1.0696,-1.0688,-1.0798,-1.0907,-1.0924,-1.0907,-1.0798,-1.1017,-1.1169,-1.1531,-1.1966,-1.2379,-1.2808,-1.317,-1.3391,-1.3514,-1.3532,-1.3566,-1.3636,-1.3684,-1.3684,-1.3933,-1.4177,-1.4296,-1.4644,-1.5116,-1.5472,-1.5946,-1.6295,-1.6762,-1.7114,-1.7114,-1.7473,-1.7596,-1.7596,-1.7713,-1.7713,-1.7824,-1.7824,-1.8058,-1.8292,-1.8532,-1.8655,-1.8765,-1.8881,-1.9339,-1.9802,-2.0148,-2.0385,-2.0263,-2.0263,-2.0608,-2.0845,-2.0852,-2.096,-2.1196,-2.1531,-2.1638,-2.1873,-1.2905,-1.2644,-1.2304,-1.1895,-1.1408,-1.0956,-1.0702,-1.0559,-1.0467,-1.0299,-0.9979,-1.0065,-0.9986,-0.9611,-0.9631,-0.9548,-0.9271,-0.9075,-0.8762,-0.8582,-0.8574,-0.8302,-0.7959,-0.8016,-0.8287,-0.8917,-0.889,-0.8674,-0.8616,-0.852,-0.8528,-0.8528,-0.8432,-0.8131,-0.8035,-0.7839,-0.754,-0.7543,-0.7441,-0.7441,-0.7338,-0.7338,-0.7347,-0.7356,-0.7366,-0.7519,-0.7687,-0.7862,-0.8037,-0.8374,-0.8525,-0.8889,-0.9223,-0.9489,-0.9706,-0.9702,-1.0033,-1.0253,-1.0363,-1.0472,-1.0692,-1.0692,-1.0692,-1.0911,-1.1278,-1.147,-1.1766,-1.2194,-1.2551,-1.2817,-1.3079,-1.323,-1.3329,-1.3372,-1.3518,-1.3627,-1.377,-1.3909,-1.4177,-1.4172,-1.4411,-1.4764,-1.5002,-1.5359,-1.5709,-1.6177,-1.6532,-1.6879,-1.7126,-1.725,-1.7009,-1.7015,-1.7009,-1.712,-1.7238,-1.7355,-1.759,-1.7948,-1.8071,-1.8188,-1.8181,-1.8525,-1.8874,-1.9332,-1.9448,-1.9448,-1.9557,-1.9795,-1.9917,-1.9693,-1.9924,-2.0263,-2.0601,-2.0945,-2.1296,-1.1539,-1.1288,-1.1047,-1.081,-1.0504,-1.0028,-0.9885,-0.9758,-0.9598,-0.9519,-0.9437,-0.9472,-0.9323,-0.9067,-0.8882,-0.8557,-0.8337,-0.8169,-0.7979,-0.7796,-0.7792,-0.7527,-0.7195,-0.7177,-0.724,-0.723,-0.7508,-0.7684,-0.7789,-0.773,-0.7915,-0.7826,-0.7832,-0.7633,-0.7534,-0.7338,-0.7238,-0.7238,-0.7138,-0.7036,-0.7036,-0.7036,-0.7036,-0.7036,-0.7036,-0.7153,-0.7296,-0.7493,-0.761,-0.775,-0.8097,-0.8438,-0.8636,-0.8899,-0.9034,-0.9151,-0.9482,-0.9816,-1.0033,-1.0253,-1.0476,-1.0582,-1.0692,-1.0802,-1.1139,-1.116,-1.1427,-1.1797,-1.2144,-1.2533,-1.3051,-1.3088,-1.3112,-1.3169,-1.3291,-1.3433,-1.3466,-1.3779,-1.4103,-1.4074,-1.4232,-1.4411,-1.465,-1.4888,-1.5121,-1.5472,-1.5704,-1.5941,-1.6183,-1.6188,-1.607,-1.6076,-1.6076,-1.6307,-1.6649,-1.6655,-1.6891,-1.7132,-1.7367,-1.7602,-1.7602,-1.7596,-1.7941,-1.8525,-1.8868,-1.9094,-1.9094,-1.9094,-1.9094,-1.9107,-1.9216,-1.9441,-1.9788,-2.0256,-2.05,-1.0563,-1.0481,-1.0398,-1.0123,-0.9872,-0.9649,-0.9356,-0.9108,-0.9122,-0.8907,-0.8819,-0.8732,-0.8556,-0.838,-0.8288,-0.8028,-0.7768,-0.7499,-0.7323,-0.7146,-0.7146,-0.6881,-0.6526,-0.6598,-0.6479,-0.6465,-0.65,-0.6846,-0.7104,-0.7321,-0.7365,-0.7425,-0.7434,-0.7335,-0.7135,-0.6936,-0.6836,-0.6739,-0.6739,-0.6539,-0.6437,-0.6439,-0.6539,-0.6639,-0.6739,-0.6839,-0.6954,-0.7089,-0.7265,-0.7446,-0.7669,-0.7976,-0.8185,-0.8419,-0.8636,-0.8903,-0.9151,-0.9375,-0.9478,-0.9702,-0.9926,-1.0143,-1.0253,-1.0582,-1.0911,-1.1025,-1.1021,-1.1371,-1.1836,-1.2192,-1.2497,-1.2622,-1.2673,-1.272,-1.2754,-1.2855,-1.3012,-1.3203,-1.3494,-1.3795,-1.4148,-1.4341,-1.453,-1.465,-1.465,-1.4888,-1.4997,-1.5121,-1.5359,-1.5477,-1.5483,-1.572,-1.5833,-1.593,-1.6144,-1.6245,-1.6317,-1.6557,-1.6809,-1.6926,-1.7085,-1.7172,-1.7443,-1.7948,-1.8292,-1.8396,-1.8286,-1.8169,-1.8286,-1.8409,-1.8525,-1.8765,-1.9107,-1.9455,-1.9809,-0.9847,-0.9842,-0.9847,-0.9624,-0.9356,-0.934,-0.9017,-0.8658,-0.8657,-0.8468,-0.8109,-0.8021,-0.7937,-0.7764,-0.7676,-0.7503,-0.7234,-0.7051,-0.6877,-0.6792,-0.6707,-0.6441,-0.626,-0.6091,-0.6042,-0.5839,-0.578,-0.5988,-0.6475,-0.6646,-0.6908,-0.6869,-0.7006,-0.7036,-0.6936,-0.6637,-0.6437,-0.6439,-0.6442,-0.6142,-0.5839,-0.5839,-0.6042,-0.6042,-0.6137,-0.6339,-0.6545,-0.6453,-0.6581,-0.683,-0.71,-0.737,-0.762,-0.7902,-0.8285,-0.861,-0.9006,-0.9034,-0.9037,-0.904,-0.9375,-0.9592,-0.9596,-1.0033,-1.0582,-1.0692,-1.0798,-1.1126,-1.1468,-1.1805,-1.1973,-1.205,-1.2122,-1.2176,-1.219,-1.221,-1.2456,-1.2731,-1.291,-1.337,-1.4025,-1.4187,-1.4172,-1.4178,-1.4153,-1.444,-1.4559,-1.4764,-1.5007,-1.5235,-1.5477,-1.5601,-1.5709,-1.5666,-1.5751,-1.5814,-1.5848,-1.6096,-1.6217,-1.6327,-1.6646,-1.6949,-1.7107,-1.7235,-1.7361,-1.7467,-1.7361,-1.7355,-1.7596,-1.7713,-1.7843,-1.8077,-1.8648,-1.9113,-1.9584,-0.93,-0.9375,-0.9221,-0.9167,-0.8982,-0.8621,-0.8401,-0.8296,-0.8123,-0.7848,-0.7577,-0.7577,-0.7404,-0.7231,-0.7058,-0.6789,-0.6609,-0.6517,-0.6432,-0.6346,-0.626,-0.6171,-0.5994,-0.5638,-0.5555,-0.5412,-0.5225,-0.5423,-0.568,-0.5896,-0.6068,-0.611,-0.6391,-0.6434,-0.6334,-0.6137,-0.6437,-0.6337,-0.6337,-0.6139,-0.5942,-0.5842,-0.5942,-0.5842,-0.5839,-0.5837,-0.5942,-0.5746,-0.567,-0.6055,-0.6292,-0.6463,-0.6653,-0.7106,-0.7349,-0.7648,-0.81,-0.8595,-0.8455,-0.8569,-0.8679,-0.8899,-0.9027,-0.9368,-0.9812,-1.0363,-1.0578,-1.1131,-1.1236,-1.1345,-1.1568,-1.1704,-1.1717,-1.1784,-1.1788,-1.1876,-1.2023,-1.205,-1.2339,-1.272,-1.3203,-1.3456,-1.357,-1.3514,-1.3659,-1.3957,-1.4134,-1.444,-1.4584,-1.4878,-1.5205,-1.5296,-1.528,-1.5359,-1.5443,-1.5416,-1.5467,-1.5554,-1.5778,-1.5886,-1.6069,-1.6385,-1.642,-1.6466,-1.6594,-1.6546,-1.65,-1.6628,-1.6962,-1.7244,-1.7602,-1.7954,-1.8305,-1.8771,-1.9236,-0.8069,-0.8613,-0.854,-0.8434,-0.8299,-0.8175,-0.7978,-0.7762,-0.7563,-0.7319,-0.7143,-0.6959,-0.6782,-0.6609,-0.6523,-0.6349,-0.6169,-0.6077,-0.5899,-0.5811,-0.5727,-0.5636,-0.5458,-0.528,-0.5191,-0.5013,-0.4837,-0.4591,-0.4905,-0.5221,-0.561,-0.5686,-0.5775,-0.5734,-0.5625,-0.5336,-0.5035,-0.4935,-0.5035,-0.5037,-0.5037,-0.5238,-0.5441,-0.5138,-0.5135,-0.5236,-0.5236,-0.5138,-0.5153,-0.5403,-0.5609,-0.5829,-0.6192,-0.6551,-0.6807,-0.692,-0.7278,-0.7588,-0.7708,-0.7998,-0.8144,-0.8288,-0.8433,-0.8706,-0.9147,-0.9588,-0.9919,-1.0363,-1.0468,-1.0802,-1.1131,-1.135,-1.135,-1.1384,-1.1334,-1.1351,-1.1505,-1.1633,-1.1775,-1.2029,-1.2395,-1.2665,-1.296,-1.3127,-1.3279,-1.3471,-1.3742,-1.3902,-1.4018,-1.4205,-1.4541,-1.4903,-1.4887,-1.4876,-1.5074,-1.5042,-1.5145,-1.5172,-1.5404,-1.5512,-1.5631,-1.579,-1.5824,-1.5955,-1.612,-1.596,-1.5803,-1.6303,-1.678,-1.719,-1.759,-1.791,-1.8358,-1.8648,-1.8997,-0.6791,-0.748,-0.7557,-0.7561,-0.7529,-0.7539,-0.7357,-0.6989,-0.6837,-0.6612,-0.6435,-0.608,-0.5899,-0.5811,-0.5633,-0.5549,-0.5638,-0.5455,-0.528,-0.5191,-0.5102,-0.5013,-0.4832,-0.4743,-0.4652,-0.4741,-0.4297,-0.4131,-0.4172,-0.4449,-0.4759,-0.4936,-0.5027,-0.4982,-0.4698,-0.4499,-0.4303,-0.4336,-0.4437,-0.4438,-0.4336,-0.4636,-0.4638,-0.4537,-0.4535,-0.4636,-0.4734,-0.4634,-0.4738,-0.5044,-0.5148,-0.5358,-0.5677,-0.5826,-0.6065,-0.6282,-0.6676,-0.6917,-0.7072,-0.7364,-0.7576,-0.766,-0.7956,-0.8266,-0.8592,-0.8813,-0.9034,-0.9588,-0.9699,-1.0139,-1.0582,-1.0802,-1.0911,-1.0911,-1.0924,-1.0911,-1.1025,-1.1186,-1.1321,-1.1674,-1.1903,-1.2192,-1.2505,-1.2767,-1.289,-1.3093,-1.325,-1.3388,-1.3621,-1.3725,-1.422,-1.4609,-1.4728,-1.4691,-1.4708,-1.4794,-1.4778,-1.4756,-1.4986,-1.5065,-1.5127,-1.5177,-1.5238,-1.5468,-1.5591,-1.5603,-1.5515,-1.6172,-1.6698,-1.697,-1.7171,-1.789,-1.8404,-1.8571,-1.8616,-0.5547,-0.5774,-0.6153,-0.6468,-0.6662,-0.6485,-0.6274,-0.6139,-0.5961,-0.5714,-0.5549,-0.5104,-0.4835,-0.4565,-0.4565,-0.4567,-0.4476,-0.4389,-0.4389,-0.4389,-0.4389,-0.4389,-0.4297,-0.4208,-0.4028,-0.4028,-0.3762,-0.3674,-0.3605,-0.358,-0.3622,-0.364,-0.4055,-0.4105,-0.3927,-0.3734,-0.3966,-0.4002,-0.4219,-0.4331,-0.4234,-0.4236,-0.4033,-0.4034,-0.4033,-0.4232,-0.4732,-0.4325,-0.4219,-0.4716,-0.4714,-0.4816,-0.5016,-0.5253,-0.5475,-0.579,-0.6202,-0.6428,-0.6564,-0.681,-0.6965,-0.7189,-0.7494,-0.7764,-0.7968,-0.8562,-0.891,-0.8869,-0.8944,-0.9318,-0.9665,-0.9919,-1.0214,-1.0472,-1.0582,-1.0692,-1.0802,-1.1021,-1.1152,-1.1244,-1.1455,-1.1673,-1.1896,-1.2165,-1.2566,-1.2767,-1.2843,-1.3096,-1.3365,-1.36,-1.4097,-1.4477,-1.46,-1.4644,-1.4478,-1.4546,-1.453,-1.4482,-1.4559,-1.45,-1.4435,-1.4516,-1.4778,-1.4917,-1.5055,-1.5199,-1.5406,-1.5801,-1.6197,-1.6464,-1.6875,-1.7609,-1.7951,-1.7995,-1.7962,-0.4774,-0.4846,-0.4999,-0.5464,-0.5948,-0.6067,-0.5952,-0.5802,-0.554,-0.522,-0.4926,-0.4569,-0.4389,-0.421,-0.3944,-0.3942,-0.4028,-0.3673,-0.3764,-0.3764,-0.3764,-0.3764,-0.3673,-0.3583,-0.3492,-0.3494,-0.3408,-0.3139,-0.2877,-0.2926,-0.2741,-0.2863,-0.3215,-0.3161,-0.2986,-0.2799,-0.2927,-0.3155,-0.3474,-0.3684,-0.3528,-0.3833,-0.3731,-0.3531,-0.3531,-0.3632,-0.3725,-0.3587,-0.3674,-0.3966,-0.4164,-0.4364,-0.4577,-0.481,-0.5135,-0.5338,-0.5741,-0.5939,-0.6261,-0.6497,-0.6738,-0.6627,-0.6907,-0.705,-0.7177,-0.7481,-0.7794,-0.8003,-0.8129,-0.8491,-0.9219,-0.945,-0.9682,-0.9991,-1.0351,-1.0441,-1.0558,-1.0761,-1.0903,-1.1008,-1.1122,-1.1236,-1.1459,-1.1695,-1.2069,-1.2445,-1.263,-1.2807,-1.3073,-1.3315,-1.3679,-1.4023,-1.4246,-1.4335,-1.4286,-1.4227,-1.4293,-1.4245,-1.4196,-1.4196,-1.4196,-1.4213,-1.4445,-1.4478,-1.4718,-1.5009,-1.5263,-1.5447,-1.5754,-1.6285,-1.6776,-1.7253,-1.7459,-1.7427,-1.7153,-0.4229,-0.4229,-0.4309,-0.4696,-0.5251,-0.5377,-0.5336,-0.5121,-0.4896,-0.4566,-0.4208,-0.3941,-0.3762,-0.3585,-0.3318,-0.3227,-0.3226,-0.3048,-0.305,-0.305,-0.3048,-0.3048,-0.3048,-0.3048,-0.2868,-0.2869,-0.2869,-0.2691,-0.2425,-0.237,-0.2271,-0.2274,-0.2488,-0.2429,-0.2365,-0.1998,-0.1824,-0.2036,-0.2532,-0.2934,-0.2874,-0.3289,-0.3397,-0.3204,-0.3215,-0.3331,-0.3416,-0.3381,-0.3445,-0.3734,-0.3927,-0.4121,-0.4343,-0.4577,-0.4926,-0.5138,-0.5338,-0.5636,-0.5967,-0.6248,-0.6448,-0.6422,-0.627,-0.6384,-0.6479,-0.6585,-0.7046,-0.7352,-0.7446,-0.7781,-0.8745,-0.8862,-0.9197,-0.9581,-1.0023,-1.0126,-1.0325,-1.0458,-1.0631,-1.0781,-1.0789,-1.0907,-1.1021,-1.124,-1.1682,-1.2151,-1.2412,-1.2669,-1.2884,-1.3003,-1.3093,-1.3421,-1.3629,-1.3816,-1.3986,-1.4115,-1.4245,-1.4234,-1.4196,-1.4196,-1.4196,-1.4191,-1.4196,-1.4364,-1.4581,-1.4838,-1.5296,-1.5695,-1.5946,-1.6222,-1.6569,-1.6901,-1.6961,-1.6815,-1.6333,-0.3841,-0.3841,-0.3999,-0.4231,-0.4394,-0.4341,-0.4276,-0.421,-0.3966,-0.361,-0.3133,-0.3047,-0.278,-0.2512,-0.2423,-0.2423,-0.2512,-0.2333,-0.2334,-0.2423,-0.2423,-0.2333,-0.2333,-0.2333,-0.2332,-0.2243,-0.2333,-0.2333,-0.2155,-0.2074,-0.1978,-0.1976,-0.2084,-0.2192,-0.2224,-0.2172,-0.1906,-0.1718,-0.2195,-0.2585,-0.2991,-0.3219,-0.304,-0.2953,-0.3078,-0.3295,-0.3399,-0.3335,-0.3401,-0.3605,-0.3999,-0.4195,-0.4304,-0.4583,-0.4931,-0.5138,-0.524,-0.5438,-0.5949,-0.6152,-0.6095,-0.6115,-0.5955,-0.61,-0.6343,-0.6456,-0.654,-0.6917,-0.695,-0.7293,-0.7747,-0.8177,-0.872,-0.9191,-0.9636,-0.9871,-1.0067,-1.0111,-1.0266,-1.0317,-1.0514,-1.0578,-1.0578,-1.0798,-1.1332,-1.1778,-1.2223,-1.2436,-1.2644,-1.2762,-1.2762,-1.2989,-1.3315,-1.3423,-1.3753,-1.3975,-1.4196,-1.4191,-1.4196,-1.4196,-1.4191,-1.4083,-1.4191,-1.4299,-1.4401,-1.4606,-1.5351,-1.6217,-1.5917,-1.5602,-1.5999,-1.6228,-1.6303,-1.6157,-1.5518,-0.3684,-0.3604,-0.3682,-0.3606,-0.3612,-0.3955,-0.3976,-0.379,-0.3486,-0.3206,-0.2955,-0.269,-0.2512,-0.2244,-0.2064,-0.1974,-0.2155,-0.1974,-0.1974,-0.2155,-0.2064,-0.2064,-0.2064,-0.1974,-0.1885,-0.1974,-0.2064,-0.2064,-0.1974,-0.1885,-0.2064,-0.2064,-0.2065,-0.2252,-0.2175,-0.2199,-0.2117,-0.2144,-0.2341,-0.2634,-0.2951,-0.3068,-0.3079,-0.2983,-0.3106,-0.3234,-0.3259,-0.3278,-0.3339,-0.3553,-0.3849,-0.4043,-0.4162,-0.4534,-0.4818,-0.5029,-0.5033,-0.5338,-0.5641,-0.578,-0.5689,-0.5602,-0.563,-0.5765,-0.5846,-0.6251,-0.6455,-0.6573,-0.6592,-0.703,-0.7486,-0.7917,-0.837,-0.9014,-0.9365,-0.9677,-0.9824,-0.9715,-0.9742,-0.969,-0.9869,-0.9798,-0.9859,-1.0136,-1.0662,-1.1207,-1.1531,-1.1918,-1.2149,-1.2413,-1.254,-1.2767,-1.3098,-1.3207,-1.3413,-1.3644,-1.3735,-1.3746,-1.4019,-1.4196,-1.4083,-1.3932,-1.3856,-1.3856,-1.418,-1.4498,-1.4922,-1.5244,-1.5024,-1.4877,-1.5178,-1.5321,-1.531,-1.4889,-1.4374,-0.3503,-0.3372,-0.3372,-0.3215,-0.3141,-0.3608,-0.3628,-0.3453,-0.3144,-0.2938,-0.2686,-0.2513,-0.2244,-0.2064,-0.1795,-0.1705,-0.1885,-0.1795,-0.1705,-0.1885,-0.1795,-0.1795,-0.1795,-0.1795,-0.1705,-0.1705,-0.1795,-0.1795,-0.1705,-0.1795,-0.1974,-0.2064,-0.2244,-0.2336,-0.2339,-0.2436,-0.2534,-0.2562,-0.2661,-0.267,-0.2884,-0.3001,-0.3018,-0.3025,-0.314,-0.3168,-0.3167,-0.3127,-0.3161,-0.3291,-0.3587,-0.3966,-0.41,-0.4357,-0.4738,-0.4843,-0.4939,-0.5132,-0.5225,-0.5321,-0.5223,-0.5036,-0.5187,-0.5432,-0.5534,-0.5859,-0.6057,-0.6253,-0.6537,-0.6983,-0.7462,-0.7785,-0.834,-0.887,-0.9183,-0.9484,-0.9546,-0.9542,-0.9484,-0.9429,-0.929,-0.9219,-0.9096,-0.9489,-0.9976,-1.0408,-1.095,-1.1331,-1.1814,-1.2051,-1.228,-1.2495,-1.2685,-1.2733,-1.2921,-1.3107,-1.3223,-1.329,-1.355,-1.3805,-1.373,-1.3454,-1.3542,-1.3619,-1.3932,-1.4148,-1.4169,-1.4283,-1.4234,-1.4137,-1.4202,-1.4207,-1.4169,-1.3851,-1.3532,-0.3224,-0.3134,-0.3061,-0.3061,-0.3061,-0.3061,-0.3063,-0.3028,-0.2844,-0.2728,-0.2508,-0.233,-0.2064,-0.1795,-0.1525,-0.1436,-0.1436,-0.1436,-0.1436,-0.1436,-0.1525,-0.1525,-0.1525,-0.1436,-0.1525,-0.1436,-0.1436,-0.1525,-0.1436,-0.1615,-0.1705,-0.1885,-0.2155,-0.2334,-0.2515,-0.2695,-0.279,-0.28,-0.2804,-0.281,-0.2918,-0.2937,-0.2954,-0.2967,-0.3085,-0.3021,-0.3112,-0.317,-0.3239,-0.3427,-0.3798,-0.3979,-0.4189,-0.443,-0.4555,-0.4672,-0.4873,-0.4884,-0.4797,-0.4995,-0.4988,-0.4833,-0.4826,-0.5092,-0.5418,-0.5703,-0.6009,-0.6326,-0.6739,-0.7135,-0.7553,-0.8058,-0.8471,-0.8803,-0.9003,-0.9257,-0.9349,-0.9399,-0.9351,-0.9305,-0.9164,-0.9046,-0.8779,-0.9082,-0.9508,-0.9987,-1.0494,-1.0975,-1.1453,-1.1754,-1.1973,-1.1978,-1.2154,-1.2309,-1.2408,-1.2685,-1.282,-1.288,-1.2934,-1.3164,-1.3005,-1.3077,-1.3012,-1.3189,-1.3628,-1.3751,-1.3539,-1.3555,-1.3725,-1.3628,-1.3347,-1.347,-1.3455,-1.3403,-1.3202,-0.3192,-0.2988,-0.2884,-0.2824,-0.2668,-0.2668,-0.2797,-0.2883,-0.282,-0.2621,-0.2372,-0.2319,-0.2054,-0.1795,-0.1525,-0.1433,-0.1433,-0.1436,-0.1436,-0.1433,-0.1425,-0.1432,-0.1433,-0.143,-0.1433,-0.1433,-0.1432,-0.1429,-0.1434,-0.1524,-0.1795,-0.2064,-0.2244,-0.2424,-0.2604,-0.2785,-0.2875,-0.2875,-0.2875,-0.2964,-0.2875,-0.2987,-0.2906,-0.2917,-0.2925,-0.2955,-0.3056,-0.3113,-0.3284,-0.3408,-0.3783,-0.4062,-0.407,-0.4422,-0.4573,-0.4668,-0.4763,-0.4953,-0.4761,-0.4851,-0.4933,-0.483,-0.4714,-0.4869,-0.5205,-0.5632,-0.5955,-0.6391,-0.693,-0.7437,-0.7836,-0.8333,-0.8531,-0.8733,-0.9031,-0.9271,-0.9249,-0.8959,-0.8903,-0.869,-0.8656,-0.8539,-0.8377,-0.8748,-0.9265,-0.9602,-1.0051,-1.0615,-1.1024,-1.1434,-1.1694,-1.1699,-1.1713,-1.1885,-1.2064,-1.224,-1.2353,-1.2462,-1.2495,-1.248,-1.259,-1.2655,-1.2576,-1.2641,-1.2951,-1.2805,-1.2392,-1.2556,-1.276,-1.2556,-1.2297,-1.2491,-1.2641,-1.2651,-1.2567,-0.2972,-0.2877,-0.2768,-0.2643,-0.2508,-0.251,-0.2534,-0.2662,-0.267,-0.2636,-0.2491,-0.2347,-0.2187,-0.2008,-0.1745,-0.1571,-0.1484,-0.1395,-0.1395,-0.1395,-0.1403,-0.1397,-0.1399,-0.1315,-0.1397,-0.1401,-0.1404,-0.1401,-0.1504,-0.17,-0.1974,-0.2155,-0.2424,-0.2515,-0.2604,-0.2784,-0.2875,-0.2875,-0.2875,-0.2963,-0.2963,-0.2964,-0.2875,-0.2875,-0.2875,-0.2898,-0.3008,-0.3151,-0.3256,-0.3375,-0.3742,-0.4017,-0.4017,-0.4342,-0.4459,-0.4451,-0.4541,-0.4629,-0.4535,-0.4631,-0.4732,-0.4741,-0.4564,-0.4701,-0.5172,-0.5625,-0.5984,-0.6342,-0.7192,-0.7836,-0.8137,-0.8535,-0.8634,-0.8733,-0.9031,-0.9327,-0.8935,-0.8535,-0.8315,-0.8089,-0.8048,-0.7942,-0.8116,-0.8586,-0.9013,-0.9431,-0.9883,-1.0358,-1.0848,-1.1202,-1.1444,-1.1453,-1.1487,-1.1505,-1.1692,-1.173,-1.1793,-1.1856,-1.1807,-1.1927,-1.2156,-1.2138,-1.2064,-1.2005,-1.2062,-1.1925,-1.1902,-1.1624,-1.1671,-1.1484,-1.1358,-1.1299,-1.1525,-1.1654,-1.1686,-0.2738,-0.2705,-0.2718,-0.2607,-0.2499,-0.2506,-0.2433,-0.228,-0.2496,-0.2629,-0.2595,-0.2356,-0.2282,-0.2124,-0.1869,-0.1697,-0.1615,-0.1531,-0.1363,-0.1349,-0.1361,-0.1362,-0.136,-0.135,-0.1364,-0.1355,-0.1355,-0.1544,-0.1564,-0.1849,-0.2048,-0.2239,-0.2425,-0.2604,-0.2604,-0.2785,-0.2957,-0.2936,-0.2942,-0.2946,-0.3048,-0.3053,-0.2875,-0.2875,-0.2875,-0.2879,-0.2967,-0.3051,-0.3226,-0.3408,-0.359,-0.3956,-0.4049,-0.4141,-0.432,-0.4322,-0.443,-0.4342,-0.4346,-0.4346,-0.4334,-0.4324,-0.4304,-0.4552,-0.5023,-0.5509,-0.5968,-0.6577,-0.7334,-0.7898,-0.8312,-0.8568,-0.8747,-0.8623,-0.8698,-0.868,-0.8463,-0.8164,-0.7952,-0.7834,-0.7855,-0.7835,-0.8021,-0.8463,-0.8894,-0.917,-0.9653,-1.0121,-1.0551,-1.096,-1.1124,-1.1246,-1.1316,-1.1354,-1.1335,-1.1454,-1.1293,-1.1349,-1.1363,-1.1411,-1.1654,-1.162,-1.1557,-1.1576,-1.1595,-1.1666,-1.168,-1.1253,-1.1021,-1.0924,-1.0723,-1.0277,-1.0331,-1.0551,-1.0849,-0.2682,-0.2793,-0.2754,-0.2658,-0.2677,-0.257,-0.2507,-0.2431,-0.2525,-0.2485,-0.2376,-0.2332,-0.2266,-0.2258,-0.2089,-0.1839,-0.1674,-0.1666,-0.1513,-0.1426,-0.1341,-0.1418,-0.1344,-0.142,-0.1425,-0.1599,-0.1684,-0.1683,-0.1955,-0.2161,-0.2367,-0.2635,-0.2744,-0.2767,-0.2864,-0.2955,-0.2939,-0.3003,-0.3002,-0.2935,-0.296,-0.2963,-0.2875,-0.2873,-0.2872,-0.2873,-0.3051,-0.3318,-0.3406,-0.3587,-0.3942,-0.4123,-0.4212,-0.43,-0.4297,-0.4297,-0.4297,-0.421,-0.4212,-0.4212,-0.4212,-0.4123,-0.4214,-0.4403,-0.4818,-0.5373,-0.6048,-0.6762,-0.7362,-0.8021,-0.835,-0.8589,-0.8642,-0.8501,-0.8272,-0.814,-0.7914,-0.7808,-0.7702,-0.7689,-0.7784,-0.7875,-0.8048,-0.8339,-0.8733,-0.9029,-0.9403,-0.9793,-1.0156,-1.0591,-1.0849,-1.0997,-1.1203,-1.1227,-1.1194,-1.1194,-1.1194,-1.1194,-1.1222,-1.1255,-1.1283,-1.1231,-1.1283,-1.1326,-1.1326,-1.1425,-1.1248,-1.0852,-1.0549,-1.0418,-0.9936,-0.947,-0.9229,-0.9427,-0.9867,-0.2498,-0.2675,-0.2634,-0.2677,-0.261,-0.2568,-0.2432,-0.2284,-0.2381,-0.2334,-0.2292,-0.2339,-0.2366,-0.2367,-0.2202,-0.2043,-0.188,-0.1794,-0.1709,-0.1632,-0.1559,-0.1549,-0.1553,-0.1559,-0.1548,-0.1634,-0.1652,-0.1824,-0.2161,-0.2284,-0.2487,-0.2835,-0.2959,-0.2987,-0.3092,-0.3184,-0.3096,-0.2996,-0.2989,-0.2922,-0.2864,-0.2854,-0.2837,-0.2834,-0.2856,-0.2955,-0.305,-0.3317,-0.3406,-0.3587,-0.3944,-0.4121,-0.421,-0.4297,-0.4297,-0.4297,-0.43,-0.4212,-0.4123,-0.4123,-0.421,-0.4123,-0.4212,-0.4399,-0.4759,-0.5302,-0.5812,-0.65,-0.7285,-0.7938,-0.7852,-0.7914,-0.7907,-0.7784,-0.7865,-0.7749,-0.7645,-0.7547,-0.7302,-0.7047,-0.7349,-0.7677,-0.7858,-0.816,-0.8554,-0.8855,-0.9189,-0.9444,-0.9859,-1.0157,-1.0504,-1.0756,-1.0955,-1.1161,-1.1194,-1.1194,-1.1194,-1.1194,-1.1049,-1.11,-1.1021,-1.1012,-1.1007,-1.1016,-1.1021,-1.1133,-1.0923,-1.0511,-0.9916,-0.959,-0.9084,-0.8468,-0.8425,-0.84,-0.9007,-0.2254,-0.2449,-0.2582,-0.2608,-0.2613,-0.262,-0.2415,-0.2139,-0.2324,-0.2271,-0.2134,-0.233,-0.2421,-0.2431,-0.2354,-0.2275,-0.2125,-0.1987,-0.1899,-0.1897,-0.1819,-0.183,-0.1828,-0.1818,-0.1823,-0.1753,-0.185,-0.1939,-0.2186,-0.2397,-0.2681,-0.2934,-0.3121,-0.3233,-0.3452,-0.3481,-0.332,-0.3086,-0.3006,-0.3016,-0.2921,-0.2819,-0.2813,-0.2823,-0.2929,-0.3047,-0.3138,-0.3315,-0.3406,-0.3674,-0.3855,-0.4123,-0.421,-0.4297,-0.4297,-0.4297,-0.4297,-0.421,-0.4212,-0.4212,-0.4212,-0.421,-0.43,-0.4478,-0.475,-0.5131,-0.5634,-0.6244,-0.7012,-0.7379,-0.7389,-0.7286,-0.7189,-0.7172,-0.7259,-0.724,-0.7147,-0.715,-0.6977,-0.6709,-0.7116,-0.7632,-0.7926,-0.8229,-0.8436,-0.8741,-0.8938,-0.9212,-0.9477,-0.9837,-1.0084,-1.0453,-1.0796,-1.0908,-1.108,-1.1002,-1.0872,-1.0706,-1.0564,-1.0674,-1.0747,-1.0706,-1.0719,-1.0801,-1.0801,-1.089,-1.0605,-1.0117,-0.9521,-0.8996,-0.8466,-0.8052,-0.794,-0.8017,-0.8412,-0.1957,-0.2313,-0.2445,-0.2544,-0.2553,-0.2597,-0.236,-0.2177,-0.2262,-0.2271,-0.2126,-0.2132,-0.231,-0.2508,-0.251,-0.2349,-0.2183,-0.2111,-0.204,-0.1887,-0.1965,-0.1887,-0.1887,-0.1887,-0.1963,-0.197,-0.2055,-0.2289,-0.2309,-0.2593,-0.2782,-0.2947,-0.317,-0.3303,-0.3457,-0.3474,-0.3391,-0.3249,-0.3161,-0.3155,-0.305,-0.2973,-0.2942,-0.304,-0.313,-0.3318,-0.3497,-0.3676,-0.3765,-0.3944,-0.4034,-0.4212,-0.43,-0.4297,-0.4297,-0.4297,-0.4297,-0.421,-0.421,-0.4212,-0.4212,-0.4123,-0.421,-0.4476,-0.4746,-0.4926,-0.5407,-0.5869,-0.6518,-0.6901,-0.6827,-0.6602,-0.6495,-0.6459,-0.6438,-0.6215,-0.6102,-0.6463,-0.6703,-0.6946,-0.741,-0.7886,-0.8341,-0.8446,-0.845,-0.8743,-0.8657,-0.8926,-0.9041,-0.9444,-0.9781,-1.0127,-1.0407,-1.0618,-1.0731,-1.0469,-1.0274,-1.0207,-1.009,-1.0083,-1.0049,-1.0263,-1.0303,-1.0502,-1.0565,-1.0574,-1.0194,-0.9841,-0.9249,-0.8619,-0.8073,-0.7654,-0.7446,-0.7617,-0.8083]},{"header":{"parameterUnit":"m.s-1","parameterCategory":1,"la1":31.0,"la2":29.5877,"lo1":-88.7671,"lo2":-86.6584,"dy":0.0162,"dx":0.0185,"nx":115,"ny":88,"refTime":"2024-06-10T12:00:00:Z","depth":0,"parameterNumber":3,"parameterNumberName":"V-component_of_WINDS"},"data":[0.0,0.0,0.0,0.0,0.0,0.0,0.0,0.0,0.0,0.0,0.0,0.0,0.0,0.0,0.0,0.0,0.0,0.0,0.0,0.0,0.0,0.0,0.0,0.0,0.0,0.0,0.0,0.0,0.0,0.0,0.0,0.0,0.0,0.0,0.0,0.0,0.0,0.0,0.0,0.0,0.0,0.0,0.0,0.0,0.0,0.0,0.0,0.0,0.0,0.0,0.0,0.0,0.0,0.0,0.0,0.0,0.0,0.0,0.0,0.0,0.0,0.0,0.0,0.0,0.0,0.0,0.0,0.0,0.0,0.0,0.0,0.0,0.0,0.0,0.0,0.0,0.0,0.0,0.0,0.0,0.0,0.0,0.0,0.0,0.0,0.0,0.0,0.0,0.0,0.0,0.0,0.0,0.0,0.0,0.0,0.0,0.0,0.0,0.0,0.0,0.0,0.0,0.0,0.0,0.0,0.0,0.0,0.0,0.0,0.0,0.0,0.0,0.0,0.0,0.0,0.0,0.0,0.0,0.0,0.0,0.0,0.0,0.0,0.0,0.0,0.0,0.0,0.0,0.0,0.0,0.0,0.0,0.0,0.0,0.0,0.0,0.0,0.0,0.0,0.0,0.0,0.0,0.0,0.0,0.0,0.0,0.0,0.0,0.0,0.0,0.0,0.0,0.0,0.0,0.0,0.0,0.0,0.0,0.0,0.0,0.0,0.0,0.0,0.0,0.0,0.0,0.0,0.0,0.0,0.0,0.0,0.0,0.0,0.0,0.0,0.0,0.0,0.0,0.0,0.0,0.0,0.0,0.0,0.0,0.0,0.0,0.0,0.0,0.0,0.0,0.0,0.0,0.0,0.0,0.0,0.0,0.0,0.0,0.0,0.0,0.0,0.0,0.0,0.0,0.0,0.0,0.0,0.0,0.0,0.0,0.0,0.0,0.0,0.0,0.0,0.0,0.0,0.0,0.0,0.0,0.0,0.0,0.0,0.0,0.0,0.0,0.0,0.0,0.0,0.0,0.0,0.0,0.0,0.0,0.0,0.0,0.0,0.0,0.0,0.0,0.0,0.0,0.0,0.0,0.0,0.0,0.0,0.0,0.0,0.0,0.0,0.0,0.0,0.0,0.0,0.0,0.0,0.0,0.0,0.0,0.0,0.0,0.0,0.0,0.0,0.0,0.0,0.0,0.0,0.0,0.0,0.0,0.0,0.0,0.0,0.0,0.0,0.0,0.0,0.0,0.0,0.0,0.0,0.0,0.0,0.0,0.0,0.0,0.0,0.0,0.0,0.0,0.0,0.0,0.0,0.0,0.0,0.0,0.0,0.0,0.0,0.0,0.0,0.0,0.0,0.0,0.0,0.0,0.0,0.0,0.0,0.0,0.0,0.0,0.0,0.0,0.0,0.0,0.0,0.0,0.0,0.0,0.0,0.0,0.0,0.0,0.0,0.0,0.0,0.0,0.0,0.0,0.0,0.0,0.0,0.0,0.0,0.0,0.0,0.0,0.0,0.0,0.0,0.0,0.0,0.0,0.0,0.0,0.0,0.0,0.0,0.0,0.0,0.0,0.0,0.0,0.0,0.0,0.0,0.0,0.0,0.0,0.0,0.0,0.0,0.0,0.0,0.0,0.0,0.0,0.0,0.0,0.0,0.0,0.0,0.0,0.0,0.0,0.0,0.0,0.0,0.0,0.0,0.0,0.0,0.0,0.0,0.0,0.0,0.0,0.0,0.0,0.0,0.0,0.0,0.0,0.0,0.0,0.0,0.0,0.0,0.0,0.0,0.0,0.0,0.0,0.0,0.0,0.0,0.0,0.0,0.0,0.0,0.0,0.0,0.0,0.0,0.0,0.0,0.0,0.0,0.0,0.0,0.0,0.0,0.0,0.0,0.0,0.0,0.0,0.0,0.0,0.0,0.0,0.0,0.0,0.0,0.0,0.0,0.0,0.0,0.0,0.0,0.0,0.0,0.0,0.0,0.0,0.0,0.0,0.0,0.0,0.0,0.0,0.0,0.0,0.0,0.0,0.0,0.0,0.0,0.0,0.0,0.0,0.0,0.0,0.0,0.0,0.0,0.0,0.0,0.0,0.0,0.0,0.0,0.0,0.0,0.0,0.0,0.0,0.0,0.0,0.0,0.0,0.0,0.0,0.0,0.0,0.0,0.0,0.0,0.0,0.0,0.0,0.0,0.0,0.0,0.0,0.0,0.0,0.0,0.0,0.0,0.0,0.0,0.0,0.0,0.0,0.0,0.0,0.0,0.0,0.0,0.0,0.0,0.0,0.0,0.0,0.0,0.0,0.0,0.0,0.0,0.0,0.0,0.0,0.0,0.0,0.0,0.0,0.0,0.0,0.0,0.0,0.0,0.0,0.0,0.0,0.0,0.0,0.0,0.0,0.0,0.0,0.0,0.0,0.0,0.0,0.0,0.0,0.0,0.0,0.0,0.0,0.0,0.0,0.0,0.0,0.0,0.0,0.0,0.0,0.0,0.0,0.0,0.0,0.0,0.0,0.0,0.0,0.0,0.0,0.0,0.0,0.0,0.0,0.0,0.0,0.0,0.0,0.0,0.0,0.0,0.0,0.0,0.0,0.0,0.0,0.0,0.0,0.0,0.0,0.0,0.0,0.0,0.0,0.0,0.0,0.0,0.0,0.0,0.0,0.0,0.0,0.0,0.0,0.0,0.0,0.0,0.0,0.0,0.0,0.0,0.0,0.0,0.0,0.0,0.0,0.0,0.0,0.0,0.0,0.0,0.0,0.0,0.0,0.0,0.0,0.0,0.0,0.0,0.0,0.0,0.0,0.0,0.0,0.0,0.0,0.0,0.0,0.0,0.0,0.0,0.0,0.0,0.0,0.0,0.0,0.0,0.0,0.0,0.0,0.0,0.0,0.0,0.0,0.0,0.0,0.0,0.0,0.0,0.0,0.0,0.0,0.0,0.0,0.0,0.0,0.0,0.0,0.0,0.0,0.0,0.0,0.0,0.0,0.0,0.0,0.0,0.0,0.0,0.0,0.0,0.0,0.0,0.0,0.0,0.0,0.0,0.0,0.0,0.0,0.0,0.0,0.0,0.0,0.0,0.0,0.0,0.0,0.0,0.0,0.0,0.0,0.0,0.0,0.0,0.0,0.0,0.0,0.0,0.0,0.0,0.0,0.0,0.0,0.0,0.0,0.0,0.0,0.0,0.0,0.0,0.0,0.0,0.0,0.0,0.0,0.0,0.0,0.0,0.0,0.0,0.0,0.0,0.0,0.0,0.0,0.0,0.0,0.0,0.0,0.0,0.0,0.0,0.0,0.0,0.0,0.0,0.0,0.0,0.0,0.0,0.0,0.0,0.0,0.0,0.0,0.0,0.0,0.0,0.0,0.0,0.0,0.0,0.0,0.0,0.0,0.0,0.0,0.0,0.0,0.0,0.0,0.0,0.0,0.0,0.0,0.0,0.0,0.0,0.0,0.0,0.0,0.0,0.0,0.0,0.0,0.0,0.0,0.0,0.0,0.0,0.0,0.0,0.0,0.0,0.0,0.0,0.0,0.0,0.0,0.0,0.0,0.0,0.0,0.0,0.0,0.0,0.0,0.0,0.0,0.0,0.0,0.0,0.0,0.0,0.0,0.0,0.0,0.0,0.0,0.0,0.0,0.0,0.0,0.0,0.0,0.0,0.0,0.0,0.0,0.0,0.0,0.0,0.0,0.0,0.0,0.0,0.0,0.0,0.0,0.0,0.0,0.0,0.0,0.0,0.0,0.0,0.0,0.0,0.0,0.0,0.0,0.0,0.0,0.0,0.0,0.0,0.0,0.0,0.0,0.0,0.0,0.0,0.0,0.0,0.0,0.0,0.0,0.0,0.0,0.0,0.0,0.0,0.0,0.0,0.0,0.0,0.0,0.0,0.0,0.0,0.0,0.0,0.0,0.0,0.0,0.0,0.0,0.0,0.0,0.0,0.0,0.0,0.0,0.0,0.0,0.0,0.0,0.0,0.0,0.0,0.0,0.0,0.0,0.0,0.0,0.0,0.0,0.0,0.0,0.0,0.0,0.0,0.0,0.0,0.0,0.0,0.0,0.0,0.0,0.0,0.0,0.0,0.0,0.0,0.0,0.0,0.0,0.0,0.0,0.0,0.0,0.0,0.0,0.0,0.0,0.0,0.0,0.0,0.0,0.0,0.0,0.0,0.0,0.0,0.0,0.0,0.0,0.0,0.0,0.0,0.0,0.0,0.0,0.0,0.0,0.0,0.0,0.0,0.0,0.0,0.0,0.0,0.0,-1.1404,0.0,0.0,0.0,0.0,0.0,0.0,0.0,0.0,0.0,0.0,0.0,0.0,0.0,0.0,0.0,0.0,0.0,0.0,0.0,0.0,0.0,0.0,0.0,0.0,0.0,0.0,0.0,0.0,0.0,0.0,0.0,0.0,0.0,0.0,0.0,0.0,0.0,0.0,0.0,0.0,0.0,0.0,0.0,0.0,0.0,0.0,0.0,0.0,0.0,0.0,0.0,0.0,0.0,0.0,0.0,0.0,0.0,0.0,0.0,0.0,0.0,0.0,0.0,0.0,0.0,0.0,0.0,0.0,0.0,0.0,0.0,0.0,0.0,0.0,0.0,0.0,0.0,0.0,0.0,0.0,0.0,0.0,0.0,0.0,0.0,0.0,0.0,0.0,0.0,0.0,0.0,0.0,0.0,0.0,0.0,0.0,0.0,0.0,0.0,0.0,0.0,0.0,0.0,0.0,0.0,0.0,0.0,0.0,0.0,0.0,-1.2006,-1.2174,-1.2029,-1.1982,-1.209,0.0,0.0,0.0,0.0,0.0,0.0,0.0,0.0,0.0,0.0,0.0,0.0,0.0,0.0,0.0,0.0,0.0,0.0,0.0,0.0,0.0,0.0,0.0,0.0,0.0,0.0,0.0,0.0,0.0,0.0,0.0,0.0,0.0,0.0,0.0,0.0,0.0,0.0,0.0,0.0,0.0,0.0,0.0,0.0,0.0,0.0,0.0,0.0,0.0,0.0,0.0,0.0,0.0,0.0,0.0,0.0,0.0,0.0,0.0,0.0,0.0,0.0,0.0,0.0,0.0,0.0,0.0,0.0,0.0,0.0,0.0,0.0,0.0,0.0,0.0,0.0,0.0,0.0,0.0,0.0,0.0,0.0,0.0,0.0,0.0,0.0,0.0,0.0,0.0,0.0,0.0,0.0,0.0,0.0,0.0,0.0,0.0,0.0,0.0,0.0,0.0,0.0,0.0,0.0,0.0,0.0,0.0,0.0,0.0,0.0,0.0,0.0,-1.2756,-1.2673,-1.2743,0.0,0.0,0.0,0.0,0.0,0.0,0.0,0.0,0.0,0.0,0.0,0.0,0.0,0.0,0.0,0.0,0.0,0.0,0.0,0.0,0.0,0.0,0.0,0.0,0.0,0.0,0.0,0.0,0.0,0.0,0.0,0.0,0.0,0.0,0.0,0.0,0.0,0.0,0.0,0.0,0.0,0.0,0.0,0.0,0.0,0.0,0.0,0.0,0.0,0.0,0.0,0.0,0.0,0.0,0.0,0.0,0.0,0.0,0.0,0.0,0.0,0.0,0.0,0.0,0.0,0.0,0.0,0.0,0.0,0.0,0.0,0.0,0.0,0.0,0.0,0.0,0.0,0.0,0.0,0.0,0.0,0.0,0.0,0.0,0.0,0.0,0.0,0.0,0.0,0.0,0.0,0.0,0.0,0.0,0.0,0.0,0.0,0.0,0.0,0.0,0.0,0.0,0.0,0.0,0.0,0.0,0.0,0.0,0.0,0.0,-1.3927,-1.3446,-1.3251,0.0,-1.3216,0.0,0.0,0.0,0.0,0.0,0.0,0.0,0.0,0.0,0.0,0.0,0.0,0.0,0.0,0.0,0.0,0.0,0.0,0.0,0.0,0.0,0.0,0.0,0.0,0.0,0.0,0.0,0.0,0.0,0.0,0.0,0.0,0.0,0.0,0.0,0.0,0.0,0.0,0.0,0.0,0.0,0.0,0.0,0.0,0.0,0.0,0.0,0.0,0.0,0.0,0.0,0.0,0.0,0.0,0.0,0.0,0.0,0.0,0.0,0.0,0.0,0.0,0.0,0.0,0.0,0.0,0.0,0.0,0.0,0.0,0.0,0.0,0.0,0.0,0.0,0.0,0.0,0.0,0.0,0.0,0.0,0.0,0.0,0.0,0.0,0.0,0.0,0.0,0.0,0.0,0.0,0.0,0.0,0.0,0.0,0.0,0.0,0.0,0.0,0.0,0.0,0.0,0.0,0.0,0.0,0.0,0.0,0.0,0.0,0.0,-1.4774,-1.4571,-1.4414,-1.4256,0.0,0.0,0.0,0.0,0.0,0.0,0.0,0.0,0.0,0.0,0.0,0.0,0.0,0.0,0.0,0.0,0.0,0.0,0.0,0.0,0.0,0.0,0.0,0.0,0.0,0.0,0.0,0.0,0.0,0.0,0.0,0.0,0.0,0.0,0.0,0.0,0.0,0.0,0.0,0.0,0.0,0.0,0.0,0.0,0.0,0.0,0.0,0.0,0.0,0.0,0.0,0.0,0.0,0.0,0.0,0.0,0.0,0.0,0.0,0.0,0.0,0.0,0.0,0.0,0.0,0.0,0.0,0.0,0.0,0.0,0.0,0.0,0.0,0.0,0.0,0.0,0.0,0.0,0.0,0.0,0.0,0.0,0.0,0.0,0.0,0.0,0.0,0.0,0.0,0.0,0.0,0.0,0.0,0.0,0.0,0.0,0.0,0.0,0.0,0.0,0.0,0.0,0.0,0.0,0.0,0.0,0.0,0.0,0.0,0.0,-1.5918,-1.5634,-1.559,-1.549,-1.536,-1.5168,0.0,0.0,0.0,0.0,0.0,0.0,0.0,0.0,0.0,0.0,0.0,0.0,0.0,0.0,0.0,0.0,0.0,0.0,0.0,0.0,0.0,0.0,0.0,0.0,0.0,0.0,0.0,0.0,0.0,0.0,0.0,0.0,0.0,0.0,0.0,0.0,0.0,0.0,0.0,0.0,0.0,0.0,0.0,0.0,0.0,0.0,0.0,0.0,0.0,0.0,0.0,0.0,0.0,0.0,0.0,0.0,0.0,0.0,0.0,0.0,0.0,0.0,0.0,0.0,0.0,0.0,0.0,0.0,0.0,0.0,0.0,0.0,0.0,0.0,0.0,0.0,0.0,0.0,0.0,0.0,0.0,0.0,0.0,0.0,0.0,0.0,0.0,0.0,0.0,0.0,0.0,0.0,0.0,0.0,0.0,0.0,0.0,0.0,0.0,0.0,0.0,0.0,0.0,0.0,0.0,0.0,0.0,0.0,-1.702,-1.6722,-1.6475,-1.638,-1.6297,-1.618,0.0,0.0,0.0,0.0,0.0,0.0,0.0,0.0,0.0,0.0,0.0,0.0,0.0,0.0,0.0,0.0,0.0,0.0,0.0,0.0,0.0,0.0,0.0,0.0,0.0,0.0,0.0,0.0,0.0,0.0,0.0,0.0,0.0,0.0,0.0,0.0,0.0,0.0,0.0,0.0,0.0,0.0,0.0,0.0,0.0,0.0,0.0,0.0,0.0,0.0,0.0,0.0,0.0,0.0,0.0,0.0,0.0,0.0,0.0,0.0,0.0,0.0,0.0,0.0,0.0,0.0,0.0,0.0,0.0,0.0,0.0,0.0,0.0,0.0,0.0,0.0,0.0,0.0,0.0,0.0,0.0,0.0,0.0,0.0,0.0,0.0,0.0,0.0,0.0,0.0,0.0,0.0,0.0,0.0,0.0,0.0,0.0,0.0,0.0,0.0,0.0,0.0,0.0,0.0,0.0,0.0,0.0,0.0,0.0,-1.7151,-1.7209,-1.738,-1.7605,-1.7541,-1.7453,0.0,0.0,0.0,0.0,0.0,0.0,0.0,0.0,0.0,0.0,0.0,0.0,0.0,0.0,0.0,0.0,0.0,0.0,0.0,0.0,0.0,0.0,0.0,0.0,0.0,0.0,0.0,0.0,0.0,0.0,0.0,0.0,0.0,0.0,0.0,0.0,0.0,0.0,0.0,0.0,0.0,0.0,0.0,0.0,0.0,0.0,0.0,0.0,0.0,0.0,0.0,0.0,0.0,0.0,0.0,0.0,0.0,0.0,0.0,0.0,0.0,0.0,0.0,0.0,0.0,0.0,0.0,0.0,0.0,0.0,0.0,0.0,0.0,0.0,0.0,0.0,0.0,0.0,0.0,0.0,0.0,0.0,0.0,0.0,0.0,0.0,0.0,0.0,0.0,0.0,0.0,0.0,0.0,0.0,0.0,0.0,0.0,0.0,0.0,0.0,0.0,0.0,0.0,0.0,0.0,0.0,0.0,0.0,0.0,-1.522,0.0,-1.6523,-1.7452,-1.7644,-1.7852,0.0,0.0,0.0,0.0,0.0,0.0,0.0,0.0,0.0,0.0,0.0,0.0,0.0,0.0,0.0,0.0,0.0,0.0,0.0,0.0,0.0,0.0,0.0,0.0,0.0,0.0,0.0,0.0,0.0,0.0,0.0,0.0,0.0,0.0,0.0,0.0,0.0,0.0,0.0,0.0,0.0,0.0,0.0,0.0,0.0,0.0,0.0,0.0,0.0,0.0,0.0,0.0,0.0,0.0,0.0,0.0,0.0,0.0,0.0,0.0,0.0,0.0,0.0,0.0,0.0,0.0,0.0,0.0,0.0,0.0,0.0,0.0,0.0,0.0,0.0,0.0,0.0,0.0,0.0,0.0,0.0,0.0,0.0,0.0,0.0,0.0,0.0,0.0,0.0,0.0,0.0,0.0,0.0,0.0,0.0,0.0,0.0,0.0,0.0,0.0,0.0,0.0,0.0,0.0,0.0,0.0,0.0,0.0,-1.2322,-1.1198,-1.2358,-1.3996,-1.5734,-1.6493,-1.7319,0.0,0.0,0.0,0.0,0.0,0.0,0.0,0.0,0.0,0.0,0.0,0.0,0.0,0.0,0.0,0.0,0.0,0.0,0.0,0.0,0.0,0.0,0.0,0.0,0.0,0.0,0.0,0.0,0.0,0.0,0.0,0.0,0.0,0.0,0.0,0.0,0.0,0.0,0.0,0.0,0.0,0.0,0.0,0.0,0.0,0.0,0.0,0.0,0.0,0.0,0.0,0.0,0.0,0.0,0.0,0.0,0.0,0.0,0.0,0.0,0.0,0.0,0.0,0.0,0.0,0.0,0.0,0.0,0.0,0.0,0.0,0.0,0.0,0.0,0.0,0.0,0.0,0.0,0.0,0.0,0.0,0.0,0.0,0.0,0.0,0.0,0.0,0.0,0.0,0.0,0.0,0.0,0.0,0.0,0.0,0.0,0.0,0.0,0.0,0.0,0.0,0.0,0.0,0.0,0.0,0.0,0.0,0.0,0.0,-1.1366,-1.2349,-1.3589,-1.5208,-1.6395,-1.7385,0.0,0.0,0.0,0.0,0.0,0.0,0.0,0.0,0.0,0.0,0.0,0.0,0.0,0.0,0.0,0.0,0.0,0.0,0.0,0.0,0.0,0.0,0.0,0.0,0.0,0.0,0.0,0.0,0.0,0.0,0.0,0.0,0.0,0.0,0.0,0.0,0.0,0.0,0.0,0.0,0.0,0.0,0.0,0.0,0.0,0.0,0.0,0.0,0.0,0.0,0.0,0.0,0.0,0.0,0.0,0.0,0.0,0.0,0.0,0.0,0.0,0.0,0.0,0.0,0.0,0.0,0.0,0.0,0.0,0.0,0.0,0.0,0.0,0.0,0.0,0.0,0.0,0.0,0.0,0.0,0.0,0.0,0.0,0.0,0.0,0.0,0.0,0.0,0.0,0.0,0.0,0.0,0.0,0.0,0.0,0.0,0.0,0.0,0.0,0.0,0.0,0.0,0.0,0.0,0.0,0.0,0.0,0.0,0.0,-0.9412,-1.0725,-1.2537,-1.5069,-1.657,-1.771,-1.8432,0.0,0.0,0.0,0.0,0.0,0.0,0.0,0.0,0.0,0.0,0.0,0.0,0.0,0.0,0.0,0.0,0.0,0.0,0.0,0.0,0.0,0.0,0.0,0.0,0.0,0.0,0.0,0.0,0.0,0.0,0.0,0.0,0.0,0.0,0.0,0.0,0.0,0.0,0.0,0.0,0.0,0.0,0.0,0.0,0.0,0.0,0.0,0.0,0.0,0.0,0.0,0.0,0.0,0.0,0.0,0.0,0.0,0.0,0.0,0.0,0.0,0.0,0.0,0.0,0.0,0.0,0.0,0.0,0.0,0.0,0.0,0.0,0.0,0.0,0.0,0.0,0.0,0.0,0.0,0.0,0.0,0.0,0.0,0.0,0.0,0.0,0.0,0.0,0.0,0.0,0.0,0.0,0.0,0.0,0.0,0.0,0.0,0.0,0.0,0.0,0.0,0.0,0.0,0.0,0.0,0.0,0.0,0.0,-0.6071,-0.8131,-1.1126,-1.505,-1.6823,-1.8143,0.0,0.0,0.0,0.0,0.0,0.0,0.0,0.0,0.0,0.0,0.0,0.0,0.0,0.0,0.0,0.0,0.0,0.0,0.0,0.0,0.0,0.0,0.0,0.0,0.0,0.0,0.0,0.0,0.0,0.0,0.0,0.0,0.0,0.0,0.0,0.0,0.0,0.0,0.0,0.0,0.0,0.0,0.0,0.0,0.0,0.0,0.0,0.0,0.0,0.0,0.0,0.0,0.0,0.0,0.0,0.0,0.0,0.0,0.0,0.0,0.0,0.0,0.0,0.0,0.0,0.0,0.0,0.0,0.0,0.0,0.0,0.0,0.0,0.0,0.0,0.0,0.0,0.0,0.0,0.0,0.0,0.0,0.0,0.0,0.0,0.0,0.0,0.0,0.0,0.0,0.0,0.0,0.0,0.0,0.0,0.0,0.0,0.0,0.0,0.0,0.0,0.0,0.0,0.0,0.0,0.0,0.0,0.0,0.0,-0.7352,-1.071,-1.3005,-1.3979,-1.5832,-1.7508,0.0,0.0,0.0,0.0,0.0,0.0,0.0,0.0,0.0,0.0,0.0,0.0,0.0,0.0,0.0,0.0,0.0,0.0,0.0,0.0,0.0,0.0,0.0,0.0,0.0,0.0,0.0,0.0,0.0,0.0,0.0,0.0,0.0,0.0,0.0,0.0,0.0,0.0,0.0,0.0,0.0,0.0,0.0,0.0,0.0,0.0,0.0,0.0,0.0,0.0,0.0,0.0,0.0,0.0,0.0,0.0,0.0,0.0,0.0,0.0,0.0,0.0,0.0,0.0,0.0,0.0,0.0,0.0,0.0,0.0,0.0,0.0,0.0,0.0,0.0,0.0,0.0,0.0,0.0,0.0,0.0,0.0,0.0,0.0,0.0,0.0,0.0,0.0,0.0,0.0,0.0,0.0,0.0,0.0,0.0,0.0,0.0,0.0,0.0,0.0,0.0,0.0,0.0,0.0,0.0,0.0,0.0,0.0,-0.6688,-0.7734,-1.2344,-1.4875,-1.5029,-1.691,-1.8529,0.0,0.0,0.0,0.0,0.0,0.0,0.0,0.0,0.0,0.0,0.0,0.0,0.0,0.0,0.0,0.0,0.0,0.0,0.0,0.0,0.0,0.0,0.0,0.0,0.0,0.0,0.0,0.0,0.0,0.0,0.0,0.0,0.0,0.0,0.0,0.0,0.0,0.0,0.0,0.0,0.0,0.0,0.0,0.0,0.0,0.0,0.0,0.0,0.0,0.0,0.0,0.0,0.0,0.0,0.0,0.0,0.0,0.0,0.0,0.0,0.0,0.0,0.0,0.0,0.0,0.0,0.0,0.0,0.0,0.0,0.0,0.0,0.0,0.0,0.0,0.0,0.0,0.0,0.0,0.0,0.0,0.0,0.0,0.0,0.0,0.0,0.0,0.0,0.0,0.0,0.0,0.0,0.0,0.0,0.0,0.0,0.0,0.0,0.0,0.0,0.0,0.0,0.0,0.0,0.0,0.0,0.0,0.0,-0.8248,-0.8026,-1.3382,-1.6582,-1.7298,-1.8933,-2.0208,0.0,0.0,0.0,0.0,0.0,0.0,0.0,0.0,0.0,0.0,0.0,0.0,0.0,0.0,0.0,0.0,0.0,0.0,0.0,0.0,0.0,0.0,0.0,0.0,0.0,0.0,0.0,0.0,0.0,0.0,0.0,0.0,0.0,0.0,0.0,0.0,0.0,0.0,0.0,0.0,0.0,0.0,0.0,0.0,0.0,0.0,0.0,0.0,0.0,0.0,0.0,0.0,0.0,0.0,0.0,0.0,0.0,0.0,0.0,0.0,0.0,0.0,0.0,0.0,0.0,0.0,0.0,0.0,0.0,0.0,0.0,0.0,0.0,0.0,0.0,0.0,0.0,0.0,0.0,0.0,0.0,0.0,0.0,0.0,0.0,0.0,0.0,0.0,0.0,0.0,0.0,0.0,0.0,0.0,0.0,0.0,0.0,0.0,0.0,0.0,0.0,0.0,0.0,0.0,0.0,0.0,0.0,0.0,-0.8737,-1.0312,-1.4377,-1.7156,-1.8545,-1.8847,-1.9733,0.0,0.0,0.0,0.0,0.0,0.0,0.0,0.0,0.0,0.0,0.0,0.0,0.0,0.0,0.0,0.0,0.0,0.0,0.0,0.0,0.0,0.0,0.0,0.0,0.0,0.0,0.0,0.0,0.0,0.0,0.0,0.0,0.0,0.0,0.0,0.0,0.0,0.0,0.0,0.0,0.0,0.0,0.0,0.0,0.0,0.0,0.0,0.0,-2.8935,0.0,0.0,0.0,0.0,0.0,0.0,0.0,0.0,0.0,0.0,0.0,0.0,0.0,0.0,0.0,0.0,0.0,0.0,0.0,0.0,0.0,0.0,0.0,0.0,0.0,0.0,0.0,0.0,0.0,0.0,0.0,0.0,0.0,0.0,0.0,0.0,0.0,0.0,0.0,0.0,0.0,0.0,0.0,0.0,0.0,0.0,0.0,0.0,0.0,0.0,0.0,0.0,0.0,0.0,0.0,0.0,0.0,0.0,0.0,-0.8803,-1.1361,-1.4675,-1.7142,-1.8688,-1.9386,-2.0382,0.0,0.0,0.0,0.0,0.0,0.0,0.0,0.0,0.0,0.0,0.0,0.0,0.0,0.0,0.0,0.0,0.0,0.0,0.0,0.0,0.0,0.0,0.0,0.0,0.0,0.0,0.0,0.0,0.0,0.0,0.0,0.0,0.0,0.0,0.0,0.0,0.0,0.0,0.0,0.0,0.0,0.0,0.0,0.0,0.0,0.0,0.0,0.0,0.0,0.0,0.0,0.0,0.0,0.0,0.0,0.0,0.0,0.0,0.0,0.0,0.0,0.0,0.0,0.0,0.0,0.0,0.0,0.0,0.0,0.0,0.0,0.0,0.0,0.0,0.0,0.0,0.0,0.0,0.0,0.0,0.0,0.0,0.0,0.0,0.0,0.0,0.0,0.0,0.0,0.0,0.0,0.0,0.0,0.0,0.0,0.0,0.0,0.0,0.0,0.0,0.0,0.0,0.0,0.0,0.0,0.0,0.0,-0.7048,-0.9074,-1.2399,-1.4955,-1.7102,-1.8717,-2.0276,-2.1447,-2.2262,0.0,0.0,0.0,0.0,0.0,0.0,0.0,0.0,0.0,0.0,0.0,0.0,0.0,0.0,0.0,0.0,0.0,0.0,0.0,0.0,0.0,0.0,0.0,0.0,0.0,0.0,0.0,0.0,0.0,0.0,0.0,0.0,0.0,0.0,0.0,0.0,0.0,0.0,-2.6675,-2.573,0.0,0.0,0.0,0.0,0.0,0.0,0.0,0.0,-2.8581,0.0,0.0,0.0,0.0,0.0,0.0,0.0,0.0,0.0,0.0,0.0,0.0,0.0,0.0,0.0,0.0,0.0,0.0,0.0,0.0,0.0,0.0,0.0,0.0,0.0,0.0,0.0,0.0,0.0,0.0,0.0,0.0,0.0,0.0,0.0,0.0,0.0,0.0,0.0,0.0,0.0,0.0,0.0,0.0,0.0,0.0,0.0,0.0,0.0,0.0,0.0,0.0,0.0,0.0,0.0,0.0,-0.8838,-0.8707,-1.0851,-1.5332,-1.6282,-1.7745,-1.9908,-2.1182,-2.2233,-2.3041,0.0,0.0,0.0,0.0,0.0,0.0,0.0,0.0,0.0,0.0,0.0,0.0,0.0,0.0,0.0,0.0,0.0,0.0,0.0,0.0,0.0,0.0,0.0,0.0,0.0,0.0,0.0,0.0,0.0,0.0,0.0,0.0,0.0,0.0,0.0,0.0,0.0,0.0,0.0,-2.4742,-2.4073,0.0,0.0,0.0,0.0,0.0,0.0,0.0,0.0,-2.9759,0.0,0.0,0.0,0.0,0.0,0.0,0.0,0.0,0.0,0.0,0.0,0.0,0.0,0.0,0.0,0.0,0.0,0.0,0.0,0.0,0.0,0.0,0.0,0.0,0.0,0.0,0.0,0.0,0.0,0.0,0.0,0.0,0.0,0.0,0.0,0.0,0.0,0.0,0.0,0.0,0.0,0.0,0.0,0.0,0.0,0.0,0.0,0.0,0.0,0.0,0.0,0.0,0.0,0.0,0.0,-0.9145,-0.9804,-1.2079,-1.6049,-1.6844,-1.8191,-2.0324,-2.1272,-2.2223,0.0,0.0,0.0,0.0,0.0,0.0,0.0,0.0,0.0,0.0,0.0,0.0,0.0,0.0,0.0,0.0,0.0,0.0,0.0,0.0,0.0,0.0,0.0,0.0,0.0,0.0,0.0,0.0,0.0,0.0,0.0,0.0,0.0,0.0,0.0,0.0,0.0,0.0,0.0,0.0,-2.4581,-2.4055,-2.4284,0.0,0.0,0.0,0.0,0.0,0.0,-2.9405,-2.9956,0.0,0.0,0.0,0.0,0.0,0.0,0.0,0.0,0.0,0.0,0.0,0.0,0.0,0.0,0.0,0.0,0.0,0.0,0.0,0.0,0.0,0.0,0.0,0.0,0.0,0.0,0.0,0.0,0.0,0.0,0.0,0.0,0.0,0.0,0.0,0.0,0.0,0.0,0.0,0.0,0.0,0.0,0.0,0.0,0.0,0.0,0.0,0.0,0.0,0.0,0.0,0.0,0.0,0.0,0.0,-0.944,-1.0976,-1.3266,-1.62,-1.73,-1.8701,-2.0576,-2.1362,-2.2262,0.0,0.0,0.0,0.0,0.0,0.0,0.0,0.0,0.0,0.0,0.0,0.0,0.0,0.0,0.0,0.0,0.0,0.0,0.0,0.0,0.0,0.0,0.0,0.0,0.0,0.0,0.0,0.0,0.0,0.0,0.0,0.0,0.0,0.0,0.0,0.0,0.0,0.0,0.0,0.0,0.0,-2.4459,-2.479,-2.5911,0.0,0.0,0.0,0.0,-2.9672,-3.0263,0.0,0.0,0.0,0.0,0.0,0.0,0.0,0.0,0.0,0.0,0.0,0.0,0.0,0.0,0.0,0.0,0.0,0.0,0.0,0.0,0.0,0.0,0.0,0.0,0.0,0.0,0.0,0.0,0.0,0.0,0.0,0.0,0.0,0.0,0.0,0.0,0.0,0.0,0.0,0.0,0.0,0.0,0.0,0.0,0.0,0.0,0.0,0.0,0.0,0.0,0.0,0.0,0.0,0.0,0.0,0.0,-1.0976,-1.2751,-1.4716,-1.676,-1.8192,-1.9598,-2.0977,-2.1762,-2.2994,0.0,0.0,0.0,0.0,0.0,0.0,0.0,0.0,0.0,0.0,0.0,0.0,0.0,0.0,0.0,0.0,0.0,0.0,0.0,0.0,0.0,0.0,0.0,0.0,0.0,0.0,0.0,0.0,0.0,0.0,0.0,0.0,0.0,0.0,0.0,0.0,0.0,0.0,0.0,0.0,0.0,-2.5061,-2.5428,-2.624,-2.6952,0.0,0.0,-3.0093,-3.0512,-3.2278,0.0,0.0,0.0,0.0,0.0,0.0,0.0,0.0,0.0,0.0,0.0,0.0,0.0,0.0,0.0,0.0,0.0,0.0,0.0,0.0,0.0,0.0,0.0,0.0,0.0,0.0,0.0,0.0,0.0,0.0,0.0,0.0,0.0,0.0,0.0,0.0,0.0,0.0,0.0,0.0,0.0,0.0,0.0,0.0,0.0,0.0,0.0,0.0,0.0,0.0,0.0,0.0,0.0,0.0,0.0,-1.2464,-1.2434,-1.4653,-1.6514,-1.7927,-1.8975,-2.0339,-2.2113,-2.214,-2.3103,0.0,0.0,0.0,0.0,0.0,0.0,0.0,0.0,0.0,0.0,0.0,0.0,0.0,0.0,0.0,0.0,0.0,0.0,0.0,0.0,0.0,0.0,0.0,0.0,0.0,0.0,0.0,0.0,0.0,0.0,0.0,0.0,0.0,0.0,0.0,0.0,0.0,0.0,0.0,0.0,0.0,0.0,-2.6365,-2.8109,0.0,0.0,0.0,-3.2409,-3.2184,0.0,0.0,0.0,0.0,0.0,0.0,0.0,0.0,0.0,0.0,0.0,0.0,0.0,0.0,0.0,0.0,0.0,0.0,0.0,0.0,0.0,0.0,0.0,0.0,0.0,0.0,0.0,0.0,0.0,0.0,0.0,0.0,0.0,0.0,0.0,0.0,0.0,0.0,0.0,0.0,0.0,0.0,0.0,0.0,0.0,0.0,0.0,0.0,0.0,0.0,0.0,0.0,0.0,0.0,0.0,0.0,0.0,-1.3996,-1.6427,-1.8214,-1.9196,-2.002,-2.1372,-2.3224,-2.308,0.0,0.0,0.0,0.0,0.0,0.0,0.0,0.0,0.0,0.0,0.0,0.0,0.0,0.0,0.0,0.0,0.0,0.0,0.0,0.0,0.0,0.0,0.0,0.0,0.0,0.0,0.0,-3.3107,0.0,0.0,0.0,0.0,0.0,0.0,0.0,0.0,0.0,0.0,0.0,0.0,0.0,0.0,-2.9352,-2.7895,-3.0174,-3.1969,0.0,0.0,-3.4218,-3.3888,-3.4344,-3.4566,0.0,0.0,0.0,0.0,0.0,0.0,0.0,0.0,0.0,0.0,0.0,0.0,0.0,0.0,0.0,0.0,0.0,0.0,0.0,0.0,0.0,0.0,0.0,0.0,0.0,0.0,0.0,0.0,0.0,0.0,0.0,0.0,0.0,0.0,0.0,0.0,0.0,0.0,0.0,0.0,0.0,0.0,0.0,0.0,0.0,0.0,0.0,0.0,0.0,0.0,0.0,0.0,0.0,0.0,-1.6281,-1.5986,-1.8061,-1.9517,-2.0316,-2.1584,-2.2852,-2.4164,-2.4905,-2.5705,0.0,0.0,0.0,0.0,0.0,0.0,0.0,0.0,0.0,0.0,0.0,0.0,0.0,0.0,0.0,0.0,0.0,0.0,0.0,0.0,0.0,0.0,0.0,0.0,0.0,0.0,0.0,0.0,0.0,0.0,0.0,0.0,0.0,0.0,0.0,0.0,0.0,0.0,0.0,0.0,0.0,-3.1138,-3.0583,-3.1968,-3.3141,0.0,-3.3936,-3.4582,-3.5259,-3.6186,-3.6915,-3.7209,0.0,0.0,0.0,0.0,0.0,0.0,0.0,0.0,0.0,0.0,0.0,0.0,0.0,0.0,0.0,0.0,0.0,0.0,0.0,0.0,0.0,0.0,0.0,0.0,0.0,0.0,0.0,0.0,0.0,0.0,0.0,0.0,0.0,0.0,0.0,0.0,0.0,0.0,0.0,0.0,0.0,0.0,0.0,0.0,0.0,0.0,0.0,0.0,0.0,0.0,0.0,0.0,0.0,-1.8814,-1.7983,-1.968,-2.095,-2.1681,-2.2755,-2.3967,-2.5331,-2.6104,-2.691,0.0,0.0,0.0,0.0,0.0,0.0,0.0,0.0,0.0,0.0,0.0,0.0,0.0,0.0,0.0,0.0,0.0,0.0,0.0,0.0,0.0,0.0,0.0,0.0,0.0,0.0,0.0,0.0,-3.2155,-3.1524,-3.2983,0.0,0.0,0.0,0.0,0.0,0.0,0.0,0.0,0.0,0.0,-3.3705,-3.3012,-3.4618,0.0,0.0,-3.6612,-3.7419,-3.7592,-3.7896,-3.812,-3.8114,-3.8387,0.0,0.0,0.0,0.0,0.0,0.0,0.0,0.0,0.0,0.0,0.0,0.0,0.0,0.0,0.0,0.0,0.0,0.0,0.0,0.0,0.0,0.0,0.0,0.0,0.0,0.0,0.0,0.0,0.0,0.0,0.0,0.0,0.0,0.0,0.0,0.0,0.0,0.0,0.0,0.0,0.0,0.0,0.0,0.0,0.0,0.0,0.0,0.0,0.0,0.0,0.0,0.0,-2.0697,-1.9847,-2.1411,-2.2611,-2.3443,-2.4341,-2.5428,-2.6729,-2.739,-2.8046,0.0,0.0,0.0,0.0,0.0,0.0,0.0,0.0,0.0,0.0,0.0,0.0,0.0,0.0,0.0,0.0,0.0,0.0,0.0,0.0,0.0,0.0,0.0,0.0,0.0,0.0,0.0,0.0,-3.3286,-3.2773,-3.3507,0.0,0.0,0.0,0.0,0.0,0.0,0.0,0.0,0.0,0.0,-3.6028,-3.5218,-3.6717,-3.777,-3.7577,-3.8352,-3.8929,-3.8861,-3.8847,-3.8807,-3.8741,0.0,0.0,0.0,0.0,0.0,0.0,0.0,0.0,0.0,0.0,0.0,0.0,0.0,0.0,0.0,0.0,0.0,0.0,0.0,0.0,0.0,0.0,0.0,0.0,0.0,0.0,0.0,-2.5575,0.0,0.0,-2.4963,0.0,0.0,0.0,0.0,0.0,0.0,0.0,0.0,0.0,0.0,0.0,0.0,0.0,0.0,0.0,0.0,0.0,0.0,0.0,0.0,0.0,0.0,-2.165,-2.16,-2.3303,-2.4632,-2.5597,-2.6412,-2.7375,-2.8474,-2.886,-2.9246,-2.9733,0.0,0.0,0.0,0.0,0.0,0.0,0.0,0.0,0.0,0.0,0.0,0.0,0.0,0.0,0.0,0.0,0.0,0.0,0.0,0.0,0.0,0.0,0.0,0.0,0.0,0.0,-3.5082,-3.5882,-3.5898,0.0,0.0,0.0,0.0,0.0,0.0,0.0,0.0,0.0,-3.5712,-3.7124,-3.7871,-3.7105,-3.7848,-3.8609,-3.8774,-3.8504,-3.8477,-3.8903,-3.8985,-3.8989,0.0,0.0,0.0,0.0,0.0,0.0,0.0,0.0,0.0,0.0,0.0,0.0,0.0,0.0,0.0,0.0,0.0,0.0,0.0,0.0,0.0,0.0,0.0,0.0,0.0,0.0,0.0,-2.3967,-2.43,0.0,0.0,0.0,0.0,0.0,0.0,0.0,0.0,0.0,0.0,0.0,-2.6325,-2.7098,0.0,0.0,0.0,0.0,0.0,0.0,0.0,0.0,0.0,0.0,0.0,0.0,-2.5083,-2.4863,-2.5746,-2.6419,-2.6824,-2.7636,-2.8571,-2.9711,-3.0467,-3.1472,-3.2724,0.0,0.0,0.0,0.0,0.0,0.0,0.0,0.0,0.0,0.0,0.0,0.0,0.0,0.0,0.0,0.0,0.0,0.0,0.0,0.0,0.0,0.0,0.0,0.0,0.0,-3.6376,0.0,0.0,0.0,0.0,0.0,0.0,0.0,0.0,0.0,0.0,-3.785,-3.8124,-3.8275,-3.8824,-3.9295,-3.9266,-3.9938,-4.0379,0.0,0.0,0.0,0.0,0.0,0.0,0.0,0.0,0.0,0.0,0.0,0.0,0.0,0.0,-4.3234,-4.2585,-4.2593,-4.2671,-4.2686,0.0,0.0,0.0,0.0,0.0,0.0,0.0,0.0,0.0,0.0,0.0,0.0,0.0,0.0,-2.4787,-2.4918,-2.51,0.0,0.0,0.0,0.0,0.0,0.0,0.0,0.0,-2.7431,-2.8123,-2.8359,-2.9235,-2.9807,-3.0029,-3.0156,-3.0026,0.0,0.0,0.0,0.0,0.0,0.0,0.0,0.0,-2.7243,-2.6887,-2.765,-2.8152,-2.8266,-2.9179,-3.0084,-3.0891,-3.1926,-3.3076,-3.4321,-3.4835,-3.5273,0.0,0.0,0.0,0.0,0.0,0.0,0.0,0.0,0.0,0.0,0.0,0.0,0.0,0.0,0.0,0.0,0.0,0.0,0.0,0.0,0.0,0.0,0.0,-3.6922,0.0,0.0,0.0,0.0,0.0,0.0,0.0,0.0,0.0,-3.8916,-3.94,-3.9884,-4.0124,-4.0334,-4.0427,-4.0502,0.0,0.0,0.0,0.0,0.0,0.0,0.0,-4.2209,-4.235,-4.2936,-4.365,-4.4264,-4.487,-4.5319,-4.5537,0.0,0.0,-4.4086,-4.4018,-4.4113,-4.4113,-4.4524,-4.4905,-4.4905,-4.5251,-4.5545,0.0,0.0,0.0,0.0,-2.8951,0.0,0.0,0.0,-2.7872,-2.7611,0.0,-2.7547,0.0,0.0,0.0,0.0,-2.7802,-2.818,0.0,0.0,-2.9733,-3.0603,-3.0744,-3.1974,-3.2757,-3.295,-3.3081,-3.3081,-3.285,-3.0924,0.0,0.0,0.0,0.0,0.0,0.0,-2.8211,-2.8013,-2.9152,-2.9794,-2.9956,-3.1182,-3.1934,-3.211,-3.3199,-3.4054,-3.4574,-3.4976,-3.5312,-3.5728,-3.6055,0.0,0.0,0.0,0.0,0.0,0.0,0.0,0.0,0.0,0.0,0.0,0.0,0.0,0.0,0.0,0.0,0.0,0.0,0.0,0.0,-3.8259,0.0,0.0,0.0,0.0,0.0,0.0,0.0,0.0,0.0,-4.0493,-4.0016,-4.0715,-4.1294,-4.1385,0.0,0.0,0.0,0.0,-4.2074,-4.2167,-4.2576,-4.3048,-4.3326,-4.356,-4.3632,-4.3632,0.0,0.0,-4.5642,-4.5807,-4.5934,-4.6052,-4.6194,-4.6037,-4.5889,-4.5716,-4.5671,-4.5686,-4.5864,-4.5991,-4.6006,-4.6016,-4.6146,-3.3089,0.0,0.0,0.0,0.0,-2.9015,-2.8845,-2.9589,-2.929,-2.892,-2.8611,-2.8834,0.0,0.0,0.0,0.0,0.0,0.0,-3.0312,-3.0826,-3.1461,-3.1841,-3.2073,-3.3262,-3.3879,-3.4001,-3.4726,-3.5067,-3.4996,-3.4878,-3.3681,-3.1513,0.0,0.0,0.0,0.0,-3.17,-3.17,-3.2109,-3.2391,-3.2507,-3.274,-3.3296,-3.4182,-3.5313,-3.609,-3.6474,-3.6899,-3.7535,-3.8331,-3.8144,0.0,0.0,0.0,0.0,0.0,0.0,0.0,0.0,0.0,0.0,0.0,0.0,0.0,0.0,0.0,0.0,0.0,0.0,0.0,-3.9951,-3.9631,-3.9496,0.0,0.0,0.0,0.0,0.0,0.0,0.0,0.0,0.0,-4.3614,-4.265,-4.2212,0.0,0.0,-4.2796,-4.3175,-4.3759,-4.4118,-4.4156,-4.4571,0.0,-4.4744,-4.4857,-4.4956,-4.5054,-4.5928,-4.6743,-4.7228,-4.7471,-4.7638,-4.8019,-4.7968,-4.7968,-4.8314,-4.7073,-4.6118,-4.6284,-4.6651,-4.6905,-4.6936,-4.7599,-4.8163,-3.4046,-3.2737,-3.2155,-3.202,-3.2074,-3.0701,-3.0494,-3.0975,-3.0911,-3.0639,-3.021,-3.0746,-3.0502,-2.9747,-2.9839,0.0,0.0,0.0,-3.201,-3.2353,-3.2961,-3.3461,-3.3867,-3.4685,-3.5299,-3.5664,-3.6299,-3.6593,-3.6581,-3.7022,-3.6363,-3.4747,0.0,-3.4191,-3.3885,-3.3878,-3.405,-3.4449,-3.4243,-3.4326,-3.4751,-3.4933,-3.5531,-3.655,-3.7434,-3.802,-3.8312,-3.8708,-3.9262,-3.9924,-3.9818,-4.0001,0.0,0.0,0.0,0.0,0.0,0.0,0.0,0.0,0.0,0.0,0.0,-4.1829,-4.2414,0.0,0.0,0.0,-4.1513,-4.0884,-4.0771,-4.0934,0.0,0.0,0.0,0.0,0.0,0.0,0.0,-4.3562,-4.4772,-4.5847,-4.6239,-4.5366,-4.4742,-4.5126,-4.478,-4.4563,-4.495,0.0,-4.5913,-4.5845,-4.6222,-4.6539,-4.6373,-4.6388,-4.6501,-4.6683,-4.725,-4.7797,-4.8194,-4.8453,-4.8785,-4.9015,-4.9113,-4.9259,-4.9821,-4.8637,-4.7549,-4.7789,-4.81,-4.8314,-4.8314,-4.901,-4.9437,-3.4804,-3.4076,-3.4287,-3.4125,-3.3702,-3.3177,-3.277,-3.2451,-3.2793,-3.2576,-3.2112,-3.2967,-3.3028,-3.2512,-3.2554,0.0,-3.2172,-3.3157,-3.3388,-3.3079,-3.443,-3.5283,-3.571,-3.6305,-3.6949,-3.7601,-3.7799,-3.7864,-3.7864,-3.7881,-3.7864,-3.7896,-3.7492,-3.682,-3.5898,-3.554,-3.571,-3.6388,-3.5794,-3.5901,-3.6676,-3.7428,-3.8122,-3.8808,-3.9287,-3.9615,-3.9815,-4.0218,-4.0564,-4.0813,-4.106,-4.1222,-4.1328,0.0,0.0,0.0,0.0,0.0,0.0,0.0,0.0,0.0,0.0,0.0,0.0,0.0,0.0,0.0,-4.3146,0.0,-4.2227,-4.2416,0.0,0.0,0.0,-4.4507,-4.559,-4.5835,-4.6222,-4.6952,0.0,0.0,-4.8205,-4.8307,-4.8249,-4.8222,-4.7325,-4.6634,-4.6264,-4.6956,-4.7354,-4.7256,-4.7661,-4.8057,-4.7935,-4.7966,-4.8034,-4.8232,-4.837,-4.8521,-4.8687,-4.9031,-4.9356,-4.9421,-4.9677,-5.0073,-5.0432,-5.0167,-4.9916,-4.9694,-4.9725,-4.9821,-4.9789,-4.99,-4.9916,-3.7207,-3.7044,-3.6098,-3.5095,-3.4081,-3.4302,-3.4316,-3.4288,-3.473,-3.4564,-3.403,-3.4468,-3.412,-3.3156,-3.3154,-3.3154,-3.3108,-3.4349,-3.492,-3.5003,-3.5975,-3.6521,-3.672,-3.7653,-3.8171,-3.8388,-3.9059,-3.9362,-3.9362,-3.9463,-3.9546,-3.9546,-3.9737,-3.9003,-3.7445,-3.753,-3.7755,-3.8033,-3.7992,-3.8122,-3.8425,-3.8667,-3.8975,-3.94,-3.9757,-4.0009,-4.0179,-4.0546,-4.1012,-4.163,-4.1401,-4.1606,-4.2297,-4.1822,0.0,0.0,0.0,0.0,0.0,0.0,0.0,0.0,0.0,-4.3904,-4.4798,0.0,-4.4443,0.0,-4.444,-4.4947,-4.5828,-4.5771,0.0,0.0,-4.6753,-4.7261,-4.7461,-4.8815,-4.9555,-4.8935,-4.9205,-4.9705,-5.0211,-5.0017,-5.0245,-5.1273,-4.9377,-4.7947,-4.8395,-4.8612,-4.8752,-4.8767,-4.8988,-4.9081,-4.9015,-4.8934,-4.9031,-4.9275,-4.9259,-4.9356,-4.9582,-4.9677,-4.9821,-5.0136,-5.0292,-5.0525,-5.094,-5.094,-5.0864,-5.0788,-5.0308,-4.9916,-4.9916,-5.0136,-5.0292,-3.7758,-3.7201,-3.6672,-3.5968,-3.5232,-3.5652,-3.5544,-3.5143,-3.6083,-3.6023,-3.5214,-3.555,-3.5321,-3.4723,-3.4725,-3.4708,-3.474,-3.5522,-3.5932,-3.6051,-3.6615,-3.7114,-3.7463,-3.81,-3.8569,-3.8954,-3.9493,-4.0017,-4.0268,-4.0578,-4.0883,-4.124,-4.1593,-4.1248,-4.0263,-3.952,-3.9403,-3.9857,-4.0339,-4.0787,-4.1218,-4.1016,-4.1153,-4.1783,-4.1823,-4.2075,-4.2495,-4.2505,-4.272,-4.3156,-4.268,-4.2654,-4.3212,-4.3206,-4.3182,0.0,0.0,0.0,0.0,0.0,0.0,0.0,0.0,0.0,0.0,0.0,-4.6413,-4.6212,-4.6637,-4.7219,-4.7945,-4.8396,-4.8751,-4.8919,-4.9811,-5.0377,-5.0455,-5.1468,-5.1922,-5.1437,-5.1698,-5.2021,-5.2303,-5.2183,-5.2347,-5.3291,-5.1908,-5.0622,-5.0336,-5.0167,-5.0026,-4.9995,-5.001,-4.9995,-4.9821,-5.0089,-5.0263,-5.0058,-4.9979,-5.0058,-5.0152,-5.0292,-5.0509,-5.0739,-5.0908,-5.1135,-5.1408,-5.1483,-5.1483,-5.1392,-5.1092,-5.0695,-5.0557,-5.0618,-5.0771,-3.7481,-3.6222,-3.66,-3.6677,-3.6693,-3.7016,-3.6585,-3.5571,-3.706,-3.7132,-3.6133,-3.6362,-3.6507,-3.6486,-3.6409,-3.6377,-3.6356,-3.658,-3.6665,-3.6665,-3.7025,-3.7524,-3.817,-3.8344,-3.8728,-3.9432,-3.9677,-4.0117,-4.0738,-4.1239,-4.1852,-4.2569,-4.2894,-4.3114,-4.3128,-4.1476,-4.0934,-4.1705,-4.2524,-4.3311,-4.4127,-4.3598,-4.3764,-4.4603,-4.4363,-4.4563,-4.5276,-4.5002,-4.4821,-4.4801,-4.4386,-4.4184,-4.423,-4.5013,-4.5403,0.0,-4.5968,0.0,0.0,0.0,0.0,0.0,0.0,0.0,0.0,-4.8826,-4.9109,-4.91,-4.9288,-4.9543,-4.9695,-5.0732,-5.1625,-5.2049,-5.2751,-5.3338,-5.3576,-5.372,-5.3813,-5.4056,-5.4007,-5.4088,-5.4195,-5.4158,-5.4154,-5.4262,-5.3988,-5.3248,-5.2224,-5.1589,-5.1253,-5.1177,-5.0944,-5.0666,-5.0778,-5.1179,-5.1259,-5.073,-5.0602,-5.0602,-5.0679,-5.0984,-5.1194,-5.121,-5.145,-5.1778,-5.1778,-5.1778,-5.1778,-5.1778,-5.1704,-5.1631,-5.1333,-5.1258,-5.1258,-3.8154,-3.7357,-3.7154,-3.7175,-3.7285,-3.8033,-3.7872,-3.6995,-3.7531,-3.7732,-3.7713,-3.7316,-3.7151,-3.7227,-3.671,-3.6519,-3.6656,-3.7245,-3.7576,-3.7593,-3.8257,-3.8784,-3.9129,-3.9304,-3.9595,-3.9918,-4.0087,-4.0323,-4.0542,-4.1338,-4.178,-4.1984,-4.2933,-4.3343,-4.3294,0.0,0.0,0.0,-4.3524,-4.3913,-4.4387,-4.4464,-4.4701,-4.517,-4.5204,0.0,-4.5547,-4.5718,-4.5736,-4.5627,-4.5835,0.0,0.0,0.0,0.0,0.0,0.0,0.0,0.0,0.0,0.0,0.0,-4.9299,-4.9753,-4.9113,-4.9712,-5.045,-5.1213,-5.1654,-5.2419,-5.348,-5.3736,-5.383,-5.3883,-5.4474,-5.4919,-5.4884,-5.5289,-5.5617,-5.5482,-5.515,-5.4904,-5.4861,-5.462,-5.4355,-5.4381,-5.4216,-5.3951,-5.3433,-5.2732,-5.2447,-5.2581,-5.1867,-5.1512,-5.2048,-5.162,-5.1426,-5.1258,-5.1333,-5.1408,-5.154,-5.1614,-5.1688,-5.1688,-5.1778,-5.1778,-5.1778,-5.1778,-5.1851,-5.1778,-5.1778,-5.1778,-5.1704,-5.1557,-5.1499,-3.8165,-3.7559,-3.748,-3.7531,0.0,-3.8211,-3.8264,-3.8017,-3.8227,-3.827,-3.8205,-3.8019,-3.8007,-3.803,-3.7834,-3.7793,-3.7847,-3.8401,-3.8636,-3.8636,-3.9143,-3.9398,-3.9556,-3.9729,-3.9901,-3.9986,-4.0188,-4.0542,-4.1049,-4.1705,-4.2469,-4.336,-4.4017,-4.4511,-4.4944,-4.5217,-4.5134,-4.47,-4.4774,-4.5178,-4.5809,-4.5677,-4.5864,-4.6549,-4.6285,0.0,0.0,0.0,0.0,0.0,0.0,0.0,0.0,0.0,0.0,-4.722,-4.7979,-4.8394,-4.833,-4.9533,-5.0238,-5.0114,-5.1175,-5.1471,-5.0566,-5.1723,-5.2663,-5.3015,-5.399,-5.4858,-5.5456,-5.5776,-5.588,-5.5779,-5.6021,-5.615,-5.6044,-5.6277,-5.6365,-5.6162,-5.5901,-5.5746,-5.5455,-5.5174,-5.5104,-5.5338,-5.5075,-5.4939,-5.4986,-5.3833,-5.2942,-5.2726,-5.2629,-5.2458,-5.2531,-5.2573,-5.2236,-5.2241,-5.2197,-5.2197,-5.234,-5.234,-5.234,-5.234,-5.234,-5.234,-5.234,-5.2357,-5.2357,-5.234,-5.2269,-5.2197,-5.2214,-5.1924,-5.1647,-3.7997,-3.7535,-3.7748,-3.7921,-3.8059,-3.8157,-3.8399,-3.8672,-3.8892,0.0,0.0,-3.8544,-3.8672,-3.8727,-3.8985,-3.9131,-3.9185,-3.9415,-3.9606,-3.9606,-3.9746,-3.9781,-3.9833,-3.9935,-4.0054,-4.0104,-4.0355,-4.0827,-4.1557,-4.2037,-4.3036,-4.4445,-4.4859,-4.5505,-4.6389,-4.6613,-4.6429,-4.6015,-4.6052,-4.648,-4.7281,-4.685,-4.7052,-4.7925,-4.7411,-4.7569,-4.8439,-4.796,-4.7733,-4.7936,-4.7341,-4.7034,-4.7143,-4.7828,-4.8245,-4.8348,-4.966,-5.0549,-5.0665,-5.1551,-5.2161,-5.2357,-5.2944,-5.3082,-5.2467,-5.4013,-5.4935,-5.4759,-5.6053,-5.6804,-5.6664,-5.7085,-5.7338,-5.7188,-5.7072,-5.6969,-5.6899,-5.6809,-5.6704,-5.6528,-5.6383,-5.6273,-5.5993,-5.5724,-5.5701,-5.6107,-5.5713,-5.5662,-5.5916,-5.4651,-5.3429,-5.3027,-5.3173,-5.3257,-5.3165,-5.3231,-5.3415,-5.2934,-5.292,-5.2972,-5.292,-5.2903,-5.2903,-5.2834,-5.2903,-5.2903,-5.2903,-5.2834,-5.2903,-5.2903,-5.2764,-5.2624,-5.2624,-5.2285,-5.1924,-3.8503,-3.8026,-3.8365,-3.8492,-3.8511,-3.8623,-3.875,-3.875,-3.8809,-3.8792,-3.875,-3.8876,-3.9056,-3.9218,-3.9395,-3.9537,-3.9798,-3.9798,-3.9884,-4.0037,-4.002,-4.0188,-4.037,-4.0419,-4.0583,-4.0905,-4.0953,-4.1128,-4.147,-4.2172,-4.2794,-4.3223,-4.3885,-4.4809,-4.5855,-4.6595,-4.6998,-4.7079,-4.6999,-4.716,-4.7468,-4.7702,-4.7944,-4.813,-4.8329,-4.8476,-4.8587,-4.8813,-4.8844,-4.8672,-4.8833,-4.8888,-4.8875,-4.9001,-4.9458,-5.0228,-5.0592,-5.1005,-5.1668,-5.2559,-5.3367,-5.3977,-5.4146,-5.4399,-5.4783,-5.5696,-5.636,-5.6676,-5.7405,-5.7831,-5.7485,-5.7431,-5.7388,-5.7239,-5.7206,-5.7138,-5.7138,-5.7065,-5.6927,-5.6776,-5.6546,-5.6346,-5.6235,-5.5993,-5.5742,-5.5536,-5.5418,-5.5139,-5.4879,-5.4764,-5.4635,-5.4227,-5.3907,-5.3873,-5.4024,-5.372,-5.3415,-5.2937,-5.311,-5.3179,-5.3041,-5.3179,-5.3179,-5.2972,-5.3127,-5.311,-5.2972,-5.2903,-5.2903,-5.2903,-5.2903,-5.285,-5.2834,-5.2624,-5.2357,-3.8602,-3.8511,-3.8635,-3.8778,-3.886,-3.9094,-3.9185,-3.9309,-3.9292,-3.9131,-3.8898,-3.9148,-3.9325,-3.9448,-3.9694,-3.9901,-4.0037,-4.0138,-4.0255,-4.032,-4.032,-4.0387,-4.0468,-4.0566,-4.0745,-4.0982,-4.1047,-4.1215,-4.1415,-4.1928,-4.2476,-4.3032,-4.3988,-4.4777,-4.5387,-4.6139,-4.6677,-4.6928,-4.7284,-4.7524,-4.7652,-4.798,-4.8208,-4.8361,-4.8569,-4.8695,-4.8802,-4.8974,-4.9113,-4.9164,-4.9262,-4.9514,-4.9996,-5.0046,-5.0485,-5.1393,-5.1939,-5.2397,-5.2755,-5.3648,-5.4321,-5.4648,-5.4686,-5.5169,-5.6297,-5.6462,-5.6722,-5.736,-5.8029,-5.8338,-5.8097,-5.796,-5.7849,-5.7745,-5.7674,-5.7595,-5.7553,-5.7492,-5.7377,-5.717,-5.6933,-5.6794,-5.6653,-5.6328,-5.6011,-5.5746,-5.5514,-5.5079,-5.4665,-5.4805,-5.4789,-5.4326,-5.3988,-5.402,-5.4243,-5.4039,-5.3717,-5.3617,-5.3683,-5.3749,-5.3766,-5.3849,-5.3849,-5.3766,-5.3717,-5.3584,-5.3517,-5.3332,-5.3264,-5.3212,-5.3127,-5.3127,-5.3041,-5.2903,-5.264,-3.8778,-3.8969,-3.8974,-3.9082,-3.9185,-3.9415,-3.9642,-3.9729,-3.9764,-3.9609,-3.9276,-3.9484,-3.9606,-3.9711,-3.9986,-4.0171,-4.0271,-4.0419,-4.0566,-4.0566,-4.0583,-4.0631,-4.0648,-4.0745,-4.084,-4.1012,-4.1169,-4.1353,-4.1498,-4.1805,-4.2321,-4.307,-4.4091,-4.4713,-4.4872,-4.5647,-4.6278,-4.6686,-4.7265,-4.77,-4.7921,-4.8176,-4.8399,-4.855,-4.8697,-4.8837,-4.9027,-4.9262,-4.9492,-4.9759,-4.984,-5.0215,-5.0898,-5.1005,-5.1412,-5.2316,-5.305,-5.3546,-5.3827,-5.4492,-5.4901,-5.4901,-5.5091,-5.578,-5.7068,-5.7105,-5.7192,-5.7881,-5.8449,-5.8679,-5.8511,-5.8363,-5.8275,-5.816,-5.8024,-5.7902,-5.781,-5.7747,-5.7682,-5.7437,-5.7307,-5.7138,-5.6951,-5.66,-5.629,-5.6067,-5.5631,-5.5199,-5.5035,-5.4948,-5.47,-5.4465,-5.436,-5.4299,-5.4244,-5.4381,-5.4364,-5.4338,-5.4269,-5.435,-5.4431,-5.4494,-5.4494,-5.4431,-5.4303,-5.4175,-5.4127,-5.3932,-5.3734,-5.3618,-5.3534,-5.3382,-5.3179,-5.311,-5.2903,-3.9309,-3.9432,-3.9573,-3.9625,-3.9625,-3.9661,-3.9729,-3.9729,-3.9935,-4.0037,-3.9969,-3.9901,-3.9935,-4.0037,-4.0205,-4.0404,-4.0583,-4.0648,-4.0745,-4.0888,-4.0888,-4.0953,-4.1047,-4.1047,-4.1169,-4.1363,-4.1604,-4.1762,-4.1892,-4.2192,-4.249,-4.2832,-4.3689,-4.4222,-4.4447,-4.5233,-4.6091,-4.6946,-4.7166,-4.7574,-4.8218,-4.8569,-4.8753,-4.8805,-4.9079,-4.9193,-4.9197,-5.0071,-5.0515,-5.0576,-5.1222,-5.1686,-5.1799,-5.1933,-5.2354,-5.322,-5.3414,-5.3846,-5.4644,-5.4844,-5.4901,-5.4958,-5.5583,-5.6379,-5.7308,-5.7919,-5.8471,-5.8859,-5.8949,-5.8865,-5.8553,-5.8406,-5.8301,-5.815,-5.8015,-5.7794,-5.7821,-5.769,-5.7558,-5.7437,-5.7338,-5.7138,-5.7036,-5.6829,-5.6546,-5.6106,-5.5729,-5.5402,-5.5319,-5.5259,-5.5277,-5.5339,-5.539,-5.5179,-5.4845,-5.5288,-5.5219,-5.4678,-5.4603,-5.4665,-5.4665,-5.4683,-5.4665,-5.4683,-5.4603,-5.454,-5.4494,-5.4385,-5.4257,-5.398,-5.3932,-5.3783,-5.3382,-5.3247,-5.3162,-3.9432,-3.9625,-3.9677,-3.9781,-3.9935,-4.0037,-4.0087,-4.0188,-4.0271,-4.0337,-4.0337,-4.0355,-4.0337,-4.0337,-4.0485,-4.06,-4.0697,-4.0858,-4.0935,-4.1047,-4.1215,-4.1272,-4.1198,-4.1436,-4.1613,-4.1701,-4.1941,-4.211,-4.2292,-4.2494,-4.2711,-4.2994,-4.3413,-4.367,-4.3889,-4.4656,-4.5315,-4.5827,-4.6873,-4.7588,-4.802,-4.8544,-4.8896,-4.8999,-4.9179,-4.9308,-4.9351,-5.0241,-5.0754,-5.0798,-5.1557,-5.2316,-5.2787,-5.2856,-5.3296,-5.4113,-5.43,-5.4492,-5.4882,-5.4901,-5.4901,-5.4901,-5.5223,-5.5981,-5.7251,-5.7662,-5.8249,-5.93,-5.9383,-5.9158,-5.8825,-5.8725,-5.86,-5.8388,-5.8238,-5.8168,-5.8042,-5.7978,-5.7914,-5.7792,-5.7649,-5.7504,-5.7356,-5.7036,-5.6635,-5.6273,-5.6032,-5.5957,-5.5918,-5.5844,-5.5804,-5.591,-5.6122,-5.5968,-5.5383,-5.5401,-5.5471,-5.5339,-5.5217,-5.5277,-5.5217,-5.5234,-5.5234,-5.5131,-5.4992,-5.4913,-5.4807,-5.4637,-5.4448,-5.4303,-5.4303,-5.4257,-5.398,-5.3898,-5.3766,-3.9237,-3.941,-3.968,-3.9986,-4.0171,-4.0337,-4.0485,-4.0566,-4.0662,-4.071,-4.0758,-4.0871,-4.0918,-4.0823,-4.084,-4.084,-4.0871,-4.1012,-4.1169,-4.1261,-4.1488,-4.156,-4.148,-4.1796,-4.2008,-4.211,-4.2297,-4.2555,-4.2806,-4.2864,-4.3069,-4.3304,-4.3339,-4.3428,-4.3621,-4.4207,-4.4712,-4.516,-4.6546,-4.7426,-4.7868,-4.8598,-4.9064,-4.915,-4.9244,-4.934,-4.939,-5.0303,-5.0929,-5.1186,-5.202,-5.2881,-5.3692,-5.378,-5.4094,-5.4735,-5.4871,-5.4901,-5.4931,-5.4901,-5.4901,-5.495,-5.5102,-5.5849,-5.7081,-5.7548,-5.8259,-5.9458,-5.9564,-5.9328,-5.914,-5.9003,-5.8862,-5.8614,-5.8529,-5.84,-5.8242,-5.8197,-5.8088,-5.7997,-5.7857,-5.7745,-5.7601,-5.7239,-5.6951,-5.6689,-5.6582,-5.6546,-5.651,-5.6365,-5.6255,-5.6346,-5.6603,-5.641,-5.5812,-5.5848,-5.5877,-5.5706,-5.5706,-5.5706,-5.5764,-5.5764,-5.5764,-5.5455,-5.5294,-5.5252,-5.5234,-5.4992,-5.47,-5.4637,-5.4575,-5.4575,-5.4385,-5.435,-5.4222,-3.8656,-3.8807,-3.98,-4.0305,-4.0288,-4.06,-4.071,-4.0802,-4.1036,-4.122,-4.1328,-4.1418,-4.1542,-4.1498,-4.1215,-4.1123,-4.1163,-4.1209,-4.1363,-4.156,-4.1604,-4.1762,-4.2044,-4.2133,-4.2257,-4.2396,-4.2711,-4.3032,-4.341,-4.3444,-4.3566,-4.3771,-4.3719,-4.3753,-4.3804,-4.3971,-4.4419,-4.5157,-4.6233,-4.713,-4.7946,-4.8795,-4.9257,-4.9308,-4.9289,-4.9402,-4.9638,-5.0365,-5.1186,-5.2107,-5.2862,-5.3692,-5.4516,-5.4673,-5.4754,-5.4871,-5.4901,-5.4912,-5.4971,-5.4941,-5.4931,-5.5066,-5.5576,-5.6417,-5.7163,-5.7743,-5.8453,-5.9446,-5.9248,-5.9121,-5.9065,-5.8947,-5.884,-5.8675,-5.8505,-5.8331,-5.8197,-5.8106,-5.7978,-5.7978,-5.7886,-5.7745,-5.7631,-5.7601,-5.7406,-5.7206,-5.7054,-5.6951,-5.6812,-5.6689,-5.6635,-5.6689,-5.676,-5.6564,-5.6085,-5.618,-5.6263,-5.6127,-5.5975,-5.5936,-5.5918,-5.5918,-5.5918,-5.5861,-5.5689,-5.559,-5.5607,-5.549,-5.5252,-5.507,-5.4824,-5.4683,-5.4762,-5.4557,-5.4494,-3.8645,-3.9378,-4.0371,-4.081,-4.0858,-4.1059,-4.1134,-4.1157,-4.0839,-4.0998,-4.1402,-4.1139,-4.1261,-4.1736,-4.1736,-4.1657,-4.1552,-4.1596,-4.1744,-4.1952,-4.2145,-4.2228,-4.2228,-4.2591,-4.2747,-4.2768,-4.3068,-4.3322,-4.3566,-4.3634,-4.3753,-4.3832,-4.3851,-4.3865,-4.3929,-4.4073,-4.4284,-4.4675,-4.609,-4.7042,-4.7466,-4.8807,-4.9582,-4.9574,-4.9495,-4.9563,-4.9663,-5.0466,-5.111,-5.1412,-5.2775,-5.3732,-5.4054,-5.4534,-5.486,-5.496,-5.4931,-5.4912,-5.4971,-5.4971,-5.4971,-5.499,-5.5166,-5.5662,-5.6343,-5.6733,-5.7159,-5.7789,-5.7858,-5.7751,-5.7866,-5.8387,-5.8818,-5.8596,-5.8443,-5.8275,-5.8197,-5.8088,-5.7978,-5.7978,-5.7886,-5.781,-5.7653,-5.7631,-5.7553,-5.7504,-5.7388,-5.7302,-5.7188,-5.7138,-5.7,-5.6951,-5.6899,-5.6847,-5.6582,-5.6543,-5.654,-5.6397,-5.6255,-5.6217,-5.6162,-5.6217,-5.6217,-5.6032,-5.5918,-5.5804,-5.5822,-5.5764,-5.559,-5.5371,-5.5131,-5.5113,-5.5191,-5.4887,-5.4844,-3.8545,-3.9796,-4.0533,-4.0989,-4.1272,-4.1235,-4.1262,-4.1217,-4.0581,-4.0753,-4.135,-4.1038,-4.1292,-4.1973,-4.2187,-4.2228,-4.2068,-4.2044,-4.2127,-4.2292,-4.2534,-4.2613,-4.2688,-4.2994,-4.316,-4.3087,-4.334,-4.3532,-4.3667,-4.3786,-4.3883,-4.3929,-4.3929,-4.3992,-4.4055,-4.4165,-4.4244,-4.4603,-4.6079,-4.7012,-4.7229,-4.8765,-4.972,-4.9692,-4.9663,-4.9692,-4.974,-5.0307,-5.0752,-5.1178,-5.2286,-5.3196,-5.3746,-5.4219,-5.4636,-5.4903,-5.4931,-5.4931,-5.4941,-5.4971,-5.4971,-5.5,-5.4909,-5.5139,-5.5895,-5.5932,-5.6281,-5.6832,-5.692,-5.6778,-5.6874,-5.7564,-5.7999,-5.7775,-5.7666,-5.7556,-5.7442,-5.7316,-5.7189,-5.7134,-5.707,-5.7079,-5.707,-5.6987,-5.6904,-5.6977,-5.693,-5.6872,-5.7079,-5.7073,-5.712,-5.7083,-5.7087,-5.6984,-5.6829,-5.676,-5.6689,-5.6564,-5.6528,-5.6492,-5.6437,-5.6492,-5.6437,-5.6199,-5.6088,-5.6032,-5.5957,-5.5901,-5.5786,-5.5613,-5.559,-5.5514,-5.5426,-5.5209,-5.4892,-3.8274,-3.9753,-4.0149,-4.071,-4.1297,-4.1032,-4.0971,-4.0927,-4.0328,-4.053,-4.1343,-4.133,-4.1686,-4.2462,-4.257,-4.2649,-4.2649,-4.249,-4.2454,-4.2691,-4.2711,-4.2882,-4.3123,-4.3305,-4.3394,-4.3429,-4.3532,-4.3667,-4.3786,-4.3865,-4.3929,-4.3974,-4.4005,-4.4055,-4.4184,-4.4255,-4.4344,-4.4739,-4.6158,-4.7061,-4.721,-4.8786,-4.974,-4.974,-4.9778,-4.9807,-4.9825,-4.9844,-5.0298,-5.1016,-5.1326,-5.214,-5.3517,-5.3841,-5.4126,-5.4722,-5.4863,-5.4901,-5.4901,-5.4912,-5.4941,-5.499,-5.489,-5.507,-5.5656,-5.5753,-5.5973,-5.6485,-5.6587,-5.6554,-5.648,-5.6463,-5.6457,-5.6181,-5.6298,-5.619,-5.5969,-5.5772,-5.5647,-5.5776,-5.5849,-5.5666,-5.5647,-5.5805,-5.5896,-5.5878,-5.5797,-5.5907,-5.6364,-5.635,-5.66,-5.6957,-5.6889,-5.6573,-5.6762,-5.693,-5.6791,-5.6721,-5.6758,-5.676,-5.6707,-5.6707,-5.6653,-5.6474,-5.6365,-5.6237,-5.5677,-5.5603,-5.5514,-5.5419,-5.5578,-5.549,-5.5111,-5.4715,-5.4517,-3.8161,-3.8859,-3.9559,-4.0035,-4.0288,-4.0317,-4.0363,-4.0313,-3.9693,-4.0163,-4.1135,-4.0905,-4.1465,-4.2549,-4.286,-4.2974,-4.2974,-4.2956,-4.2938,-4.2975,-4.3013,-4.3087,-4.325,-4.341,-4.355,-4.3652,-4.3767,-4.3832,-4.3865,-4.3961,-4.3974,-4.4005,-4.4104,-4.4153,-4.4214,-4.4314,-4.4383,-4.4599,-4.6196,-4.7109,-4.7278,-4.8909,-4.9824,-4.9898,-4.9978,-5.0005,-5.0005,-4.9952,-5.0111,-5.0468,-5.1045,-5.187,-5.2821,-5.3386,-5.3745,-5.4126,-5.4646,-5.4931,-5.4941,-5.4971,-5.4971,-5.4971,-5.4841,-5.4831,-5.5044,-5.4971,-5.5003,-5.5247,-5.5175,-5.5157,-5.5106,-5.5106,-5.5452,-5.6195,-5.6144,-5.5928,-5.5747,-5.5631,-5.5636,-5.5592,-5.5592,-5.5592,-5.5574,-5.5537,-5.5445,-5.5464,-5.5438,-5.5577,-5.5688,-5.567,-5.566,-5.5877,-5.5866,-5.6018,-5.6067,-5.6079,-5.6029,-5.6097,-5.6317,-5.6446,-5.6503,-5.6557,-5.6577,-5.649,-5.6367,-5.6098,-5.5541,-5.5253,-5.5129,-5.4737,-5.4504,-5.4361,-5.427,-5.4091,-5.3894,-3.8003,-3.8479,-3.9118,-3.9608,-3.9843,-3.9892,-3.9859,-3.9733,-3.9103,-3.9698,-4.0854,-4.0763,-4.1415,-4.2702,-4.3105,-4.3178,-4.3178,-4.3322,-4.3339,-4.3286,-4.3286,-4.3321,-4.3426,-4.3582,-4.3719,-4.3818,-4.3929,-4.3974,-4.3974,-4.4067,-4.4116,-4.4147,-4.4195,-4.4274,-4.4285,-4.4401,-4.444,-4.4749,-4.6242,-4.7192,-4.7559,-4.8973,-4.9925,-4.9925,-5.0005,-5.0031,-5.0057,-5.0031,-5.0031,-5.0133,-5.0608,-5.1262,-5.2087,-5.2475,-5.2854,-5.3338,-5.3964,-5.4427,-5.4476,-5.4733,-5.4971,-5.496,-5.486,-5.4786,-5.4767,-5.4622,-5.459,-5.4557,-5.4646,-5.459,-5.4562,-5.4491,-5.4912,-5.5564,-5.5454,-5.5278,-5.5077,-5.4865,-5.4675,-5.462,-5.4638,-5.4711,-5.4711,-5.4711,-5.4693,-5.4711,-5.4711,-5.4913,-5.4917,-5.5001,-5.5003,-5.514,-5.5377,-5.5403,-5.5239,-5.5192,-5.5145,-5.5366,-5.5685,-5.5749,-5.5794,-5.5826,-5.5794,-5.5518,-5.5328,-5.5116,-5.4634,-5.467,-5.4545,-5.4047,-5.3673,-5.3904,-5.3974,-5.3531,-5.3264,-3.7798,-3.8534,-3.8777,-3.9282,-3.9877,-3.9516,-3.9349,-3.9291,-3.8689,-3.9249,-4.0464,-4.0628,-4.1555,-4.2849,-4.3138,-4.3245,-4.3373,-4.3563,-4.3631,-4.3597,-4.3597,-4.3597,-4.3649,-4.3814,-4.3915,-4.3961,-4.4048,-4.414,-4.414,-4.4266,-4.4314,-4.4344,-4.4373,-4.4401,-4.4524,-4.4524,-4.4632,-4.4945,-4.6346,-4.7129,-4.7189,-4.8723,-4.9743,-4.9681,-4.9667,-4.9784,-5.0063,-5.0063,-5.0031,-5.0031,-5.0107,-5.0506,-5.1147,-5.1285,-5.1754,-5.2343,-5.3158,-5.3489,-5.3656,-5.4105,-5.4533,-5.4514,-5.4484,-5.4769,-5.4492,-5.45,-5.4553,-5.4541,-5.4692,-5.4736,-5.4673,-5.4622,-5.4613,-5.4524,-5.4584,-5.4279,-5.3736,-5.3588,-5.3649,-5.3516,-5.3267,-5.3285,-5.3487,-5.3469,-5.345,-5.339,-5.3445,-5.3794,-5.4124,-5.4356,-5.458,-5.47,-5.4728,-5.4674,-5.4473,-5.4364,-5.4301,-5.4318,-5.4669,-5.49,-5.5184,-5.5256,-5.5207,-5.4849,-5.4466,-5.4203,-5.3992,-5.4026,-5.3813,-5.3387,-5.3352,-5.3726,-5.346,-5.2908,-5.2608,-3.7774,-3.808,-3.8256,-3.8486,-3.8787,-3.8704,-3.8696,-3.866,-3.8478,-3.8984,-3.9838,-4.0065,-4.1148,-4.2522,-4.2834,-4.3176,-4.3652,-4.3892,-4.3955,-4.3923,-4.4042,-4.3999,-4.3942,-4.4042,-4.4135,-4.4226,-4.4296,-4.4335,-4.4411,-4.4449,-4.4551,-4.4605,-4.4667,-4.4764,-4.4796,-4.487,-4.4943,-4.5124,-4.596,-4.6616,-4.6815,-4.772,-4.8608,-4.9186,-4.8808,-4.9197,-5.0176,-5.0278,-5.0163,-5.0063,-5.0031,-5.0062,-5.043,-5.089,-5.1271,-5.1566,-5.2267,-5.2741,-5.275,-5.3016,-5.3167,-5.3129,-5.3319,-5.3139,-5.3158,-5.3602,-5.3808,-5.3967,-5.4383,-5.4817,-5.4767,-5.478,-5.478,-5.473,-5.4453,-5.4179,-5.4036,-5.387,-5.3737,-5.3699,-5.3678,-5.3579,-5.3459,-5.3418,-5.3378,-5.3277,-5.3295,-5.3309,-5.3658,-5.3689,-5.3879,-5.3696,-5.3653,-5.3671,-5.3609,-5.3548,-5.3467,-5.3368,-5.3599,-5.3953,-5.4375,-5.487,-5.4809,-5.4661,-5.4201,-5.3889,-5.3537,-5.3361,-5.3006,-5.274,-5.2582,-5.2689,-5.2406,-5.1996,-5.1965,-3.7846,-3.7951,-3.8153,-3.8285,-3.8401,-3.8559,-3.8652,-3.8646,-3.8664,-3.9136,-3.9896,-4.0449,-4.1391,-4.2631,-4.3162,-4.3613,-4.4042,-4.4218,-4.4248,-4.4248,-4.4345,-4.4345,-4.4248,-4.4314,-4.4383,-4.4468,-4.4532,-4.4605,-4.4659,-4.4693,-4.4745,-4.477,-4.4895,-4.4943,-4.4986,-4.508,-4.517,-4.5325,-4.5938,-4.6399,-4.6495,-4.7275,-4.7909,-4.8419,-4.8135,-4.8575,-4.9666,-4.979,-4.9854,-5.0049,-5.0108,-5.0057,-5.0101,-5.0468,-5.0738,-5.0795,-5.1516,-5.1991,-5.2047,-5.2311,-5.252,-5.2566,-5.2566,-5.2566,-5.2756,-5.3224,-5.3708,-5.3745,-5.4417,-5.4795,-5.486,-5.4871,-5.4901,-5.4871,-5.4648,-5.4453,-5.4352,-5.4071,-5.3962,-5.3926,-5.3907,-5.3851,-5.3717,-5.3639,-5.3521,-5.3422,-5.3318,-5.3295,-5.3309,-5.3235,-5.3295,-5.3272,-5.3248,-5.3353,-5.3445,-5.3402,-5.3341,-5.317,-5.3182,-5.3407,-5.3654,-5.4205,-5.3935,-5.3767,-5.3634,-5.3495,-5.3077,-5.2727,-5.248,-5.2198,-5.1844,-5.1758,-5.1758,-5.174,-5.1708,-3.8002,-3.8119,-3.8368,-3.851,-3.8615,-3.8833,-3.8931,-3.9017,-3.8998,-3.9444,-4.0179,-4.1036,-4.1614,-4.2838,-4.3044,-4.3868,-4.4008,-4.3979,-4.4137,-4.4108,-4.4169,-4.4124,-4.4086,-4.4474,-4.4613,-4.4749,-4.4789,-4.4865,-4.4933,-4.4938,-4.4943,-4.4991,-4.5038,-4.5084,-4.5173,-4.5235,-4.5297,-4.5454,-4.5936,-4.6262,-4.6374,-4.6933,-4.7393,-4.7716,-4.7943,-4.8058,-4.8668,-4.899,-4.9408,-5.0176,-5.0149,-5.0158,-5.0188,-5.0177,-5.0165,-5.0279,-5.0869,-5.1268,-5.1345,-5.1801,-5.222,-5.2125,-5.2241,-5.2412,-5.2341,-5.2855,-5.3316,-5.3186,-5.4335,-5.4714,-5.4901,-5.4901,-5.4901,-5.4901,-5.4852,-5.4761,-5.4552,-5.4281,-5.4088,-5.4088,-5.4069,-5.4016,-5.3944,-5.3851,-5.3756,-5.3602,-5.3542,-5.3502,-5.3462,-5.3481,-5.344,-5.3396,-5.3355,-5.3272,-5.3309,-5.3285,-5.3243,-5.3188,-5.3146,-5.32,-5.3069,-5.3199,-5.2798,-5.2622,-5.2983,-5.2906,-5.251,-5.2246,-5.2107,-5.2059,-5.1956,-5.1858,-5.1808,-5.1858,-5.1858,-3.8541,-3.8713,-3.8755,-3.8873,-3.9045,-3.912,-3.9183,-3.9245,-3.9245,-3.9384,-3.9616,-3.9848,-4.0532,-4.1374,-4.1839,-4.2059,-4.2825,-4.2999,-4.2985,-4.3095,-4.3012,-4.3057,-4.3361,-4.4161,-4.4802,-4.4903,-4.5052,-4.5118,-4.5133,-4.5167,-4.5254,-4.5277,-4.526,-4.5341,-4.54,-4.5438,-4.5495,-4.5551,-4.5742,-4.5858,-4.5859,-4.6051,-4.6493,-4.7031,-4.7607,-4.7703,-4.7703,-4.8585,-4.9333,-4.964,-4.9991,-5.0183,-5.0259,-5.0278,-5.0231,-5.0239,-5.0316,-5.0487,-5.0443,-5.0697,-5.0735,-5.0868,-5.0975,-5.077,-5.0779,-5.1605,-5.1954,-5.2113,-5.3101,-5.4135,-5.4617,-5.4844,-5.4825,-5.4787,-5.4863,-5.4871,-5.4791,-5.4717,-5.4603,-5.4571,-5.4453,-5.4334,-5.4161,-5.4072,-5.3963,-5.3833,-5.3757,-5.3757,-5.3719,-5.366,-5.36,-5.3539,-5.3499,-5.3459,-5.3459,-5.3418,-5.3336,-5.3295,-5.3235,-5.3193,-5.3066,-5.2875,-5.2717,-5.2599,-5.2534,-5.2434,-5.2415,-5.234,-5.2358,-5.2198,-5.2084,-5.2084,-5.2084,-5.2036,-5.1956,-3.8815,-3.895,-3.9017,-3.9129,-3.9309,-3.9388,-3.9464,-3.9496,-3.9477,-3.9526,-3.9669,-4.0018,-4.0542,-4.1056,-4.1537,-4.2094,-4.2386,-4.2569,-4.2673,-4.2773,-4.2754,-4.2775,-4.291,-4.3576,-4.4157,-4.4547,-4.5077,-4.5275,-4.5297,-4.5319,-4.536,-4.538,-4.5419,-4.5438,-4.5532,-4.5586,-4.564,-4.564,-4.5657,-4.5657,-4.5654,-4.5657,-4.5753,-4.6271,-4.6771,-4.687,-4.7066,-4.7663,-4.8336,-4.8837,-4.9507,-5.0095,-5.0377,-5.0393,-5.0371,-5.0325,-5.0321,-5.0283,-5.0259,-5.0236,-5.0312,-5.0236,-5.0259,-5.0212,-5.0378,-5.0958,-5.1319,-5.1562,-5.2342,-5.3319,-5.3707,-5.42,-5.4276,-5.4408,-5.4693,-5.4882,-5.4882,-5.486,-5.4817,-5.4786,-5.4654,-5.4505,-5.4405,-5.4268,-5.4144,-5.3981,-5.387,-5.387,-5.3775,-5.3756,-5.3756,-5.3717,-5.3717,-5.366,-5.366,-5.3582,-5.3502,-5.344,-5.3418,-5.3359,-5.3318,-5.3133,-5.2962,-5.2831,-5.2761,-5.2787,-5.2787,-5.2654,-5.2581,-5.2599,-5.2536,-5.2462,-5.2304,-5.2239,-5.2162,-3.885,-3.8915,-3.9024,-3.9212,-3.9458,-3.9505,-3.9595,-3.9754,-3.9758,-3.9823,-4.0025,-4.0748,-4.0808,-4.1218,-4.1715,-4.2195,-4.2256,-4.2239,-4.2126,-4.2183,-4.2144,-4.2219,-4.2424,-4.2731,-4.3137,-4.3829,-4.4691,-4.5151,-4.5381,-4.5419,-4.5457,-4.5457,-4.5495,-4.553,-4.5566,-4.562,-4.5671,-4.569,-4.5687,-4.5687,-4.5684,-4.5684,-4.5742,-4.58,-4.5857,-4.6169,-4.6557,-4.6983,-4.739,-4.8105,-4.897,-4.9779,-5.0374,-5.0582,-5.0521,-5.0502,-5.0438,-5.0393,-5.0371,-5.0348,-5.0302,-5.0302,-5.0302,-5.0255,-5.0354,-5.0691,-5.0964,-5.1285,-5.1782,-5.238,-5.2456,-5.3063,-5.3461,-5.3631,-5.4219,-5.4655,-5.472,-5.4765,-5.4817,-5.4799,-5.4736,-5.4622,-5.4557,-5.4458,-5.4337,-5.4179,-5.4072,-5.3944,-5.3907,-5.3888,-5.3944,-5.3963,-5.3944,-5.3889,-5.3851,-5.3813,-5.3737,-5.3639,-5.3619,-5.3579,-5.3561,-5.3422,-5.33,-5.3115,-5.3072,-5.3072,-5.3011,-5.2944,-5.2919,-5.3023,-5.2937,-5.2787,-5.2635,-5.2499,-5.2379,-3.834,-3.8415,-3.8525,-3.8978,-3.9547,-3.9126,-3.9283,-3.9878,-3.9977,-4.0036,-4.0076,-4.0228,-4.0383,-4.0481,-4.0482,-4.0692,-4.0977,-4.107,-4.1048,-4.1063,-4.1044,-4.1113,-4.1331,-4.1771,-4.2136,-4.2633,-4.3695,-4.4716,-4.5332,-4.558,-4.5468,-4.5543,-4.5582,-4.5616,-4.5632,-4.5684,-4.57,-4.57,-4.5715,-4.5712,-4.5712,-4.5712,-4.5712,-4.5712,-4.5712,-4.5812,-4.6066,-4.6648,-4.7381,-4.8249,-4.9043,-4.9758,-5.0259,-5.0471,-5.0586,-5.0605,-5.0544,-5.05,-5.0438,-5.0393,-5.0367,-5.0325,-5.0302,-5.0278,-5.0245,-5.034,-5.0501,-5.0596,-5.1076,-5.1706,-5.2343,-5.2494,-5.2589,-5.2817,-5.3309,-5.3878,-5.401,-5.4254,-5.4534,-5.442,-5.4541,-5.4736,-5.4673,-5.4608,-5.4524,-5.4405,-5.4318,-5.4249,-5.4198,-5.4217,-5.4252,-5.4271,-5.4271,-5.4181,-5.4036,-5.4055,-5.3981,-5.3926,-5.3851,-5.3774,-5.3774,-5.3756,-5.3621,-5.3422,-5.3281,-5.318,-5.318,-5.318,-5.318,-5.3217,-5.3157,-5.3054,-5.2926,-5.2769,-5.2717,-3.7769,-3.7792,-3.7815,-3.8112,-3.8521,-3.8698,-3.8971,-3.945,-3.9908,-4.0177,-4.0196,-4.0215,-4.0253,-4.029,-4.0289,-4.0362,-4.0432,-4.0463,-4.0495,-4.0527,-4.0527,-4.0573,-4.0631,-4.1075,-4.1489,-4.2005,-4.285,-4.3844,-4.4851,-4.4954,-4.5224,-4.5591,-4.5648,-4.5665,-4.5696,-4.5727,-4.5742,-4.5776,-4.5776,-4.5805,-4.58,-4.5819,-4.5805,-4.5791,-4.5776,-4.5761,-4.5843,-4.6059,-4.6526,-4.7012,-4.7747,-4.8311,-4.891,-4.9643,-5.0259,-5.0491,-5.0605,-5.0584,-5.0525,-5.0502,-5.0478,-5.0416,-5.0393,-5.0325,-5.0255,-5.025,-5.0231,-5.0253,-5.0266,-5.0783,-5.1071,-5.1583,-5.1792,-5.1982,-5.2617,-5.3034,-5.3177,-5.3452,-5.3621,-5.3827,-5.4219,-5.4472,-5.4705,-5.4673,-5.4673,-5.4608,-5.4538,-5.4524,-5.4458,-5.4424,-5.4443,-5.4375,-5.4321,-5.4212,-5.4067,-5.3975,-5.379,-5.3737,-5.3721,-5.3684,-5.3777,-5.3647,-5.3683,-5.3639,-5.3502,-5.3425,-5.3484,-5.3524,-5.3484,-5.3462,-5.3422,-5.3359,-5.3217,-5.3091,-5.298,-3.7074,-3.7055,-3.7074,-3.7213,-3.7523,-3.8171,-3.867,-3.9052,-3.9872,-4.0272,-4.0306,-4.0323,-4.036,-4.0413,-4.043,-4.0482,-4.0511,-4.0504,-4.0554,-4.0588,-4.0622,-4.0665,-4.0673,-4.0758,-4.1042,-4.1545,-4.179,-4.2609,-4.3979,-4.4467,-4.4882,-4.5283,-4.5519,-4.5712,-4.5727,-4.5771,-4.58,-4.5819,-4.5838,-4.588,-4.5899,-4.5899,-4.5893,-4.5893,-4.5841,-4.5833,-4.5844,-4.5916,-4.6095,-4.6394,-4.6808,-4.7201,-4.7439,-4.8521,-4.9507,-5.0105,-5.0433,-5.0586,-5.0606,-5.0625,-5.0584,-5.0523,-5.0542,-5.0438,-5.0325,-5.0302,-5.0259,-5.0188,-5.0171,-5.0133,-5.0354,-5.0677,-5.0981,-5.1209,-5.1768,-5.2365,-5.2387,-5.2522,-5.276,-5.3129,-5.3747,-5.3886,-5.383,-5.4333,-5.4238,-5.4365,-5.4333,-5.4622,-5.4576,-5.4472,-5.4424,-5.4409,-5.4337,-5.4187,-5.404,-5.3818,-5.3503,-5.3061,-5.3045,-5.2991,-5.3199,-5.3349,-5.3442,-5.3442,-5.3832,-5.3757,-5.3832,-5.3813,-5.3756,-5.3717,-5.3716,-5.3637,-5.34,-5.3235,-5.3085,-3.6288,-3.6249,-3.6308,-3.6765,-3.7413,-3.7719,-3.8288,-3.903,-3.9924,-4.0377,-4.0389,-4.0389,-4.0441,-4.0492,-4.0543,-4.0569,-4.0579,-4.0574,-4.0607,-4.064,-4.0673,-4.0687,-4.0713,-4.0764,-4.0815,-4.111,-4.1075,-4.1897,-4.3143,-4.4041,-4.4589,-4.4899,-4.5471,-4.578,-4.5794,-4.5841,-4.58,-4.5814,-4.5814,-4.586,-4.5906,-4.5919,-4.5906,-4.5919,-4.5899,-4.588,-4.5906,-4.597,-4.6177,-4.6778,-4.7002,-4.7492,-4.8097,-4.8269,-4.845,-4.8977,-4.9735,-5.0682,-5.0528,-5.0528,-5.051,-5.0471,-5.0548,-5.0545,-5.0481,-5.0371,-5.0306,-5.0207,-5.0163,-5.0139,-5.0108,-5.0196,-5.0253,-5.0539,-5.1059,-5.144,-5.1566,-5.168,-5.1893,-5.1982,-5.2466,-5.2502,-5.2473,-5.3213,-5.3781,-5.3967,-5.4163,-5.4365,-5.4428,-5.4105,-5.3912,-5.3785,-5.3729,-5.3564,-5.3418,-5.3324,-5.3065,-5.251,-5.2423,-5.237,-5.2559,-5.2768,-5.288,-5.303,-5.344,-5.37,-5.3551,-5.3552,-5.3795,-5.387,-5.3774,-5.3658,-5.3539,-5.3378,-5.3212,-3.5661,-3.5533,-3.5571,-3.5817,-3.631,-3.7258,-3.794,-3.8582,-3.9835,-4.0476,-4.0508,-4.05,-4.053,-4.0579,-4.0612,-4.066,-4.0668,-4.0662,-4.0688,-4.07,-4.0752,-4.0745,-4.0769,-4.0792,-4.0804,-4.0826,-4.0867,-4.1092,-4.2236,-4.33,-4.4098,-4.4698,-4.5396,-4.5873,-4.5808,-4.5941,-4.5975,-4.5986,-4.5975,-4.5994,-4.5994,-4.5972,-4.5968,-4.5983,-4.5964,-4.5953,-4.5953,-4.5983,-4.6119,-4.6523,-4.6518,-4.6629,-4.7035,-4.7361,-4.768,-4.7724,-4.8697,-4.9302,-4.9363,-4.9791,-5.0005,-5.0199,-5.0393,-5.0664,-5.0586,-5.0504,-5.044,-5.0371,-5.0329,-5.0278,-5.0207,-5.0158,-5.0158,-5.031,-5.0602,-5.0678,-5.0843,-5.0894,-5.1002,-5.1083,-5.1136,-5.1271,-5.15,-5.2163,-5.2769,-5.3043,-5.3135,-5.3275,-5.3244,-5.3013,-5.2881,-5.2841,-5.2785,-5.2747,-5.2569,-5.2456,-5.2386,-5.2053,-5.2005,-5.1952,-5.1937,-5.2052,-5.2164,-5.2186,-5.2319,-5.2613,-5.2925,-5.3325,-5.3627,-5.3702,-5.3737,-5.3528,-5.3315,-5.34,-5.3277,-3.535,-3.519,-3.5174,-3.5193,-3.542,-3.7053,-3.7846,-3.8174,-3.9788,-4.0598,-4.0626,-4.0681,-4.0688,-4.07,-4.0725,-4.0776,-4.0764,-4.075,-4.0792,-4.0804,-4.0815,-4.0826,-4.0828,-4.0839,-4.0829,-4.0819,-4.0888,-4.1023,-4.1431,-4.2325,-4.3451,-4.4178,-4.4993,-4.549,-4.5657,-4.5677,-4.5735,-4.6085,-4.6076,-4.6095,-4.6085,-4.6037,-4.6056,-4.6066,-4.6047,-4.6037,-4.6007,-4.6017,-4.6046,-4.6053,-4.608,-4.6135,-4.6235,-4.661,-4.6855,-4.6925,-4.7502,-4.7704,-4.8037,-4.8546,-4.9225,-4.9765,-5.0233,-5.0757,-5.0663,-5.0625,-5.0586,-5.0504,-5.0483,-5.0396,-5.0325,-5.0278,-5.0255,-5.0255,-5.0312,-5.0255,-5.025,-5.0455,-5.0544,-5.0564,-5.0551,-5.0301,-5.0627,-5.1206,-5.1698,-5.203,-5.2172,-5.2237,-5.2197,-5.213,-5.2159,-5.2234,-5.2221,-5.2089,-5.1719,-5.1593,-5.1536,-5.1461,-5.1415,-5.127,-5.1068,-5.1237,-5.1443,-5.1395,-5.1398,-5.1843,-5.2379,-5.2895,-5.3366,-5.3014,-5.2847,-5.3082,-5.3071,-5.3179,-5.3308,-3.5526,-3.5451,-3.5347,-3.5331,-3.5513,-3.7252,-3.8001,-3.8221,-3.9889,-4.0655,-4.0776,-4.0834,-4.0848,-4.0859,-4.0859,-4.0878,-4.0869,-4.0898,-4.0898,-4.0898,-4.0898,-4.0898,-4.0888,-4.0897,-4.0896,-4.0896,-4.0941,-4.0968,-4.121,-4.1976,-4.2463,-4.2677,-4.413,-4.4675,-4.4887,-4.4943,-4.5335,-4.5743,-4.592,-4.6027,-4.6075,-4.6095,-4.6093,-4.6113,-4.6093,-4.6056,-4.5988,-4.5969,-4.592,-4.5832,-4.5813,-4.5822,-4.58,-4.6108,-4.6259,-4.6319,-4.6325,-4.6472,-4.6709,-4.77,-4.8783,-4.9579,-5.0146,-5.0441,-5.031,-5.049,-5.0529,-5.0298,-5.0086,-5.0276,-5.031,-5.044,-5.0202,-5.0348,-5.0325,-5.0302,-5.0278,-5.0231,-5.0302,-5.0201,-5.0114,-5.0063,-5.0031,-5.0669,-5.0873,-5.1206,-5.1509,-5.1566,-5.1679,-5.1658,-5.1706,-5.1764,-5.1769,-5.1493,-5.0911,-5.0729,-5.0673,-5.0504,-5.0359,-5.0153,-4.9928,-5.0209,-5.0703,-5.0764,-5.0825,-5.1312,-5.1597,-5.1681,-5.1763,-5.1822,-5.1936,-5.2249,-5.2504,-5.2634,-5.2913,-3.5658,-3.5609,-3.5568,-3.55,-3.5541,-3.6749,-3.7578,-3.8254,-3.9417,-4.0328,-4.0856,-4.0898,-4.0898,-4.0917,-4.0963,-4.0943,-4.0896,-4.0949,-4.096,-4.096,-4.096,-4.096,-4.0949,-4.0957,-4.0945,-4.0964,-4.1011,-4.1032,-4.1149,-4.1851,-4.1824,-4.2266,-4.326,-4.3831,-4.4079,-4.4189,-4.465,-4.5124,-4.5414,-4.5535,-4.6115,-4.613,-4.6119,-4.6154,-4.6154,-4.6146,-4.6041,-4.5582,-4.5418,-4.5335,-4.5317,-4.5318,-4.5454,-4.5763,-4.5964,-4.596,-4.5932,-4.5887,-4.6002,-4.6975,-4.7947,-4.8692,-4.9146,-4.9382,-4.9502,-4.9319,-4.9211,-4.9138,-4.9236,-4.9412,-4.9739,-4.9775,-4.981,-5.0227,-5.0313,-5.0195,-5.021,-5.0087,-5.0217,-5.0174,-5.0169,-5.0163,-5.0133,-5.0158,-5.0271,-5.038,-5.0656,-5.0894,-5.1008,-5.1026,-5.1051,-5.0998,-5.0936,-5.083,-5.0235,-5.0028,-4.9847,-4.9678,-4.9509,-4.9509,-4.9509,-4.9565,-4.9965,-5.0078,-5.0089,-5.0268,-5.0314,-5.0135,-5.0347,-5.0875,-5.125,-5.1565,-5.1805,-5.2084,-5.2401,-3.5727,-3.5727,-3.5737,-3.5669,-3.567,-3.652,-3.7375,-3.8252,-3.9168,-4.0073,-4.0897,-4.0924,-4.0941,-4.0976,-4.1018,-4.1006,-4.0986,-4.102,-4.1039,-4.1039,-4.102,-4.102,-4.102,-4.102,-4.1013,-4.1033,-4.1033,-4.1064,-4.112,-4.173,-4.1598,-4.1657,-4.2192,-4.2783,-4.3314,-4.3587,-4.3986,-4.4406,-4.4596,-4.4767,-4.5358,-4.5604,-4.5714,-4.5825,-4.5981,-4.6189,-4.5967,-4.5499,-4.5025,-4.4943,-4.4887,-4.485,-4.5104,-4.5454,-4.5908,-4.5983,-4.596,-4.5905,-4.61,-4.6673,-4.7376,-4.797,-4.8443,-4.8488,-4.8396,-4.8382,-4.8593,-4.8469,-4.8376,-4.8441,-4.8971,-4.901,-4.9027,-4.9292,-4.9264,-4.9223,-4.9641,-4.9733,-5.0015,-5.0183,-5.0221,-5.0236,-5.0231,-5.0182,-5.0101,-5.013,-5.0247,-5.0344,-5.027,-5.0279,-5.0175,-5.0088,-4.9992,-4.9819,-4.9589,-4.9633,-4.9678,-4.964,-4.9509,-4.9509,-4.9509,-4.949,-4.9509,-4.9684,-4.9621,-4.93,-4.9262,-4.9403,-4.9815,-5.03,-5.0619,-5.088,-5.1436,-5.1751,-5.1802,-3.5791,-3.5791,-3.5793,-3.5747,-3.5786,-3.6678,-3.7531,-3.8442,-3.9391,-4.0249,-4.0954,-4.1,-4.1039,-4.1075,-4.1081,-4.1081,-4.1075,-4.1086,-4.1106,-4.1081,-4.1081,-4.1086,-4.1086,-4.1086,-4.1067,-4.1091,-4.1086,-4.1086,-4.1115,-4.1296,-4.1183,-4.1144,-4.1491,-4.1818,-4.2442,-4.3246,-4.365,-4.3716,-4.3714,-4.383,-4.4157,-4.463,-4.4878,-4.5059,-4.5443,-4.5682,-4.5733,-4.4876,-4.446,-4.4561,-4.4587,-4.4588,-4.4696,-4.5512,-4.5947,-4.5983,-4.5991,-4.5949,-4.5964,-4.6726,-4.7088,-4.7243,-4.7637,-4.7953,-4.8178,-4.8222,-4.8053,-4.7704,-4.7936,-4.8083,-4.8229,-4.8218,-4.8222,-4.8412,-4.8445,-4.8518,-4.8936,-4.9146,-4.9354,-4.9602,-5.0,-5.0306,-5.0306,-5.0259,-5.0081,-5.0019,-4.9952,-4.9879,-4.9787,-4.9797,-4.9797,-4.9778,-4.9692,-4.9663,-4.9593,-4.9551,-4.9509,-4.949,-4.9509,-4.9509,-4.949,-4.9521,-4.949,-4.9459,-4.9409,-4.9308,-4.9061,-4.8822,-4.9352,-4.9862,-4.9982,-5.0319,-5.0931,-5.1244,-5.1155,-3.5807,-3.5795,-3.5788,-3.5815,-3.5873,-3.6112,-3.7053,-3.8486,-3.9848,-4.0733,-4.0968,-4.1045,-4.1075,-4.1111,-4.11,-4.1105,-4.1115,-4.1105,-4.1105,-4.1115,-4.11,-4.11,-4.11,-4.1105,-4.1109,-4.1105,-4.11,-4.11,-4.1105,-4.1109,-4.11,-4.11,-4.112,-4.1247,-4.1505,-4.1954,-4.2154,-4.27,-4.2885,-4.3064,-4.3572,-4.3877,-4.4033,-4.404,-4.4423,-4.4844,-4.5195,-4.4117,-4.3642,-4.3919,-4.3992,-4.3994,-4.4238,-4.5026,-4.5841,-4.5917,-4.5956,-4.596,-4.5944,-4.6242,-4.6332,-4.646,-4.6693,-4.6952,-4.6765,-4.6693,-4.6665,-4.6767,-4.6902,-4.7036,-4.7262,-4.7311,-4.7471,-4.8048,-4.818,-4.8099,-4.8288,-4.829,-4.8424,-4.8713,-4.9056,-4.9827,-5.0134,-4.9819,-4.9629,-4.9529,-4.9455,-4.9644,-4.9648,-4.9784,-4.9833,-4.9816,-4.975,-4.9721,-4.9625,-4.9198,-4.9111,-4.9149,-4.9295,-4.9509,-4.9521,-4.9401,-4.9544,-4.9544,-4.9452,-4.934,-4.9193,-4.9094,-4.9141,-4.9431,-4.9646,-4.9724,-5.0075,-5.0263,-5.0128,-3.557,-3.5838,-3.5838,-3.5852,-3.5898,-3.5834,-3.6833,-3.8498,-3.9954,-4.0734,-4.0986,-4.1095,-4.1111,-4.11,-4.1113,-4.1117,-4.1109,-4.1113,-4.1117,-4.1109,-4.1113,-4.1113,-4.1113,-4.1113,-4.1097,-4.1117,-4.1113,-4.1113,-4.1097,-4.1113,-4.1105,-4.11,-4.1111,-4.1145,-4.1184,-4.1315,-4.1426,-4.1894,-4.2006,-4.2142,-4.2578,-4.2922,-4.3156,-4.3254,-4.3539,-4.3929,-4.3909,-4.3364,-4.2539,-4.3019,-4.3171,-4.3158,-4.3577,-4.4239,-4.5084,-4.5131,-4.5101,-4.5041,-4.499,-4.496,-4.4971,-4.5071,-4.5526,-4.5891,-4.5898,-4.6054,-4.6009,-4.5944,-4.5786,-4.6036,-4.6455,-4.6521,-4.6702,-4.7281,-4.7241,-4.7141,-4.7448,-4.7429,-4.7679,-4.7949,-4.8354,-4.9143,-4.9682,-4.939,-4.9034,-4.8965,-4.8886,-4.908,-4.9207,-4.925,-4.9254,-4.92,-4.905,-4.8796,-4.8645,-4.8494,-4.8503,-4.8748,-4.8859,-4.895,-4.9093,-4.8926,-4.9246,-4.9529,-4.9401,-4.934,-4.9415,-4.9402,-4.9234,-4.9302,-4.9527,-4.9546,-4.9415,-4.9525,-4.9634,-3.5086,-3.582,-3.5885,-3.5885,-3.5885,-3.5885,-3.6865,-3.8475,-3.9429,-4.0279,-4.0998,-4.1028,-4.11,-4.1113,-4.1104,-4.1108,-4.1108,-4.1108,-4.1108,-4.1108,-4.1104,-4.1104,-4.1104,-4.1108,-4.1104,-4.1108,-4.1108,-4.1104,-4.1108,-4.1101,-4.1117,-4.1109,-4.1115,-4.1106,-4.1114,-4.1123,-4.1195,-4.1331,-4.1389,-4.1487,-4.1734,-4.2007,-4.2241,-4.2435,-4.2779,-4.3195,-4.315,-4.2656,-4.2337,-4.2362,-4.2349,-4.2294,-4.2528,-4.3054,-4.3335,-4.3539,-4.3615,-4.3712,-4.3801,-4.3837,-4.3779,-4.4131,-4.4976,-4.5576,-4.5774,-4.5621,-4.5641,-4.5736,-4.5776,-4.5696,-4.5748,-4.5701,-4.5706,-4.5822,-4.5783,-4.6012,-4.6471,-4.672,-4.7009,-4.7316,-4.7702,-4.8221,-4.8548,-4.8413,-4.8351,-4.8015,-4.7827,-4.7538,-4.7707,-4.8036,-4.8022,-4.8041,-4.7856,-4.7594,-4.7548,-4.7758,-4.7843,-4.807,-4.7853,-4.7871,-4.8117,-4.8381,-4.856,-4.8796,-4.9141,-4.9168,-4.8821,-4.8878,-4.9074,-4.9141,-4.8955,-4.9408,-4.9351,-4.9588,-4.9702,-3.4736,-3.5029,-3.5645,-3.5885,-3.5897,-3.5897,-3.6553,-3.7683,-3.9098,-3.9992,-4.0223,-4.0833,-4.0905,-4.1113,-4.1104,-4.1049,-4.1049,-4.1108,-4.1108,-4.1049,-4.0815,-4.101,-4.103,-4.0952,-4.1049,-4.103,-4.101,-4.0932,-4.1069,-4.1085,-4.1113,-4.11,-4.1111,-4.11,-4.1109,-4.1117,-4.111,-4.111,-4.111,-4.1104,-4.111,-4.1416,-4.1559,-4.1714,-4.1831,-4.226,-4.237,-4.1896,-4.1726,-4.2128,-4.2174,-4.2188,-4.2265,-4.2976,-4.351,-4.35,-4.349,-4.3469,-4.347,-4.3421,-4.3294,-4.3227,-4.3927,-4.4461,-4.4816,-4.5059,-4.5235,-4.5471,-4.5688,-4.5668,-4.5601,-4.5513,-4.5476,-4.5458,-4.54,-4.557,-4.5973,-4.609,-4.634,-4.6321,-4.6704,-4.7222,-4.7509,-4.778,-4.7662,-4.7197,-4.6784,-4.6439,-4.6364,-4.6727,-4.6904,-4.6923,-4.698,-4.6796,-4.7072,-4.7329,-4.734,-4.7332,-4.7041,-4.6984,-4.7399,-4.7645,-4.7767,-4.8012,-4.8334,-4.8211,-4.7916,-4.8115,-4.8466,-4.8115,-4.798,-4.8737,-4.9324,-4.9362,-4.9484,-3.3972,-3.4627,-3.5165,-3.5566,-3.5869,-3.5889,-3.624,-3.6916,-3.8188,-3.8915,-3.9316,-3.9794,-4.0057,-3.9989,-3.9962,-3.9989,-3.9992,-3.9937,-3.9956,-3.9937,-4.019,-3.9995,-4.0073,-4.0174,-3.9995,-4.0112,-4.021,-4.0112,-4.0538,-4.1,-4.1105,-4.1115,-4.11,-4.1114,-4.1109,-4.1097,-4.111,-4.111,-4.111,-4.1085,-4.1085,-4.1104,-4.111,-4.111,-4.111,-4.1442,-4.1708,-4.1188,-4.1376,-4.1719,-4.1727,-4.1721,-4.1721,-4.2199,-4.2422,-4.2345,-4.2316,-4.2267,-4.2257,-4.2286,-4.2354,-4.2431,-4.2529,-4.2927,-4.3699,-4.4214,-4.4699,-4.5123,-4.541,-4.5601,-4.5568,-4.5495,-4.5477,-4.5458,-4.54,-4.5339,-4.5438,-4.5495,-4.5417,-4.5299,-4.5643,-4.6217,-4.6623,-4.6896,-4.6915,-4.6355,-4.6001,-4.5776,-4.5622,-4.5778,-4.5899,-4.5937,-4.607,-4.6146,-4.6462,-4.6613,-4.6436,-4.6259,-4.607,-4.6119,-4.6584,-4.6932,-4.7072,-4.7269,-4.7496,-4.739,-4.7295,-4.7505,-4.7694,-4.7378,-4.7308,-4.7984,-4.8473,-4.8542,-4.8675,-3.2953,-3.4366,-3.4542,-3.5079,-3.5733,-3.583,-3.5914,-3.5982,-3.6849,-3.7603,-3.8311,-3.8522,-3.8702,-3.8907,-3.89,-3.8869,-3.8951,-3.8974,-3.9039,-3.8629,-3.8961,-3.9,-3.8941,-3.8668,-3.9058,-3.8804,-3.8804,-3.9306,-3.9813,-4.0329,-4.0788,-4.1013,-4.112,-4.1109,-4.1109,-4.1117,-4.1007,-4.0714,-4.0792,-4.0851,-4.102,-4.1078,-4.111,-4.111,-4.111,-4.1169,-4.1143,-4.1059,-4.0986,-4.1011,-4.1035,-4.1079,-4.111,-4.112,-4.1102,-4.1121,-4.1286,-4.1315,-4.1354,-4.1354,-4.1238,-4.114,-4.0946,-4.1568,-4.2438,-4.3303,-4.3853,-4.4675,-4.5032,-4.5372,-4.5398,-4.5131,-4.4998,-4.4882,-4.4748,-4.4652,-4.4575,-4.4591,-4.453,-4.4432,-4.4547,-4.5007,-4.4914,-4.5111,-4.5227,-4.5073,-4.4932,-4.4728,-4.481,-4.4792,-4.5033,-4.5103,-4.5388,-4.5539,-4.5464,-4.5514,-4.5293,-4.5098,-4.5155,-4.5344,-4.5887,-4.6177,-4.6354,-4.643,-4.6506,-4.679,-4.6847,-4.6871,-4.6806,-4.6849,-4.6915,-4.7335,-4.7583,-4.7594,-4.7948,-3.2272,-3.2752,-3.4049,-3.4742,-3.4995,-3.563,-3.585,-3.5894,-3.6103,-3.6693,-3.7503,-3.8132,-3.8429,-3.8293,-3.8263,-3.8276,-3.8342,-3.8167,-3.8505,-3.843,-3.8414,-3.8216,-3.8492,-3.8274,-3.8411,-3.8541,-3.8576,-3.8557,-3.8935,-3.9589,-4.0145,-4.0207,-4.0513,-4.0844,-4.0955,-4.0968,-4.0753,-4.0416,-4.0396,-4.0695,-4.1046,-4.1085,-4.111,-4.1091,-4.1071,-4.1091,-4.1059,-4.1018,-4.0991,-4.0996,-4.0943,-4.0945,-4.0936,-4.0907,-4.0888,-4.0888,-4.0888,-4.0917,-4.0936,-4.0936,-4.0936,-4.0945,-4.0956,-4.1034,-4.1479,-4.2238,-4.3034,-4.3936,-4.4592,-4.4914,-4.5053,-4.471,-4.4461,-4.4249,-4.4094,-4.392,-4.3763,-4.3722,-4.3682,-4.3605,-4.3588,-4.3551,-4.3421,-4.3405,-4.3408,-4.3407,-4.3307,-4.3281,-4.3558,-4.3696,-4.4336,-4.4521,-4.4933,-4.5028,-4.4895,-4.4895,-4.4895,-4.4895,-4.5009,-4.5141,-4.5255,-4.5469,-4.5678,-4.5426,-4.5426,-4.5824,-4.5968,-4.5641,-4.5693,-4.6043,-4.6249,-4.6546,-4.6396,-4.6336,-4.6923,-3.1738,-3.2194,-3.3471,-3.4016,-3.4119,-3.4553,-3.4778,-3.4847,-3.5154,-3.5607,-3.6177,-3.6918,-3.7347,-3.7366,-3.7337,-3.7425,-3.7433,-3.7359,-3.7265,-3.7386,-3.7585,-3.7351,-3.7448,-3.7585,-3.7331,-3.7425,-3.7835,-3.7964,-3.8064,-3.8722,-3.9257,-3.9312,-3.9812,-4.0202,-4.0409,-4.0461,-4.0468,-4.0318,-4.0221,-4.052,-4.0955,-4.0818,-4.0565,-4.0526,-4.0838,-4.0968,-4.1039,-4.0999,-4.0991,-4.0996,-4.0963,-4.0926,-4.0917,-4.0888,-4.0888,-4.0888,-4.0907,-4.0936,-4.0945,-4.0945,-4.0917,-4.0945,-4.0936,-4.0995,-4.0974,-4.1676,-4.2022,-4.285,-4.3535,-4.3897,-4.3972,-4.3763,-4.3724,-4.3588,-4.3494,-4.3395,-4.3355,-4.3352,-4.3057,-4.2684,-4.2771,-4.2992,-4.2919,-4.2982,-4.3005,-4.3044,-4.2774,-4.2598,-4.2705,-4.2715,-4.3335,-4.3957,-4.435,-4.4762,-4.4895,-4.4895,-4.4895,-4.4895,-4.473,-4.4938,-4.5038,-4.5,-4.4981,-4.5019,-4.5038,-4.5071,-4.5062,-4.508,-4.5194,-4.5604,-4.5668,-4.5687,-4.5456,-4.5322,-4.5802,-3.1247,-3.2016,-3.2809,-3.314,-3.3198,-3.3295,-3.3487,-3.376,-3.4316,-3.4652,-3.4896,-3.5549,-3.5738,-3.5894,-3.5919,-3.5904,-3.6031,-3.6391,-3.6239,-3.62,-3.6224,-3.6438,-3.6399,-3.6204,-3.6302,-3.6501,-3.6829,-3.7,-3.7064,-3.7834,-3.8344,-3.8345,-3.8585,-3.8909,-3.9459,-3.9789,-3.996,-4.0331,-4.0455,-4.0591,-4.05,-4.0312,-4.0234,-4.037,-4.0617,-4.1,-4.1013,-4.0979,-4.0991,-4.0968,-4.0971,-4.0945,-4.0917,-4.0888,-4.0888,-4.0888,-4.0888,-4.0917,-4.0936,-4.0936,-4.0936,-4.0917,-4.0907,-4.0888,-4.0897,-4.1048,-4.1396,-4.1782,-4.2472,-4.2945,-4.3002,-4.2961,-4.2957,-4.2861,-4.2807,-4.2691,-4.2707,-4.2726,-4.226,-4.1769,-4.1959,-4.2206,-4.2251,-4.2333,-4.2411,-4.2489,-4.2508,-4.2429,-4.2311,-4.2189,-4.2411,-4.3126,-4.3706,-4.4161,-4.444,-4.454,-4.4431,-4.417,-4.4003,-4.4459,-4.4763,-4.4592,-4.4649,-4.4991,-4.4991,-4.4929,-4.5038,-4.517,-4.5279,-4.5227,-4.5131,-4.5087,-4.5028,-4.4895,-4.4843,-3.0895,-3.1125,-3.1957,-3.2322,-3.2439,-3.3003,-3.3746,-3.4365,-3.4516,-3.4652,-3.4759,-3.4857,-3.5237,-3.5869,-3.5889,-3.5841,-3.5695,-3.5797,-3.5919,-3.6005,-3.6001,-3.6005,-3.6005,-3.6005,-3.5962,-3.6079,-3.6192,-3.6138,-3.645,-3.7077,-3.7436,-3.7443,-3.815,-3.8726,-3.9517,-3.9711,-3.9758,-4.0162,-4.0169,-4.0091,-3.9864,-4.0007,-4.0792,-4.0903,-4.0915,-4.1018,-4.1003,-4.0988,-4.098,-4.0963,-4.0954,-4.0936,-4.0907,-4.0888,-4.0888,-4.0888,-4.0888,-4.0917,-4.0917,-4.0936,-4.0936,-4.0945,-4.0917,-4.0869,-4.0858,-4.0856,-4.1071,-4.1107,-4.174,-4.2371,-4.2502,-4.2281,-4.2198,-4.1967,-4.1832,-4.1589,-4.1448,-4.1393,-4.1157,-4.0958,-4.0976,-4.1046,-4.0996,-4.1054,-4.1073,-4.1132,-4.117,-4.1112,-4.1207,-4.1317,-4.154,-4.218,-4.2936,-4.2985,-4.3038,-4.3605,-4.3631,-4.3346,-4.3273,-4.3675,-4.3964,-4.4015,-4.4186,-4.46,-4.4867,-4.4905,-4.5052,-4.4851,-4.4957,-4.4863,-4.4647,-4.4542,-4.4498,-4.4331,-4.4149]}]]